[[{"header":{"parameterUnit":"m.s-1","parameterCategory":1,"la1":31.0,"la2":29.5877,"lo1":-88.7671,"lo2":-86.6584,"dy":0.0162,"dx":0.0185,"nx":115,"ny":88,"refTime":"2026-05-03T12:00:00:Z","depth":0,"parameterNumber":2,"parameterNumberName":"U-component_of_WINDS"},"data":[0.0,0.0,0.0,0.0,0.0,0.0,0.0,0.0,0.0,0.0,0.0,0.0,0.0,0.0,0.0,0.0,0.0,0.0,0.0,0.0,0.0,0.0,0.0,0.0,0.0,0.0,0.0,0.0,0.0,0.0,0.0,0.0,0.0,0.0,0.0,0.0,0.0,0.0,0.0,0.0,0.0,0.0,0.0,0.0,0.0,0.0,0.0,0.0,0.0,0.0,0.0,0.0,0.0,0.0,0.0,0.0,0.0,0.0,0.0,0.0,0.0,0.0,0.0,0.0,0.0,0.0,0.0,0.0,0.0,0.0,0.0,0.0,0.0,0.0,0.0,0.0,0.0,0.0,0.0,0.0,0.0,0.0,0.0,0.0,0.0,0.0,0.0,0.0,0.0,0.0,0.0,0.0,0.0,0.0,0.0,0.0,0.0,0.0,0.0,0.0,0.0,0.0,0.0,0.0,0.0,0.0,0.0,0.0,0.0,0.0,0.0,0.0,0.0,0.0,0.0,0.0,0.0,0.0,0.0,0.0,0.0,0.0,0.0,0.0,0.0,0.0,0.0,0.0,0.0,0.0,0.0,0.0,0.0,0.0,0.0,0.0,0.0,0.0,0.0,0.0,0.0,0.0,0.0,0.0,0.0,0.0,0.0,0.0,0.0,0.0,0.0,0.0,0.0,0.0,0.0,0.0,0.0,0.0,0.0,0.0,0.0,0.0,0.0,0.0,0.0,0.0,0.0,0.0,0.0,0.0,0.0,0.0,0.0,0.0,0.0,0.0,0.0,0.0,0.0,0.0,0.0,0.0,0.0,0.0,0.0,0.0,0.0,0.0,0.0,0.0,0.0,0.0,0.0,0.0,0.0,0.0,0.0,0.0,0.0,0.0,0.0,0.0,0.0,0.0,0.0,0.0,0.0,0.0,0.0,0.0,0.0,0.0,0.0,0.0,0.0,0.0,0.0,0.0,0.0,0.0,0.0,0.0,0.0,0.0,0.0,0.0,0.0,0.0,0.0,0.0,0.0,0.0,0.0,0.0,0.0,0.0,0.0,0.0,0.0,0.0,0.0,0.0,0.0,0.0,0.0,0.0,0.0,0.0,0.0,0.0,0.0,0.0,0.0,0.0,0.0,0.0,0.0,0.0,0.0,0.0,0.0,0.0,0.0,0.0,0.0,0.0,0.0,0.0,0.0,0.0,0.0,0.0,0.0,0.0,0.0,0.0,0.0,0.0,0.0,0.0,0.0,0.0,0.0,0.0,0.0,0.0,0.0,0.0,0.0,0.0,0.0,0.0,0.0,0.0,0.0,0.0,0.0,0.0,0.0,0.0,0.0,0.0,0.0,0.0,0.0,0.0,0.0,0.0,0.0,0.0,0.0,0.0,0.0,0.0,0.0,0.0,0.0,0.0,0.0,0.0,0.0,0.0,0.0,0.0,0.0,0.0,0.0,0.0,0.0,0.0,0.0,0.0,0.0,0.0,0.0,0.0,0.0,0.0,0.0,0.0,0.0,0.0,0.0,0.0,0.0,0.0,0.0,0.0,0.0,0.0,0.0,0.0,0.0,0.0,0.0,0.0,0.0,0.0,0.0,0.0,0.0,0.0,0.0,0.0,0.0,0.0,0.0,0.0,0.0,0.0,0.0,0.0,0.0,0.0,0.0,0.0,0.0,0.0,0.0,0.0,0.0,0.0,0.0,0.0,0.0,0.0,0.0,0.0,0.0,0.0,0.0,0.0,0.0,0.0,0.0,0.0,0.0,0.0,0.0,0.0,0.0,0.0,0.0,0.0,0.0,0.0,0.0,0.0,0.0,0.0,0.0,0.0,0.0,0.0,0.0,0.0,0.0,0.0,0.0,0.0,0.0,0.0,0.0,0.0,0.0,0.0,0.0,0.0,0.0,0.0,0.0,0.0,0.0,0.0,0.0,0.0,0.0,0.0,0.0,0.0,0.0,0.0,0.0,0.0,0.0,0.0,0.0,0.0,0.0,0.0,0.0,0.0,0.0,0.0,0.0,0.0,0.0,0.0,0.0,0.0,0.0,0.0,0.0,0.0,0.0,0.0,0.0,0.0,0.0,0.0,0.0,0.0,0.0,0.0,0.0,0.0,0.0,0.0,0.0,0.0,0.0,0.0,0.0,0.0,0.0,0.0,0.0,0.0,0.0,0.0,0.0,0.0,0.0,0.0,0.0,0.0,0.0,0.0,0.0,0.0,0.0,0.0,0.0,0.0,0.0,0.0,0.0,0.0,0.0,0.0,0.0,0.0,0.0,0.0,0.0,0.0,0.0,0.0,0.0,0.0,0.0,0.0,0.0,0.0,0.0,0.0,0.0,0.0,0.0,0.0,0.0,0.0,0.0,0.0,0.0,0.0,0.0,0.0,0.0,0.0,0.0,0.0,0.0,0.0,0.0,0.0,0.0,0.0,0.0,0.0,0.0,0.0,0.0,0.0,0.0,0.0,0.0,0.0,0.0,0.0,0.0,0.0,0.0,0.0,0.0,0.0,0.0,0.0,0.0,0.0,0.0,0.0,0.0,0.0,0.0,0.0,0.0,0.0,0.0,0.0,0.0,0.0,0.0,0.0,0.0,0.0,0.0,0.0,0.0,0.0,0.0,0.0,0.0,0.0,0.0,0.0,0.0,0.0,0.0,0.0,0.0,0.0,0.0,0.0,0.0,0.0,0.0,0.0,0.0,0.0,0.0,0.0,0.0,0.0,0.0,0.0,0.0,0.0,0.0,0.0,0.0,0.0,0.0,0.0,0.0,0.0,0.0,0.0,0.0,0.0,0.0,0.0,0.0,0.0,0.0,0.0,0.0,0.0,0.0,0.0,0.0,0.0,0.0,0.0,0.0,0.0,0.0,0.0,0.0,0.0,0.0,0.0,0.0,0.0,0.0,0.0,0.0,0.0,0.0,0.0,0.0,0.0,0.0,0.0,0.0,0.0,0.0,0.0,0.0,0.0,0.0,0.0,0.0,0.0,0.0,0.0,0.0,0.0,0.0,0.0,0.0,0.0,0.0,0.0,0.0,0.0,0.0,0.0,0.0,0.0,0.0,0.0,0.0,0.0,0.0,0.0,0.0,0.0,0.0,0.0,0.0,0.0,0.0,0.0,0.0,0.0,0.0,0.0,0.0,0.0,0.0,0.0,0.0,0.0,0.0,0.0,0.0,0.0,0.0,0.0,0.0,0.0,0.0,0.0,0.0,0.0,0.0,0.0,0.0,0.0,0.0,0.0,0.0,0.0,0.0,0.0,0.0,0.0,0.0,0.0,0.0,0.0,0.0,0.0,0.0,0.0,0.0,0.0,0.0,0.0,0.0,0.0,0.0,0.0,0.0,0.0,0.0,0.0,0.0,0.0,0.0,0.0,0.0,0.0,0.0,0.0,0.0,0.0,0.0,0.0,0.0,0.0,0.0,0.0,0.0,0.0,0.0,0.0,0.0,0.0,0.0,0.0,0.0,0.0,0.0,0.0,0.0,0.0,0.0,0.0,0.0,0.0,0.0,0.0,0.0,0.0,0.0,0.0,0.0,0.0,0.0,0.0,0.0,0.0,0.0,0.0,0.0,0.0,0.0,0.0,0.0,0.0,0.0,0.0,0.0,0.0,0.0,0.0,0.0,0.0,0.0,0.0,0.0,0.0,0.0,0.0,0.0,0.0,0.0,0.0,0.0,0.0,0.0,0.0,0.0,0.0,0.0,0.0,0.0,0.0,0.0,0.0,0.0,0.0,0.0,0.0,0.0,0.0,0.0,0.0,0.0,0.0,0.0,0.0,0.0,0.0,0.0,0.0,0.0,0.0,0.0,0.0,0.0,0.0,0.0,0.0,0.0,0.0,0.0,0.0,0.0,0.0,0.0,0.0,0.0,0.0,0.0,0.0,0.0,0.0,0.0,0.0,0.0,0.0,0.0,0.0,0.0,0.0,0.0,0.0,0.0,0.0,0.0,0.0,0.0,0.0,0.0,0.0,0.0,0.0,0.0,0.0,0.0,0.0,0.0,0.0,0.0,0.0,0.0,0.0,0.0,0.0,0.0,0.0,0.0,0.0,0.0,0.0,0.0,0.0,0.0,0.0,0.0,0.0,0.0,0.0,0.0,0.0,0.0,0.0,0.0,0.0,0.0,0.0,0.0,0.0,0.0,0.0,0.0,0.0,0.0,0.0,0.0,0.0,0.0,0.0,0.0,0.0,0.0,0.0,0.0,0.0,0.0,0.0,0.0,0.0,0.0,0.0,0.0,0.0,0.0,0.0,0.0,0.0,0.0,0.0,-0.8793,0.0,0.0,0.0,0.0,0.0,0.0,0.0,0.0,0.0,0.0,0.0,0.0,0.0,0.0,0.0,0.0,0.0,0.0,0.0,0.0,0.0,0.0,0.0,0.0,0.0,0.0,0.0,0.0,0.0,0.0,0.0,0.0,0.0,0.0,0.0,0.0,0.0,0.0,0.0,0.0,0.0,0.0,0.0,0.0,0.0,0.0,0.0,0.0,0.0,0.0,0.0,0.0,0.0,0.0,0.0,0.0,0.0,0.0,0.0,0.0,0.0,0.0,0.0,0.0,0.0,0.0,0.0,0.0,0.0,0.0,0.0,0.0,0.0,0.0,0.0,0.0,0.0,0.0,0.0,0.0,0.0,0.0,0.0,0.0,0.0,0.0,0.0,0.0,0.0,0.0,0.0,0.0,0.0,0.0,0.0,0.0,0.0,0.0,0.0,0.0,0.0,0.0,0.0,0.0,0.0,0.0,0.0,0.0,0.0,0.0,-0.8747,-0.8685,-0.8679,-0.8703,-0.8745,0.0,0.0,0.0,0.0,0.0,0.0,0.0,0.0,0.0,0.0,0.0,0.0,0.0,0.0,0.0,0.0,0.0,0.0,0.0,0.0,0.0,0.0,0.0,0.0,0.0,0.0,0.0,0.0,0.0,0.0,0.0,0.0,0.0,0.0,0.0,0.0,0.0,0.0,0.0,0.0,0.0,0.0,0.0,0.0,0.0,0.0,0.0,0.0,0.0,0.0,0.0,0.0,0.0,0.0,0.0,0.0,0.0,0.0,0.0,0.0,0.0,0.0,0.0,0.0,0.0,0.0,0.0,0.0,0.0,0.0,0.0,0.0,0.0,0.0,0.0,0.0,0.0,0.0,0.0,0.0,0.0,0.0,0.0,0.0,0.0,0.0,0.0,0.0,0.0,0.0,0.0,0.0,0.0,0.0,0.0,0.0,0.0,0.0,0.0,0.0,0.0,0.0,0.0,0.0,0.0,0.0,0.0,0.0,0.0,0.0,0.0,0.0,-0.8656,-0.853,-0.8422,0.0,0.0,0.0,0.0,0.0,0.0,0.0,0.0,0.0,0.0,0.0,0.0,0.0,0.0,0.0,0.0,0.0,0.0,0.0,0.0,0.0,0.0,0.0,0.0,0.0,0.0,0.0,0.0,0.0,0.0,0.0,0.0,0.0,0.0,0.0,0.0,0.0,0.0,0.0,0.0,0.0,0.0,0.0,0.0,0.0,0.0,0.0,0.0,0.0,0.0,0.0,0.0,0.0,0.0,0.0,0.0,0.0,0.0,0.0,0.0,0.0,0.0,0.0,0.0,0.0,0.0,0.0,0.0,0.0,0.0,0.0,0.0,0.0,0.0,0.0,0.0,0.0,0.0,0.0,0.0,0.0,0.0,0.0,0.0,0.0,0.0,0.0,0.0,0.0,0.0,0.0,0.0,0.0,0.0,0.0,0.0,0.0,0.0,0.0,0.0,0.0,0.0,0.0,0.0,0.0,0.0,0.0,0.0,0.0,0.0,-0.8896,-0.9482,-0.886,0.0,-0.766,0.0,0.0,0.0,0.0,0.0,0.0,0.0,0.0,0.0,0.0,0.0,0.0,0.0,0.0,0.0,0.0,0.0,0.0,0.0,0.0,0.0,0.0,0.0,0.0,0.0,0.0,0.0,0.0,0.0,0.0,0.0,0.0,0.0,0.0,0.0,0.0,0.0,0.0,0.0,0.0,0.0,0.0,0.0,0.0,0.0,0.0,0.0,0.0,0.0,0.0,0.0,0.0,0.0,0.0,0.0,0.0,0.0,0.0,0.0,0.0,0.0,0.0,0.0,0.0,0.0,0.0,0.0,0.0,0.0,0.0,0.0,0.0,0.0,0.0,0.0,0.0,0.0,0.0,0.0,0.0,0.0,0.0,0.0,0.0,0.0,0.0,0.0,0.0,0.0,0.0,0.0,0.0,0.0,0.0,0.0,0.0,0.0,0.0,0.0,0.0,0.0,0.0,0.0,0.0,0.0,0.0,0.0,0.0,0.0,0.0,-0.9372,-0.9588,-0.931,-0.8627,0.0,0.0,0.0,0.0,0.0,0.0,0.0,0.0,0.0,0.0,0.0,0.0,0.0,0.0,0.0,0.0,0.0,0.0,0.0,0.0,0.0,0.0,0.0,0.0,0.0,0.0,0.0,0.0,0.0,0.0,0.0,0.0,0.0,0.0,0.0,0.0,0.0,0.0,0.0,0.0,0.0,0.0,0.0,0.0,0.0,0.0,0.0,0.0,0.0,0.0,0.0,0.0,0.0,0.0,0.0,0.0,0.0,0.0,0.0,0.0,0.0,0.0,0.0,0.0,0.0,0.0,0.0,0.0,0.0,0.0,0.0,0.0,0.0,0.0,0.0,0.0,0.0,0.0,0.0,0.0,0.0,0.0,0.0,0.0,0.0,0.0,0.0,0.0,0.0,0.0,0.0,0.0,0.0,0.0,0.0,0.0,0.0,0.0,0.0,0.0,0.0,0.0,0.0,0.0,0.0,0.0,0.0,0.0,0.0,0.0,-0.9114,-0.9322,-0.9283,-0.9458,-0.8825,-0.7216,0.0,0.0,0.0,0.0,0.0,0.0,0.0,0.0,0.0,0.0,0.0,0.0,0.0,0.0,0.0,0.0,0.0,0.0,0.0,0.0,0.0,0.0,0.0,0.0,0.0,0.0,0.0,0.0,0.0,0.0,0.0,0.0,0.0,0.0,0.0,0.0,0.0,0.0,0.0,0.0,0.0,0.0,0.0,0.0,0.0,0.0,0.0,0.0,0.0,0.0,0.0,0.0,0.0,0.0,0.0,0.0,0.0,0.0,0.0,0.0,0.0,0.0,0.0,0.0,0.0,0.0,0.0,0.0,0.0,0.0,0.0,0.0,0.0,0.0,0.0,0.0,0.0,0.0,0.0,0.0,0.0,0.0,0.0,0.0,0.0,0.0,0.0,0.0,0.0,0.0,0.0,0.0,0.0,0.0,0.0,0.0,0.0,0.0,0.0,0.0,0.0,0.0,0.0,0.0,0.0,0.0,0.0,0.0,0.0,-0.8521,-0.8457,-0.8495,-0.9133,-0.8521,0.0,0.0,0.0,0.0,0.0,0.0,0.0,0.0,0.0,0.0,0.0,0.0,0.0,0.0,0.0,0.0,0.0,0.0,0.0,0.0,0.0,0.0,0.0,0.0,0.0,0.0,0.0,0.0,0.0,0.0,0.0,0.0,0.0,0.0,0.0,0.0,0.0,0.0,0.0,0.0,0.0,0.0,0.0,0.0,0.0,0.0,0.0,0.0,0.0,0.0,0.0,0.0,0.0,0.0,0.0,0.0,0.0,0.0,0.0,0.0,0.0,0.0,0.0,0.0,0.0,0.0,0.0,0.0,0.0,0.0,0.0,0.0,0.0,0.0,0.0,0.0,0.0,0.0,0.0,0.0,0.0,0.0,0.0,0.0,0.0,0.0,0.0,0.0,0.0,0.0,0.0,0.0,0.0,0.0,0.0,0.0,0.0,0.0,0.0,0.0,0.0,0.0,0.0,0.0,0.0,0.0,0.0,0.0,0.0,-0.8492,-0.8845,-0.8811,-0.8367,-0.8605,-0.7757,0.0,0.0,0.0,0.0,0.0,0.0,0.0,0.0,0.0,0.0,0.0,0.0,0.0,0.0,0.0,0.0,0.0,0.0,0.0,0.0,0.0,0.0,0.0,0.0,0.0,0.0,0.0,0.0,0.0,0.0,0.0,0.0,0.0,0.0,0.0,0.0,0.0,0.0,0.0,0.0,0.0,0.0,0.0,0.0,0.0,0.0,0.0,0.0,0.0,0.0,0.0,0.0,0.0,0.0,0.0,0.0,0.0,0.0,0.0,0.0,0.0,0.0,0.0,0.0,0.0,0.0,0.0,0.0,0.0,0.0,0.0,0.0,0.0,0.0,0.0,0.0,0.0,0.0,0.0,0.0,0.0,0.0,0.0,0.0,0.0,0.0,0.0,0.0,0.0,0.0,0.0,0.0,0.0,0.0,0.0,0.0,0.0,0.0,0.0,0.0,0.0,0.0,0.0,0.0,0.0,0.0,0.0,0.0,0.0,-0.8743,0.0,-0.9599,0.0,-0.8629,-0.7655,0.0,0.0,0.0,0.0,0.0,0.0,0.0,0.0,0.0,0.0,0.0,0.0,0.0,0.0,0.0,0.0,0.0,0.0,0.0,0.0,0.0,0.0,0.0,0.0,0.0,0.0,0.0,0.0,0.0,0.0,0.0,0.0,0.0,0.0,0.0,0.0,0.0,0.0,0.0,0.0,0.0,0.0,0.0,0.0,0.0,0.0,0.0,0.0,0.0,0.0,0.0,0.0,0.0,0.0,0.0,0.0,0.0,0.0,0.0,0.0,0.0,0.0,0.0,0.0,0.0,0.0,0.0,0.0,0.0,0.0,0.0,0.0,0.0,0.0,0.0,0.0,0.0,0.0,0.0,0.0,0.0,0.0,0.0,0.0,0.0,0.0,0.0,0.0,0.0,0.0,0.0,0.0,0.0,0.0,0.0,0.0,0.0,0.0,0.0,0.0,0.0,0.0,0.0,0.0,0.0,0.0,0.0,0.0,-0.8798,-0.9448,-1.0697,-1.0706,-0.948,-0.9299,-0.8298,0.0,0.0,0.0,0.0,0.0,0.0,0.0,0.0,0.0,0.0,0.0,0.0,0.0,0.0,0.0,0.0,0.0,0.0,0.0,0.0,0.0,0.0,0.0,0.0,0.0,0.0,0.0,0.0,0.0,0.0,0.0,0.0,0.0,0.0,0.0,0.0,0.0,0.0,0.0,0.0,0.0,0.0,0.0,0.0,0.0,0.0,0.0,0.0,0.0,0.0,0.0,0.0,0.0,0.0,0.0,0.0,0.0,0.0,0.0,0.0,0.0,0.0,0.0,0.0,0.0,0.0,0.0,0.0,0.0,0.0,0.0,0.0,0.0,0.0,0.0,0.0,0.0,0.0,0.0,0.0,0.0,0.0,0.0,0.0,0.0,0.0,0.0,0.0,0.0,0.0,0.0,0.0,0.0,0.0,0.0,0.0,0.0,0.0,0.0,0.0,0.0,0.0,0.0,0.0,0.0,0.0,0.0,0.0,0.0,-1.0918,-1.1274,-1.105,-1.0168,-0.9192,-0.816,0.0,0.0,0.0,0.0,0.0,0.0,0.0,0.0,0.0,0.0,0.0,0.0,0.0,0.0,0.0,0.0,0.0,0.0,0.0,0.0,0.0,0.0,0.0,0.0,0.0,0.0,0.0,0.0,0.0,0.0,0.0,0.0,0.0,0.0,0.0,0.0,0.0,0.0,0.0,0.0,0.0,0.0,0.0,0.0,0.0,0.0,0.0,0.0,0.0,0.0,0.0,0.0,0.0,0.0,0.0,0.0,0.0,0.0,0.0,0.0,0.0,0.0,0.0,0.0,0.0,0.0,0.0,0.0,0.0,0.0,0.0,0.0,0.0,0.0,0.0,0.0,0.0,0.0,0.0,0.0,0.0,0.0,0.0,0.0,0.0,0.0,0.0,0.0,0.0,0.0,0.0,0.0,0.0,0.0,0.0,0.0,0.0,0.0,0.0,0.0,0.0,0.0,0.0,0.0,0.0,0.0,0.0,0.0,0.0,-1.3153,-1.2895,-1.2275,-1.1301,-1.016,-0.8984,-0.7781,0.0,0.0,0.0,0.0,0.0,0.0,0.0,0.0,0.0,0.0,0.0,0.0,0.0,0.0,0.0,0.0,0.0,0.0,0.0,0.0,0.0,0.0,0.0,0.0,0.0,0.0,0.0,0.0,0.0,0.0,0.0,0.0,0.0,0.0,0.0,0.0,0.0,0.0,0.0,0.0,0.0,0.0,0.0,0.0,0.0,0.0,0.0,0.0,0.0,0.0,0.0,0.0,0.0,0.0,0.0,0.0,0.0,0.0,0.0,0.0,0.0,0.0,0.0,0.0,0.0,0.0,0.0,0.0,0.0,0.0,0.0,0.0,0.0,0.0,0.0,0.0,0.0,0.0,0.0,0.0,0.0,0.0,0.0,0.0,0.0,0.0,0.0,0.0,0.0,0.0,0.0,0.0,0.0,0.0,0.0,0.0,0.0,0.0,0.0,0.0,0.0,0.0,0.0,0.0,0.0,0.0,0.0,0.0,-1.5919,-1.5353,-1.4357,-1.2913,-1.2055,-1.0621,0.0,0.0,0.0,0.0,0.0,0.0,0.0,0.0,0.0,0.0,0.0,0.0,0.0,0.0,0.0,0.0,0.0,0.0,0.0,0.0,0.0,0.0,0.0,0.0,0.0,0.0,0.0,0.0,0.0,0.0,0.0,0.0,0.0,0.0,0.0,0.0,0.0,0.0,0.0,0.0,0.0,0.0,0.0,0.0,0.0,0.0,0.0,0.0,0.0,0.0,0.0,0.0,0.0,0.0,0.0,0.0,0.0,0.0,0.0,0.0,0.0,0.0,0.0,0.0,0.0,0.0,0.0,0.0,0.0,0.0,0.0,0.0,0.0,0.0,0.0,0.0,0.0,0.0,0.0,0.0,0.0,0.0,0.0,0.0,0.0,0.0,0.0,0.0,0.0,0.0,0.0,0.0,0.0,0.0,0.0,0.0,0.0,0.0,0.0,0.0,0.0,0.0,0.0,0.0,0.0,0.0,0.0,0.0,0.0,-1.6581,-1.7568,-1.7355,-1.5867,-1.4063,-1.2342,0.0,0.0,0.0,0.0,0.0,0.0,0.0,0.0,0.0,0.0,0.0,0.0,0.0,0.0,0.0,0.0,0.0,0.0,0.0,0.0,0.0,0.0,0.0,0.0,0.0,0.0,0.0,0.0,0.0,0.0,0.0,0.0,0.0,0.0,0.0,0.0,0.0,0.0,0.0,0.0,0.0,0.0,0.0,0.0,0.0,0.0,0.0,0.0,0.0,0.0,0.0,0.0,0.0,0.0,0.0,0.0,0.0,0.0,0.0,0.0,0.0,0.0,0.0,0.0,0.0,0.0,0.0,0.0,0.0,0.0,0.0,0.0,0.0,0.0,0.0,0.0,0.0,0.0,0.0,0.0,0.0,0.0,0.0,0.0,0.0,0.0,0.0,0.0,0.0,0.0,0.0,0.0,0.0,0.0,0.0,0.0,0.0,0.0,0.0,0.0,0.0,0.0,0.0,0.0,0.0,0.0,0.0,0.0,-1.5547,-1.7292,-1.8857,-1.9079,-1.7915,-1.5458,-1.3472,0.0,0.0,0.0,0.0,0.0,0.0,0.0,0.0,0.0,0.0,0.0,0.0,0.0,0.0,0.0,0.0,0.0,0.0,0.0,0.0,0.0,0.0,0.0,0.0,0.0,0.0,0.0,0.0,0.0,0.0,0.0,0.0,0.0,0.0,0.0,0.0,0.0,0.0,0.0,0.0,0.0,0.0,0.0,0.0,0.0,0.0,0.0,0.0,0.0,0.0,0.0,0.0,0.0,0.0,0.0,0.0,0.0,0.0,0.0,0.0,0.0,0.0,0.0,0.0,0.0,0.0,0.0,0.0,0.0,0.0,0.0,0.0,0.0,0.0,0.0,0.0,0.0,0.0,0.0,0.0,0.0,0.0,0.0,0.0,0.0,0.0,0.0,0.0,0.0,0.0,0.0,0.0,0.0,0.0,0.0,0.0,0.0,0.0,0.0,0.0,0.0,0.0,0.0,0.0,0.0,0.0,0.0,0.0,-1.5874,-1.7937,-1.9539,-1.994,-1.9044,-1.651,-1.4345,0.0,0.0,0.0,0.0,0.0,0.0,0.0,0.0,0.0,0.0,0.0,0.0,0.0,0.0,0.0,0.0,0.0,0.0,0.0,0.0,0.0,0.0,0.0,0.0,0.0,0.0,0.0,0.0,0.0,0.0,0.0,0.0,0.0,0.0,0.0,0.0,0.0,0.0,0.0,0.0,0.0,0.0,0.0,0.0,0.0,0.0,0.0,0.0,0.0,0.0,0.0,0.0,0.0,0.0,0.0,0.0,0.0,0.0,0.0,0.0,0.0,0.0,0.0,0.0,0.0,0.0,0.0,0.0,0.0,0.0,0.0,0.0,0.0,0.0,0.0,0.0,0.0,0.0,0.0,0.0,0.0,0.0,0.0,0.0,0.0,0.0,0.0,0.0,0.0,0.0,0.0,0.0,0.0,0.0,0.0,0.0,0.0,0.0,0.0,0.0,0.0,0.0,0.0,0.0,0.0,0.0,0.0,0.0,-1.6871,-1.8441,-1.9955,-2.0145,-1.8829,-1.7839,-1.6075,0.0,0.0,0.0,0.0,0.0,0.0,0.0,0.0,0.0,0.0,0.0,0.0,0.0,0.0,0.0,0.0,0.0,0.0,0.0,0.0,0.0,0.0,0.0,0.0,0.0,0.0,0.0,0.0,0.0,0.0,0.0,0.0,0.0,0.0,0.0,0.0,0.0,0.0,0.0,0.0,0.0,0.0,0.0,0.0,0.0,0.0,0.0,0.0,-1.1401,0.0,0.0,0.0,0.0,0.0,0.0,0.0,0.0,0.0,0.0,0.0,0.0,0.0,0.0,0.0,0.0,0.0,0.0,0.0,0.0,0.0,0.0,0.0,0.0,0.0,0.0,0.0,0.0,0.0,0.0,0.0,0.0,0.0,0.0,0.0,0.0,0.0,0.0,0.0,0.0,0.0,0.0,0.0,0.0,0.0,0.0,0.0,0.0,0.0,0.0,0.0,0.0,0.0,0.0,0.0,0.0,0.0,0.0,0.0,-1.7307,-1.8391,-1.9891,-1.9987,-1.8621,-1.8417,-1.6982,0.0,0.0,0.0,0.0,0.0,0.0,0.0,0.0,0.0,0.0,0.0,0.0,0.0,0.0,0.0,0.0,0.0,0.0,0.0,0.0,0.0,0.0,0.0,0.0,0.0,0.0,0.0,0.0,0.0,0.0,0.0,0.0,0.0,0.0,0.0,0.0,0.0,0.0,0.0,0.0,0.0,0.0,0.0,0.0,0.0,0.0,0.0,0.0,0.0,0.0,0.0,0.0,0.0,0.0,0.0,0.0,0.0,0.0,0.0,0.0,0.0,0.0,0.0,0.0,0.0,0.0,0.0,0.0,0.0,0.0,0.0,0.0,0.0,0.0,0.0,0.0,0.0,0.0,0.0,0.0,0.0,0.0,0.0,0.0,0.0,0.0,0.0,0.0,0.0,0.0,0.0,0.0,0.0,0.0,0.0,0.0,0.0,0.0,0.0,0.0,0.0,0.0,0.0,0.0,0.0,0.0,0.0,-1.579,-1.741,-1.8192,-1.9597,-1.9726,-1.8454,-1.8479,-1.7184,-1.4429,0.0,0.0,0.0,0.0,0.0,0.0,0.0,0.0,0.0,0.0,0.0,0.0,0.0,0.0,0.0,0.0,0.0,0.0,0.0,0.0,0.0,0.0,0.0,0.0,0.0,0.0,0.0,0.0,0.0,0.0,0.0,0.0,0.0,0.0,0.0,0.0,0.0,0.0,-0.7926,-0.7903,0.0,0.0,0.0,0.0,0.0,0.0,0.0,0.0,-1.1273,0.0,0.0,0.0,0.0,0.0,0.0,0.0,0.0,0.0,0.0,0.0,0.0,0.0,0.0,0.0,0.0,0.0,0.0,0.0,0.0,0.0,0.0,0.0,0.0,0.0,0.0,0.0,0.0,0.0,0.0,0.0,0.0,0.0,0.0,0.0,0.0,0.0,0.0,0.0,0.0,0.0,0.0,0.0,0.0,0.0,0.0,0.0,0.0,0.0,0.0,0.0,0.0,0.0,0.0,0.0,0.0,-1.3849,-1.5836,-1.7273,-1.8113,-1.9446,-1.9591,-1.8439,-1.7937,-1.6385,-1.3668,0.0,0.0,0.0,0.0,0.0,0.0,0.0,0.0,0.0,0.0,0.0,0.0,0.0,0.0,0.0,0.0,0.0,0.0,0.0,0.0,0.0,0.0,0.0,0.0,0.0,0.0,0.0,0.0,0.0,0.0,0.0,0.0,0.0,0.0,0.0,0.0,0.0,0.0,0.0,-1.0209,-1.1062,0.0,0.0,0.0,0.0,0.0,0.0,0.0,0.0,-1.1121,0.0,0.0,0.0,0.0,0.0,0.0,0.0,0.0,0.0,0.0,0.0,0.0,0.0,0.0,0.0,0.0,0.0,0.0,0.0,0.0,0.0,0.0,0.0,0.0,0.0,0.0,0.0,0.0,0.0,0.0,0.0,0.0,0.0,0.0,0.0,0.0,0.0,0.0,0.0,0.0,0.0,0.0,0.0,0.0,0.0,0.0,0.0,0.0,0.0,0.0,0.0,0.0,0.0,0.0,0.0,-1.3795,-1.598,-1.7354,-1.7874,-1.921,-1.9373,-1.8237,-1.7637,-1.6068,0.0,0.0,0.0,0.0,0.0,0.0,0.0,0.0,0.0,0.0,0.0,0.0,0.0,0.0,0.0,0.0,0.0,0.0,0.0,0.0,0.0,0.0,0.0,0.0,0.0,0.0,0.0,0.0,0.0,0.0,0.0,0.0,0.0,0.0,0.0,0.0,0.0,0.0,0.0,0.0,-1.2332,-1.3046,-1.31,0.0,0.0,0.0,0.0,0.0,0.0,-1.1485,-1.1502,0.0,0.0,0.0,0.0,0.0,0.0,0.0,0.0,0.0,0.0,0.0,0.0,0.0,0.0,0.0,0.0,0.0,0.0,0.0,0.0,0.0,0.0,0.0,0.0,0.0,0.0,0.0,0.0,0.0,0.0,0.0,0.0,0.0,0.0,0.0,0.0,0.0,0.0,0.0,0.0,0.0,0.0,0.0,0.0,0.0,0.0,0.0,0.0,0.0,0.0,0.0,0.0,0.0,0.0,0.0,-1.3633,-1.6111,-1.7502,-1.7709,-1.9073,-1.9254,-1.8126,-1.7379,-1.576,0.0,0.0,0.0,0.0,0.0,0.0,0.0,0.0,0.0,0.0,0.0,0.0,0.0,0.0,0.0,0.0,0.0,0.0,0.0,0.0,0.0,0.0,0.0,0.0,0.0,0.0,0.0,0.0,0.0,0.0,0.0,0.0,0.0,0.0,0.0,0.0,0.0,0.0,0.0,0.0,0.0,-1.4403,-1.469,-1.4618,0.0,0.0,0.0,0.0,-1.2874,-1.2538,0.0,0.0,0.0,0.0,0.0,0.0,0.0,0.0,0.0,0.0,0.0,0.0,0.0,0.0,0.0,0.0,0.0,0.0,0.0,0.0,0.0,0.0,0.0,0.0,0.0,0.0,0.0,0.0,0.0,0.0,0.0,0.0,0.0,0.0,0.0,0.0,0.0,0.0,0.0,0.0,0.0,0.0,0.0,0.0,0.0,0.0,0.0,0.0,0.0,0.0,0.0,0.0,0.0,0.0,0.0,0.0,-1.3648,-1.617,-1.7614,-1.7918,-1.9138,-1.9338,-1.8377,-1.7095,-1.5147,0.0,0.0,0.0,0.0,0.0,0.0,0.0,0.0,0.0,0.0,0.0,0.0,0.0,0.0,0.0,0.0,0.0,0.0,0.0,0.0,0.0,0.0,0.0,0.0,0.0,0.0,0.0,0.0,0.0,0.0,0.0,0.0,0.0,0.0,0.0,0.0,0.0,0.0,0.0,0.0,0.0,-1.484,-1.6287,-1.5459,-1.465,0.0,0.0,-1.4214,-1.2976,-1.3574,0.0,0.0,0.0,0.0,0.0,0.0,0.0,0.0,0.0,0.0,0.0,0.0,0.0,0.0,0.0,0.0,0.0,0.0,0.0,0.0,0.0,0.0,0.0,0.0,0.0,0.0,0.0,0.0,0.0,0.0,0.0,0.0,0.0,0.0,0.0,0.0,0.0,0.0,0.0,0.0,0.0,0.0,0.0,0.0,0.0,0.0,0.0,0.0,0.0,0.0,0.0,0.0,0.0,0.0,0.0,-1.2264,-1.3633,-1.6125,-1.755,-1.776,-1.9088,-1.9303,-1.8253,-1.7373,-1.5474,0.0,0.0,0.0,0.0,0.0,0.0,0.0,0.0,0.0,0.0,0.0,0.0,0.0,0.0,0.0,0.0,0.0,0.0,0.0,0.0,0.0,0.0,0.0,0.0,0.0,0.0,0.0,0.0,0.0,0.0,0.0,0.0,0.0,0.0,0.0,0.0,0.0,0.0,0.0,0.0,0.0,0.0,-1.6723,-1.633,0.0,0.0,0.0,-1.4898,-1.5239,0.0,0.0,0.0,0.0,0.0,0.0,0.0,0.0,0.0,0.0,0.0,0.0,0.0,0.0,0.0,0.0,0.0,0.0,0.0,0.0,0.0,0.0,0.0,0.0,0.0,0.0,0.0,0.0,0.0,0.0,0.0,0.0,0.0,0.0,0.0,0.0,0.0,0.0,0.0,0.0,0.0,0.0,0.0,0.0,0.0,0.0,0.0,0.0,0.0,0.0,0.0,0.0,0.0,0.0,0.0,0.0,0.0,-1.3578,-1.608,-1.7438,-1.7612,-1.8986,-1.9202,-1.8142,-1.7637,0.0,0.0,0.0,0.0,0.0,0.0,0.0,0.0,0.0,0.0,0.0,0.0,0.0,0.0,0.0,0.0,0.0,0.0,0.0,0.0,0.0,0.0,0.0,0.0,0.0,0.0,0.0,-0.2222,0.0,0.0,0.0,0.0,0.0,0.0,0.0,0.0,0.0,0.0,0.0,0.0,0.0,0.0,-1.6886,-1.6835,-1.7279,-1.7746,0.0,0.0,-1.6368,-1.7098,-1.6367,-1.5471,0.0,0.0,0.0,0.0,0.0,0.0,0.0,0.0,0.0,0.0,0.0,0.0,0.0,0.0,0.0,0.0,0.0,0.0,0.0,0.0,0.0,0.0,0.0,0.0,0.0,0.0,0.0,0.0,0.0,0.0,0.0,0.0,0.0,0.0,0.0,0.0,0.0,0.0,0.0,0.0,0.0,0.0,0.0,0.0,0.0,0.0,0.0,0.0,0.0,0.0,0.0,0.0,0.0,0.0,0.0,-1.3542,-1.6004,-1.7372,-1.7548,-1.8812,-1.9064,-1.8126,-1.7592,-1.6026,0.0,0.0,0.0,0.0,0.0,0.0,0.0,0.0,0.0,0.0,0.0,0.0,0.0,0.0,0.0,0.0,0.0,0.0,0.0,0.0,0.0,0.0,0.0,0.0,0.0,0.0,0.0,0.0,0.0,0.0,0.0,0.0,0.0,0.0,0.0,0.0,0.0,0.0,0.0,0.0,0.0,-1.6918,-1.6902,-1.8282,-1.943,0.0,0.0,-1.9117,-1.7544,-1.8513,-1.84,-1.5391,0.0,0.0,0.0,0.0,0.0,0.0,0.0,0.0,0.0,0.0,0.0,0.0,0.0,0.0,0.0,0.0,0.0,0.0,0.0,0.0,0.0,0.0,0.0,0.0,0.0,0.0,0.0,0.0,0.0,0.0,0.0,0.0,0.0,0.0,0.0,0.0,0.0,0.0,0.0,0.0,0.0,0.0,0.0,0.0,0.0,0.0,0.0,0.0,0.0,0.0,0.0,0.0,0.0,-1.234,-1.3578,-1.6032,-1.7303,-1.7428,-1.8699,-1.8886,-1.7857,-1.7853,-1.639,0.0,0.0,0.0,0.0,0.0,0.0,0.0,0.0,0.0,0.0,0.0,0.0,0.0,0.0,0.0,0.0,0.0,0.0,0.0,0.0,0.0,0.0,0.0,0.0,0.0,0.0,0.0,0.0,-0.5115,-0.4882,-0.4516,0.0,0.0,0.0,0.0,0.0,0.0,0.0,0.0,0.0,0.0,-1.7437,-1.7035,-1.8349,0.0,0.0,-2.0432,-1.985,-1.9782,-1.9844,-1.8998,-1.6327,-1.538,0.0,0.0,0.0,0.0,0.0,0.0,0.0,0.0,0.0,0.0,0.0,0.0,0.0,0.0,0.0,0.0,0.0,0.0,0.0,0.0,0.0,0.0,0.0,0.0,0.0,0.0,0.0,0.0,0.0,0.0,0.0,0.0,0.0,0.0,0.0,0.0,0.0,0.0,0.0,0.0,0.0,0.0,0.0,0.0,0.0,0.0,0.0,0.0,0.0,0.0,0.0,0.0,-1.2343,-1.3537,-1.5956,-1.7214,-1.726,-1.8484,-1.8669,-1.7642,-1.7876,-1.6601,0.0,0.0,0.0,0.0,0.0,0.0,0.0,0.0,0.0,0.0,0.0,0.0,0.0,0.0,0.0,0.0,0.0,0.0,0.0,0.0,0.0,0.0,0.0,0.0,0.0,0.0,0.0,0.0,-0.5664,-0.5041,-0.46,0.0,0.0,0.0,0.0,0.0,0.0,0.0,0.0,0.0,0.0,-1.7921,-1.7707,-1.8577,-1.9696,-2.0901,-2.1253,-2.1229,-2.0879,-2.0364,-1.9347,-1.736,0.0,0.0,0.0,0.0,0.0,0.0,0.0,0.0,0.0,0.0,0.0,0.0,0.0,0.0,0.0,0.0,0.0,0.0,0.0,0.0,0.0,0.0,0.0,0.0,0.0,0.0,0.0,0.0,0.0,0.0,0.0,0.0,0.0,0.0,0.0,0.0,0.0,0.0,0.0,0.0,0.0,0.0,0.0,0.0,0.0,0.0,0.0,0.0,0.0,0.0,0.0,0.0,0.0,-1.22,-1.3394,-1.5784,-1.7044,-1.7119,-1.8211,-1.8331,-1.7374,-1.7566,-1.6518,-1.4031,0.0,0.0,0.0,0.0,0.0,0.0,0.0,0.0,0.0,0.0,0.0,0.0,0.0,0.0,0.0,0.0,0.0,0.0,0.0,0.0,0.0,0.0,0.0,0.0,0.0,0.0,-0.729,-0.5747,-0.4689,0.0,0.0,0.0,0.0,0.0,0.0,0.0,0.0,0.0,0.0,-1.7464,-1.8289,-1.9018,-1.9174,-1.9229,-1.9292,-2.2383,-2.3636,-2.0369,-1.9942,-1.9614,0.0,0.0,0.0,0.0,0.0,0.0,0.0,0.0,0.0,0.0,0.0,0.0,0.0,0.0,0.0,0.0,0.0,0.0,0.0,0.0,0.0,0.0,0.0,0.0,0.0,0.0,0.0,-0.8782,-0.8347,0.0,0.0,0.0,0.0,0.0,0.0,0.0,0.0,0.0,0.0,0.0,-1.3487,-1.3541,0.0,0.0,0.0,0.0,0.0,0.0,0.0,0.0,0.0,0.0,0.0,0.0,-1.1998,-1.3254,-1.5749,-1.7027,-1.699,-1.7791,-1.786,-1.711,-1.6861,-1.561,-1.3272,0.0,0.0,0.0,0.0,0.0,0.0,0.0,0.0,0.0,0.0,0.0,0.0,0.0,0.0,0.0,0.0,0.0,0.0,0.0,0.0,0.0,0.0,0.0,0.0,0.0,-0.7469,0.0,0.0,0.0,0.0,0.0,0.0,0.0,0.0,0.0,0.0,0.0,-1.568,-1.7263,-1.8197,-1.8828,-1.9092,-1.9137,-1.9153,0.0,0.0,0.0,0.0,0.0,0.0,0.0,0.0,0.0,0.0,0.0,0.0,0.0,0.0,-1.8743,-1.4296,-1.3476,-1.367,-1.4334,0.0,0.0,0.0,0.0,0.0,0.0,0.0,0.0,0.0,0.0,0.0,0.0,0.0,0.0,0.0,0.0,-1.0285,0.0,0.0,0.0,0.0,0.0,0.0,0.0,0.0,-1.4976,-1.5459,-1.572,-1.5745,-1.5778,0.0,-1.5567,-1.4302,0.0,0.0,0.0,0.0,0.0,0.0,0.0,0.0,-1.2291,-1.3742,-1.588,-1.6955,-1.69,-1.7469,-1.7416,-1.6627,-1.5931,-1.4701,-1.284,-1.213,-1.0766,0.0,0.0,0.0,0.0,0.0,0.0,0.0,0.0,0.0,0.0,0.0,0.0,0.0,0.0,0.0,0.0,0.0,0.0,0.0,0.0,0.0,0.0,0.0,-0.8175,0.0,0.0,0.0,0.0,0.0,0.0,0.0,0.0,0.0,-1.6106,-1.6327,-1.6696,-1.7707,-1.8563,-1.9095,-1.9095,0.0,0.0,0.0,0.0,0.0,0.0,0.0,-2.0316,-1.8638,-1.9761,-2.0183,-1.8122,-1.7212,-1.7477,-1.9716,0.0,0.0,-1.7297,-1.6909,-1.6795,-1.6292,-1.5629,-1.5204,-1.5415,-1.5005,-1.4619,0.0,0.0,0.0,0.0,0.0,0.0,0.0,0.0,-1.3056,-1.2997,0.0,-1.2597,0.0,0.0,0.0,0.0,0.0,0.0,0.0,0.0,-1.731,-1.7936,-1.8008,-1.7795,-1.7674,-1.7618,-1.7056,-1.6424,-1.5607,-1.3305,0.0,0.0,0.0,0.0,0.0,0.0,-1.3063,-1.4845,-1.6174,-1.6842,-1.681,-1.7289,-1.7054,-1.591,-1.4933,-1.3923,-1.2817,-1.2231,-1.1228,-0.9806,-0.8525,0.0,0.0,0.0,0.0,0.0,0.0,0.0,0.0,0.0,0.0,0.0,0.0,0.0,0.0,0.0,0.0,0.0,0.0,0.0,0.0,-0.8373,0.0,0.0,0.0,0.0,0.0,0.0,0.0,0.0,0.0,0.0,-1.5972,-1.7075,-1.788,-1.7982,0.0,0.0,0.0,0.0,-1.9846,-2.1452,-2.1967,-2.1646,-2.0104,-2.1262,-2.1832,-2.0334,0.0,0.0,-2.0259,-1.9955,-1.9941,-2.0093,-2.0158,-2.0176,-2.0035,-1.9946,-1.961,-1.8286,-1.7993,-1.8059,-1.802,-1.7787,-1.7812,-1.6598,0.0,0.0,0.0,0.0,-1.4533,-1.4608,-1.4641,-1.4782,-1.4771,-1.4629,-1.4629,0.0,0.0,0.0,0.0,0.0,0.0,-1.5793,-1.7113,-1.8401,-1.9152,-1.9452,-1.9531,-1.936,-1.8891,-1.8708,-1.8096,-1.7024,-1.5904,-1.4289,-1.2207,0.0,0.0,0.0,0.0,-1.3897,-1.4868,-1.6556,-1.722,-1.6726,-1.6934,-1.6446,-1.5228,-1.4956,-1.4573,-1.4005,-1.3825,-1.2922,-1.1222,-1.025,0.0,0.0,0.0,0.0,0.0,0.0,0.0,0.0,0.0,0.0,0.0,0.0,0.0,0.0,0.0,0.0,0.0,0.0,0.0,-0.9118,-0.9911,-1.0437,0.0,0.0,0.0,0.0,0.0,0.0,0.0,0.0,0.0,-1.7946,-1.8507,-1.8952,0.0,0.0,-1.9095,-1.9095,-2.1016,-2.2658,-2.322,0.0,0.0,0.0,-2.101,-2.096,-2.1661,-2.2495,-2.24,-2.0334,-2.0033,-2.0079,-2.0108,-2.0139,-2.0197,-2.0256,-2.0299,-2.0205,-1.9853,-1.9774,-1.9562,-1.8998,-1.871,-1.8833,-1.9143,-1.7292,-1.6928,-1.6763,-1.6691,-1.6763,-1.6847,-1.6895,-1.7109,-1.7074,-1.6884,-1.6895,-1.6313,-1.5324,-1.4952,0.0,0.0,0.0,-1.6884,-1.7896,-1.9275,-2.0021,-2.0304,-2.0606,-2.054,-2.0147,-1.9628,-1.9031,-1.8307,-1.7486,-1.6335,-1.481,0.0,0.0,-1.3474,-1.4277,-1.5095,-1.5918,-1.7054,-1.7368,-1.6723,-1.6239,-1.5635,-1.4899,-1.4934,-1.4802,-1.4466,-1.4162,-1.3399,-1.208,-1.1055,-1.0018,0.0,0.0,0.0,0.0,0.0,0.0,0.0,0.0,0.0,0.0,0.0,-0.4535,-0.4269,0.0,0.0,0.0,-0.7464,-0.9831,-1.0622,-1.0686,0.0,0.0,0.0,0.0,0.0,0.0,0.0,-1.6204,-1.62,-1.7178,-1.9685,-2.0228,-2.0472,-2.0735,-2.0355,-2.0065,-2.0047,0.0,-2.3855,-2.3968,-2.4247,-2.4128,-2.3232,-2.248,-2.2343,-2.331,-2.3354,-2.3101,-2.2217,-2.1029,-2.0146,-2.0117,-2.014,-2.0184,-2.0277,-2.0347,-2.042,-2.0489,-2.0498,-2.0303,-1.9797,-1.959,-1.9694,-2.1224,-2.0503,-1.9416,-1.8943,-1.8929,-1.8929,-1.9024,-1.9155,-1.9652,-1.9603,-1.9119,-1.9146,-1.8566,-1.7519,-1.6523,0.0,0.0,-1.732,-1.7859,-1.8597,-1.9907,-2.0572,-2.0748,-2.1124,-2.1291,-2.1207,-2.0055,-1.9474,-1.9349,-1.8331,-1.7791,-1.7684,-1.5974,-1.5326,-1.5761,-1.5831,-1.6421,-1.7562,-1.7646,-1.7351,-1.6712,-1.5455,-1.4794,-1.4794,-1.4871,-1.4756,-1.4383,-1.372,-1.3097,-1.2504,-1.1244,-1.0717,-1.0996,0.0,0.0,0.0,0.0,0.0,0.0,0.0,0.0,0.0,0.0,0.0,0.0,0.0,0.0,0.0,-0.8802,0.0,-1.2041,-1.115,0.0,0.0,0.0,-1.2839,-1.1689,-1.4382,-1.71,-1.9216,0.0,0.0,-2.1278,0.0,-2.2238,-2.1749,-2.1685,-2.1685,-2.1695,-2.2872,-2.3837,-2.3966,-2.4103,-2.4284,-2.4364,-2.4557,-2.4719,-2.4795,-2.4131,-2.3847,-2.446,-2.2667,-2.0718,-2.0112,-2.0079,-2.0131,-2.0241,-2.0334,-2.0415,-2.0482,-2.0516,-2.0498,-2.0441,-2.0408,-2.0416,-2.2895,-2.2371,-2.2075,-2.1224,-2.0056,-2.0141,-2.0197,-2.0237,-2.0374,-2.035,-2.0225,-2.0197,-1.9853,-1.9179,-1.853,-1.8148,-1.8055,-1.8621,-1.8971,-1.9101,-2.0103,-2.0684,-2.0941,-2.1244,-2.1141,-2.0689,-2.0393,-2.0055,-1.9677,-1.9024,-1.8746,-1.8758,-1.8005,-1.7225,-1.6494,-1.6916,-1.7295,-1.7604,-1.8035,-1.7796,-1.6785,-1.5489,-1.4824,-1.4886,-1.4886,-1.4696,-1.427,-1.4082,-1.3491,-1.248,-1.2074,-1.1651,-1.1192,-0.9823,0.0,0.0,0.0,0.0,0.0,0.0,0.0,0.0,0.0,-0.6616,-0.5943,0.0,-0.9602,0.0,-1.2889,-1.4088,-1.3686,-1.3547,0.0,0.0,-1.3587,-1.3091,-1.2962,-1.5897,-1.9137,-2.2325,-2.1314,-2.1079,-2.3017,-2.3361,-2.3397,-2.327,-2.3252,-2.3252,-2.327,-2.3524,-2.3816,-2.3858,-2.4036,-2.4247,-2.4384,-2.4734,-2.4984,-2.4984,-2.4738,-2.47,-2.4946,-2.4416,-2.305,-2.0676,-2.0031,-2.0072,-2.015,-2.0239,-2.0369,-2.0473,-2.0517,-2.0498,-2.0498,-2.0509,-2.0514,-2.3625,-2.336,-2.336,-2.2779,-2.1889,-2.1482,-2.132,-2.132,-2.1296,-2.1163,-2.0947,-2.0677,-2.0442,-2.0141,-1.9841,-1.9579,-1.9404,-1.9767,-1.9797,-1.9593,-2.0296,-2.0579,-2.0573,-2.0883,-2.0871,-2.0527,-2.0273,-2.0027,-1.9817,-1.913,-1.8892,-1.9031,-1.8659,-1.8161,-1.7529,-1.7843,-1.8012,-1.8012,-1.8068,-1.7683,-1.6764,-1.5738,-1.5105,-1.4869,-1.4855,-1.4621,-1.417,-1.3841,-1.3313,-1.2569,-1.2068,-1.163,-1.1255,-1.0412,-0.9971,0.0,0.0,0.0,0.0,0.0,0.0,0.0,0.0,0.0,0.0,0.0,-1.2121,0.0,-1.5477,-1.6111,-1.5702,-1.5199,-1.5309,-1.6387,-1.5719,-1.5201,-1.5228,-1.699,-1.9549,-2.3059,-2.2929,-2.2835,-2.3687,-2.3795,-2.3795,-2.3795,-2.3795,-2.3795,-2.3795,-2.3795,-2.3795,-2.3824,-2.3927,-2.4173,-2.452,-2.4817,-2.4984,-2.4984,-2.4984,-2.4984,-2.4984,-2.4984,-2.4359,-2.2609,-2.1623,-2.0863,-2.0249,-2.0112,-2.0208,-2.0357,-2.0454,-2.0505,-2.0516,-2.0509,-2.0515,-2.3974,-2.389,-2.3902,-2.3854,-2.3734,-2.2787,-2.2354,-2.2294,-2.2221,-2.1933,-2.1476,-2.1019,-2.0827,-2.0815,-2.0786,-2.075,-2.0718,-2.0694,-2.0479,-2.0107,-2.0407,-2.0363,-2.0079,-2.0359,-2.0485,-2.0459,-1.9953,-1.9792,-1.9898,-1.9119,-1.8785,-1.8847,-1.8643,-1.8489,-1.8425,-1.8445,-1.8478,-1.8484,-1.7913,-1.7295,-1.6708,-1.6045,-1.541,-1.4835,-1.4793,-1.4575,-1.4098,-1.3459,-1.3023,-1.2741,-1.1929,-1.144,-1.1404,-1.0915,-1.068,0.0,-1.0299,0.0,0.0,0.0,0.0,0.0,0.0,0.0,0.0,-1.2302,-1.4245,-1.605,-1.7171,-1.7768,-1.7751,-1.6669,-1.6785,-1.8805,-1.867,-1.834,-1.8274,-1.8345,-1.9547,-2.2643,-2.3411,-2.3721,-2.3774,-2.3785,-2.3792,-2.3803,-2.3795,-2.3795,-2.3795,-2.3795,-2.3795,-2.3795,-2.3795,-2.4088,-2.4768,-2.4971,-2.4984,-2.4984,-2.4984,-2.4984,-2.4984,-2.4984,-2.4946,-2.4776,-2.3714,-2.2387,-2.0878,-2.0554,-2.0341,-2.0369,-2.0424,-2.0484,-2.051,-2.0506,-2.0516,-2.4759,-2.4352,-2.4374,-2.4145,-2.3782,-2.3589,-2.322,-2.2799,-2.2409,-2.2125,-2.2041,-2.1945,-2.1897,-2.1897,-2.1897,-2.1668,-2.126,-2.1247,-2.1017,-2.0657,-2.0373,-2.0293,-2.0318,-2.0064,-1.9952,-1.9952,-1.9838,-1.9915,-2.0129,-1.9701,-1.9361,-1.9133,-1.8803,-1.846,-1.8129,0.0,0.0,0.0,-1.7913,-1.7295,-1.6708,-1.6028,-1.541,-1.4836,-1.4793,0.0,-1.3953,-1.3798,-1.3516,-1.3062,-1.2849,0.0,0.0,0.0,0.0,0.0,0.0,0.0,0.0,0.0,0.0,0.0,-1.3335,-1.3207,-1.2528,-1.4967,-1.68,-1.7205,-1.8422,-1.92,-1.92,-1.9376,-1.9648,-2.0134,-2.0925,-2.1669,-2.2253,-2.179,-2.179,-2.2327,-2.2914,-2.3348,-2.3649,-2.3714,-2.3754,-2.3797,-2.3792,-2.3795,-2.3795,-2.3795,-2.3795,-2.3795,-2.3795,-2.4098,-2.4875,-2.4977,-2.4977,-2.4984,-2.4984,-2.4984,-2.4984,-2.4984,-2.4984,-2.4984,-2.4745,-2.4416,-2.4017,-2.2987,-2.1698,-2.0607,-2.0413,-2.0425,-2.0486,-2.051,-2.051,-2.512,0.0,-2.4915,-2.4771,0.0,-2.4254,-2.3989,-2.3701,-2.3195,-2.2823,-2.2602,-2.2306,-2.2197,-2.2197,-2.2197,-2.2041,-2.1789,-2.1801,-2.153,-2.11,-2.0879,-2.0523,-2.0086,-1.9897,-1.9654,-1.9434,-1.9434,-1.9512,-1.9682,-1.942,-1.9245,-1.9139,-1.8877,-1.8662,-1.8511,-1.8487,-1.8499,-1.8498,-1.8189,-1.774,-1.714,-1.6522,-1.589,-1.5256,0.0,0.0,0.0,0.0,0.0,0.0,0.0,0.0,0.0,0.0,0.0,-1.2567,-1.2273,-1.2252,-1.2633,-1.3142,-1.369,-1.4252,-1.5567,-1.6018,-1.5125,-1.5896,-1.7006,-1.8435,-1.9829,-2.0539,-2.0177,-2.0287,-2.0583,-2.1104,-2.1835,-2.2528,-2.2927,-2.2494,-2.2063,-2.2106,-2.2514,-2.2963,-2.3271,-2.3504,-2.3634,-2.3732,-2.3771,-2.3813,-2.3795,-2.3795,-2.3795,-2.3795,-2.3795,-2.4009,-2.4528,-2.4805,-2.4896,-2.4903,-2.4924,-2.4964,-2.4984,-2.4984,-2.4984,-2.4984,-2.4984,-2.4984,-2.4946,-2.4283,-2.3282,-2.1859,-2.0913,-2.0451,-2.0448,-2.047,-2.0506,-2.5312,-2.5312,-2.5312,-2.5312,-2.5276,-2.4808,-2.465,-2.4592,0.0,0.0,0.0,-2.2554,-2.227,-2.2209,-2.2282,-2.2282,-2.2209,-2.2294,-2.2041,-2.1536,-2.144,-2.0923,-2.0081,-1.9892,-1.9552,-1.917,-1.9035,-1.9078,-1.9184,-1.9042,-1.9008,-1.9018,-1.8902,-1.8825,-1.8818,-1.8765,-1.8618,-1.8422,-1.8459,-1.8222,-1.7604,-1.7112,-1.6536,-1.5887,-1.527,-1.4739,-1.4276,-1.4121,-1.3979,-1.385,-1.3615,-1.3628,-1.3913,-1.368,-1.3639,-1.3877,-1.385,-1.3938,-1.421,-1.4483,-1.5004,-1.5842,-1.751,-1.8224,-1.7564,-1.6617,-1.7088,-1.9598,-2.1002,-2.1547,-2.095,-2.0752,-2.0965,-2.1744,-2.2049,-2.229,-2.2508,-2.213,-2.1811,-2.184,-2.2265,-2.2652,-2.2845,-2.3212,-2.3497,-2.3696,-2.393,-2.3911,-2.3831,-2.3795,-2.3795,-2.3795,-2.3795,-2.3919,-2.4238,-2.4512,-2.4712,-2.4764,-2.4834,-2.4929,-2.4971,-2.4984,-2.4984,-2.4984,-2.4984,-2.4984,-2.4984,-2.4908,-2.4398,-2.287,-2.1389,-2.0376,-2.0392,-2.0424,-2.0458,-2.5312,-2.5312,-2.5312,-2.5312,-2.53,-2.5228,-2.5204,-2.5119,-2.4215,-2.3517,-2.3011,-2.2907,-2.265,-2.2221,-2.2698,-2.2618,-2.2265,-2.2666,-2.2582,0.0,-2.162,-2.1332,-2.1127,-2.0254,-1.9772,-1.9664,-1.9242,-1.9052,-1.9196,-1.9294,-1.9166,-1.8884,-1.892,-1.8692,-1.82,-1.8354,-1.8298,-1.7996,-1.8307,-1.8222,-1.7618,-1.752,-1.7201,-1.6582,-1.5915,-1.56,-1.5608,-1.4994,-1.4715,-1.4809,-1.4707,-1.451,-1.417,-1.4112,-1.4371,-1.4994,-1.5052,-1.5531,-1.6595,-1.6954,-1.7409,-1.8179,-1.8924,-1.9042,-1.8334,-1.8715,-1.9432,-2.0486,-2.1332,-2.1763,-2.1647,-2.1597,-2.1628,-2.1836,-2.1869,-2.1928,-2.2099,-2.1943,-2.1781,-2.1796,-2.2161,-2.2494,-2.2699,-2.3005,-2.3372,-2.3735,-2.4396,-2.4621,-2.4111,-2.3795,-2.3795,-2.3795,-2.3795,-2.3901,-2.4246,-2.4284,-2.4461,-2.4673,-2.4772,-2.4858,-2.4971,-2.4984,-2.4984,-2.4984,-2.4984,-2.4984,-2.4984,-2.4984,-2.4202,-2.2536,-2.121,-2.0441,-2.0477,-2.0462,-2.0372,-2.5218,-2.5218,-2.5276,-2.5312,-2.5312,-2.5241,-2.5253,-2.524,-2.4761,-2.4246,-2.3809,-2.3532,-2.3312,-2.3075,-2.3336,-2.3156,-2.263,-2.2903,-2.2722,-2.2228,-2.1957,-2.168,-2.1344,-2.0598,-2.0081,-1.9784,-1.9239,-1.9025,-1.9078,-1.9158,-1.9089,-1.8909,-1.9038,-1.8759,-1.8119,-1.8248,-1.8074,-1.7549,-1.7996,-1.8129,-1.7937,-1.7603,-1.7297,-1.7019,-1.6069,-1.5555,-1.5619,-1.5067,-1.4779,-1.4889,-1.492,-1.4854,-1.4657,-1.4731,-1.5094,-1.5747,-1.6342,-1.682,-1.7168,-1.7617,-1.8098,-1.868,-1.9499,-1.9881,-1.9632,-1.959,-2.0078,-2.1166,-2.1613,-2.1781,-2.1781,-2.1781,-2.1827,-2.1857,-2.1811,-2.1825,-2.1884,-2.1855,-2.1781,-2.1796,-2.2003,-2.22,-2.2402,-2.2777,-2.3409,-2.4195,-2.5092,-2.5464,-2.519,-2.5842,-2.6391,-2.6265,-2.4972,-2.4288,-2.4736,-2.4436,-2.4321,-2.4493,-2.461,-2.4764,-2.4943,-2.4984,-2.4984,-2.4984,-2.4984,-2.4984,-2.4984,-2.4984,-2.4322,-2.3326,-2.213,-2.1578,-2.1534,-2.1005,-2.0389,-2.504,-2.5111,-2.5206,-2.5241,-2.5253,-2.5147,-2.5147,-2.5182,-2.5111,-2.492,-2.4606,-2.4157,-2.3914,-2.3818,-2.3914,-2.3592,-2.3083,-2.3144,-2.2843,-2.2234,-2.2197,-2.1969,-2.1506,-2.0935,-2.0382,-1.9941,-1.9312,-1.9013,-1.9013,-1.9013,-1.9013,-1.9013,-1.9143,-1.8877,-1.8236,-1.8216,-1.7905,-1.7277,-1.7583,-1.7861,-1.8095,-1.7636,-1.7389,-1.7339,-1.6322,-1.5665,-1.5548,-1.5208,-1.5047,-1.508,-1.529,-1.5426,-1.5458,-1.5626,-1.5978,-1.6648,-1.7444,-1.7853,-1.7751,-1.8182,-1.8653,-1.9076,-1.9995,-2.0618,-2.073,-2.0369,-2.0525,-2.1582,-2.1781,-2.1781,-2.1781,-2.1781,-2.1781,-2.1781,-2.1781,-2.1797,-2.1781,-2.1781,-2.1781,-2.1812,-2.1855,-2.194,-2.2172,-2.2695,-2.3706,-2.5134,-2.5919,-2.6351,-2.6778,-2.7876,-2.8527,-2.8147,-2.6439,-2.5125,-2.5477,-2.4613,-2.415,-2.4293,-2.4417,-2.4613,-2.4824,-2.4922,-2.4929,-2.4929,-2.4983,-2.5003,-2.4984,-2.4984,-2.4599,-2.372,-2.3202,-2.2985,-2.2561,-2.1829,-2.0801,-2.4921,-2.5087,-2.5111,-2.5123,-2.5111,-2.5087,-2.4992,-2.4885,-2.5016,-2.5099,-2.4956,-2.4618,-2.4206,-2.3914,-2.4266,-2.3929,-2.3087,-2.3517,-2.318,-2.2258,-2.2197,-2.2161,-2.2017,-2.1079,-2.0569,-2.0394,-1.948,-1.9013,-1.9013,-1.9013,-1.9013,-1.9013,-1.9143,-1.897,-1.8535,-1.8213,-1.7772,-1.7297,-1.7098,-1.7282,-1.7787,-1.7727,-1.77,-1.7746,-1.7045,-1.6456,-1.6041,-1.6058,-1.5993,-1.5933,-1.6343,-1.671,-1.6862,-1.691,-1.7248,-1.7908,-1.8114,-1.8444,-1.9111,-1.948,-1.9771,-2.0241,-2.0671,-2.1068,-2.1287,-2.148,-2.1613,-2.1781,-2.1781,-2.1781,-2.1781,-2.1781,-2.1781,-2.1781,-2.1781,-2.1781,-2.1781,-2.1781,-2.1781,-2.1781,-2.191,-2.1827,-2.1963,-2.3005,-2.449,-2.6229,-2.6629,-2.7076,-2.7916,-2.8308,-2.8562,-2.8574,-2.8117,-2.7097,-2.5647,-2.4378,-2.3982,-2.4088,-2.4183,-2.4383,-2.4613,-2.4707,-2.4742,-2.4692,-2.4908,-2.4996,-2.4971,-2.4965,-2.4617,-2.4023,-2.3954,-2.4284,-2.3146,-2.2705,-2.2214,-2.4682,-2.4778,-2.4849,-2.4921,-2.4921,-2.4814,-2.4778,-2.4825,-2.4897,-2.4992,-2.5099,-2.4908,-2.4763,-2.4699,-2.4903,-2.4422,-2.3529,-2.3697,-2.3228,-2.2246,-2.2197,-2.2197,-2.2089,-2.1115,-2.0581,-2.0497,-1.9504,-1.9013,-1.9013,-1.9013,-1.9013,-1.9013,-1.9064,-1.8839,-1.8357,-1.7873,-1.7409,-1.6883,-1.6556,-1.6573,-1.7005,-1.7276,-1.7413,-1.7381,-1.6817,-1.6433,-1.6275,-1.6167,-1.617,-1.6349,-1.6681,-1.6913,-1.7098,-1.7363,-1.7713,-1.8187,-1.855,-1.8914,-1.9306,-1.9512,-1.9782,-2.0133,-2.0548,-2.0894,-2.1103,-2.1525,-2.1736,-2.1601,-2.1691,-2.1781,-2.1781,-2.1781,-2.1781,-2.1781,-2.1781,-2.1814,-2.1781,-2.1781,-2.2077,-2.2841,-2.2327,-2.1831,-2.2171,-2.4054,-2.5777,-2.675,-2.7117,-2.7839,-2.8409,-2.8424,-2.8353,-2.8371,-2.8371,-2.7489,-2.56,-2.4342,-2.3911,-2.3899,-2.4018,-2.4182,-2.433,-2.4393,-2.4411,-2.4401,-2.4734,-2.4908,-2.4832,-2.4868,-2.4681,-2.4289,-2.4327,-2.4645,-2.4138,-2.4164,-2.3888,-2.4465,-2.4538,-2.4718,-2.4754,-2.4729,-2.4574,-2.4574,-2.4634,-2.4754,-2.4861,-2.4945,-2.5052,-2.5123,-2.5182,-2.5135,-2.4692,-2.397,-2.3766,-2.3247,-2.245,-2.2258,-2.2197,-2.2101,-2.1272,-2.0798,-2.0658,-1.9732,-1.917,-1.9049,-1.9013,-1.9013,-1.9013,-1.9013,-1.8821,-1.8386,-1.7772,-1.7195,-1.6799,-1.6286,-1.6132,-1.6436,-1.6757,-1.6947,-1.6972,-1.6569,-1.6305,-1.6251,-1.6307,-1.649,-1.6812,-1.7181,-1.7473,-1.7667,-1.7974,-1.8256,-1.843,-1.8854,-1.9139,-1.9232,-1.9328,-1.9512,-1.9827,-2.0206,-2.0497,-2.0763,-2.137,-2.1586,-2.1309,-2.1525,-2.1738,-2.1783,-2.1783,-2.1781,-2.1831,-2.2361,-2.2774,-2.1945,-2.1781,-2.2193,-2.3123,-2.3222,-2.2857,-2.3051,-2.5037,-2.6842,-2.6889,-2.7522,-2.8168,-2.8291,-2.8264,-2.8154,-2.8,-2.8014,-2.7433,-2.5955,-2.4493,-2.388,-2.3739,-2.3834,-2.3945,-2.4064,-2.4084,-2.417,-2.4284,-2.4629,-2.4764,-2.4639,-2.4645,-2.4805,-2.4795,-2.4753,-2.4776,-2.4714,-2.4981,-2.5138,-2.4345,-2.4502,-2.4718,-2.4729,-2.4538,-2.4513,-2.4393,-2.4321,-2.461,-2.4706,-2.4646,-2.4909,-2.4981,-2.4814,-2.4825,-2.4625,-2.4242,-2.3742,-2.3317,-2.2883,-2.2414,-2.2197,-2.2161,-2.1632,-2.1356,-2.1223,-2.029,-1.9531,-1.9086,-1.9025,-1.9013,-1.9013,-1.9013,-1.9001,-1.8782,-1.7941,-1.7412,-1.7231,-1.6492,-1.6078,-1.62,-1.6244,-1.6362,-1.6488,-1.642,-1.622,-1.6016,-1.6682,-1.721,-1.7367,-1.8097,-1.8684,-1.8929,-1.8981,-1.8999,-1.9043,-1.9087,-1.9116,-1.912,-1.9139,-1.9213,-1.945,-1.9806,-2.0054,-2.0206,-2.1119,-2.145,-2.0925,-2.1423,-2.1736,-2.1812,-2.1953,-2.1913,-2.2061,-2.4249,-2.4299,-2.216,-2.2178,-2.1831,-2.2543,-2.4299,-2.506,-2.4647,-2.5882,-2.6805,-2.7108,-2.758,-2.7971,-2.8154,-2.8196,-2.7971,-2.7604,-2.7517,-2.7505,-2.6754,-2.5374,-2.4092,-2.3856,-2.4107,-2.3837,-2.38,-2.3837,-2.4004,-2.4123,-2.433,-2.4419,-2.4375,-2.4471,-2.4707,-2.4738,-2.4637,-2.466,-2.473,-2.4901,-2.5044,-2.4409,-2.4805,-2.5226,-2.5131,-2.4782,-2.477,-2.4561,-2.4248,-2.4502,-2.4574,-2.4538,-2.467,-2.467,-2.4598,-2.4454,-2.4318,-2.4094,-2.3665,-2.3242,-2.2794,-2.2363,-2.2197,-2.2137,-2.1644,-2.1404,-2.1284,-2.0675,-2.0037,-1.9531,-1.9167,-1.9013,-1.9013,-1.9013,-1.9013,-1.8867,-1.8289,-1.776,-1.7351,-1.6701,-1.6241,-1.5983,-1.5947,-1.5969,-1.6057,-1.6197,-1.6275,-1.6254,-1.6865,-1.7423,-1.7877,-1.8424,-1.8812,-1.9064,-1.9116,-1.9116,-1.9116,-1.9116,-1.9116,-1.9116,-1.9116,-1.912,-1.9228,-1.9584,-1.9833,-1.9962,-2.0629,-2.115,-2.1294,-2.1971,-2.2469,-2.2687,-2.2751,-2.2691,-2.2742,-2.3818,-2.4497,-2.3735,-2.4,-2.4613,-2.4779,-2.5672,-2.5954,-2.5858,-2.6199,-2.6624,-2.6875,-2.7151,-2.7524,-2.7954,-2.814,-2.794,-2.7308,-2.7085,-2.7199,-2.7672,-2.6467,-2.5364,-2.492,-2.4742,-2.4353,-2.4195,-2.4021,-2.4101,-2.3953,-2.4077,-2.4066,-2.4034,-2.4459,-2.4679,-2.4821,-2.4693,-2.4711,-2.451,-2.4733,-2.4885,-2.4866,-2.5199,-2.5555,-2.5394,-2.4935,-2.4912,-2.4636,-2.4259,-2.4429,-2.4454,-2.4418,-2.4526,-2.4526,-2.4418,-2.4334,-2.422,-2.405,-2.372,-2.3325,-2.2849,-2.2456,-2.2229,-2.2056,-2.1721,-2.1596,-2.1584,-2.1103,-2.0519,-1.9844,-1.9447,-1.9167,-1.8999,-1.9013,-1.9013,-1.8929,-1.847,-1.8001,-1.7616,-1.6967,-1.6415,-1.609,-1.5876,-1.5814,-1.5836,-1.5969,-1.6166,-1.6392,-1.6863,-1.7385,-1.8009,-1.8439,-1.8788,-1.9045,-1.9116,-1.9116,-1.9116,-1.9116,-1.9116,-1.9116,-1.9116,-1.9213,-1.9478,-1.949,-1.9612,-2.0065,-2.094,-2.1415,-2.1691,-2.2423,-2.3129,-2.32,-2.3486,-2.3605,-2.3407,-2.4017,-2.438,-2.415,-2.5292,-2.597,-2.602,-2.607,-2.6169,-2.6187,-2.6277,-2.6435,-2.659,-2.6791,-2.7165,-2.7569,-2.7925,-2.7836,-2.7086,-2.6708,-2.6923,-2.7352,-2.6929,-2.6734,-2.6409,-2.5527,-2.5045,-2.4807,-2.4552,-2.4288,-2.3988,-2.3822,-2.3729,-2.3926,-2.4403,-2.4725,-2.4977,-2.5097,-2.519,-2.4912,-2.4607,-2.4718,-2.5693,-2.5716,-2.5739,-2.552,-2.5084,-2.5015,-2.4671,-2.434,-2.4429,-2.4381,-2.4309,-2.461,-2.4538,-2.4298,-2.4381,-2.4358,-2.4159,-2.3862,-2.356,-2.3191,-2.2639,-2.2209,-2.1977,-2.1901,-2.1947,-2.2089,-2.162,-2.0851,-1.9989,-1.9808,-1.948,-1.9134,-1.8999,-1.9013,-1.9013,-1.853,-1.8229,-1.7965,-1.7231,-1.6691,-1.6547,-1.6151,-1.5898,-1.584,-1.5838,-1.5947,-1.6222,-1.6663,-1.7178,-1.7781,-1.8234,-1.8692,-1.9007,-1.9064,-1.9082,-1.9097,-1.9116,-1.9116,-1.9116,-1.9159,-1.958,-2.0088,-1.9657,-1.9817,-2.0814,-2.1973,-2.2394,-2.1929,-2.2671,-2.3324,-2.3235,-2.4007,-2.4422,-2.3981,-2.4815,-2.5146,-2.4711,-2.5325,-2.6185,-2.6185,-2.6185,-2.6185,-2.6205,-2.6258,-2.633,-2.6435,-2.6607,-2.6825,-2.7054,-2.7509,-2.7524,-2.6923,-2.6504,-2.6572,-2.7038,-2.7476,-2.7754,-2.7796,-2.6712,-2.5948,-2.5933,-2.5745,-2.5584,-2.5332,-2.5135,-2.5046,-2.5022,-2.5443,-2.5695,-2.5896,-2.585,-2.5764,-2.5476,-2.5163,-2.4605,-2.6272,-2.6278,-2.6622,-2.6462,-2.5957,-2.5612,-2.5164,-2.4671,-2.4434,-2.4273,-2.4236,-2.4309,-2.4309,-2.4236,-2.4273,-2.4261,-2.4177,-2.4077,-2.3873,-2.3478,-2.2751,-2.2368,-2.2221,-2.1997,-2.1999,-2.2082,-2.1668,-2.1247,-2.0815,-2.0153,-1.9712,-1.9531,-1.9194,-1.9025,-1.9013,-1.8831,-1.8602,-1.8193,-1.7881,-1.7544,-1.7147,-1.6631,-1.6367,-1.6319,-1.5984,-1.5937,-1.62,-1.6565,-1.7039,-1.7604,-1.7942,-1.8372,-1.875,-1.8855,-1.8946,-1.9036,-1.9078,-1.9116,-1.9174,-1.9551,-2.0074,-2.0611,-2.0538,-2.0582,-2.1046,-2.2171,-2.2651,-2.2346,-2.33,-2.398,-2.4171,-2.4668,-2.4839,-2.4343,-2.5194,-2.5786,-2.5486,-2.5853,-2.6136,-2.6185,-2.6185,-2.6185,-2.6185,-2.6221,-2.624,-2.6276,-2.6383,-2.6538,-2.6708,-2.7056,-2.7136,-2.664,-2.6398,-2.6257,-2.6657,-2.6989,-2.7261,-2.7615,-2.7105,-2.6788,-2.6832,-2.6861,-2.6739,-2.6506,-2.6325,-2.6313,-2.6297,-2.6319,-2.6501,-2.6771,-2.6808,-2.6543,-2.6188,-2.5839,-2.5491,-2.6749,-2.6783,-2.7052,-2.6932,-2.649,-2.6117,-2.5693,-2.5187,-2.4682,-2.4464,-2.4441,-2.4342,-2.4273,-2.4225,-2.4273,-2.4273,-2.4189,-2.4273,-2.4172,-2.3897,-2.3177,-2.2684,-2.2406,-2.2143,-2.2061,-2.2106,-2.1861,-2.1584,-2.1368,-2.073,-2.0205,-1.9808,-1.9471,-1.9179,-1.9049,-1.9013,-1.8794,-1.8506,-1.8289,-1.8037,-1.7651,-1.7171,-1.6895,-1.6847,-1.6583,-1.6564,-1.679,-1.7048,-1.7332,-1.7718,-1.8219,-1.8721,-1.9125,-1.9293,-1.9438,-1.9611,-1.9705,-1.9638,-1.929,-1.9948,-2.0828,-2.1452,-2.1278,-2.1278,-2.1678,-2.2577,-2.2761,-2.2906,-2.3468,-2.4135,-2.4369,-2.4835,-2.5016,-2.4955,-2.5413,-2.5826,-2.595,-2.5968,-2.6059,-2.6097,-2.6114,-2.6078,-2.6078,-2.6115,-2.615,-2.6185,-2.6293,-2.6346,-2.6468,-2.664,-2.6571,-2.6468,-2.631,-2.6257,-2.6328,-2.652,-2.6691,-2.7021,-2.7247,-2.7393,-2.7577,-2.766,-2.7625,-2.7173,-2.6906,-2.7263,-2.7286,-2.6996,-2.7007,-2.7317,-2.7404,-2.7353,-2.7056,-2.7155,-2.691,-2.7179,-2.719,-2.719,-2.6967,-2.6605,-2.649,-2.6203,-2.5704,-2.5119,-2.4866,-2.4823,-2.453,-2.4357,-2.4273,-2.4345,-2.4334,-2.4261,-2.4345,-2.4442,-2.4255,-2.3768,-2.3166,-2.2486,-2.2333,-2.2231,-2.2185,-2.2149,-2.1909,-2.1548,-2.132,-2.0887,-2.0069,-1.9941,-1.9564,-1.9242,-1.9086,-1.9047,-1.8867,-1.8506,-1.8277,-1.8217,-1.7736,-1.746,-1.7435,-1.7352,-1.7376,-1.7614,-1.7866,-1.8019,-1.8156,-1.8875,-1.9376,-1.9798,-2.0128,-2.0246,-2.0491,-2.0835,-2.0373,-1.9798,-2.0436,-2.154,-2.2475,-2.1866,-2.1547,-2.2569,-2.2772,-2.2941,-2.3047,-2.3406,-2.3717,-2.4051,-2.4513,-2.4985,-2.5451,-2.5551,-2.5654,-2.5616,-2.5635,-2.5784,-2.6005,-2.595,-2.5821,-2.5897,-2.5954,-2.6115,-2.624,-2.6381,-2.6415,-2.6345,-2.6433,-2.6397,-2.6309,-2.6238,-2.6221,-2.6274,-2.6293,-2.6452,-2.6606,-2.694,-2.7308,-2.7719,-2.7882,-2.7733,-2.7369,-2.7289,-2.7763,-2.7978,-2.7538,-2.7119,-2.7009,-2.7274,-2.7757,-2.7893,-2.7777,-2.7779,-2.719,-2.719,-2.719,-2.7151,-2.6967,-2.6674,-2.6444,-2.6152,-2.5302,-2.4958,-2.4809,-2.448,-2.4273,-2.42,-2.4236,-2.4236,-2.4236,-2.4273,-2.4381,-2.4478,-2.4349,-2.3583,-2.2784,-2.2579,-2.242,-2.2202,-2.2154,-2.2113,-2.1957,-2.1548,-2.1218,-2.0983,-2.0481,-2.0089,-1.9688,-1.9552,-1.9387,-1.9035,-1.8905,-1.877,-1.8686,-1.8253,-1.8013,-1.7965,-1.7627,-1.7593,-1.7872,-1.8423,-1.865,-1.8526,-1.8819,-1.9211,-1.958,-1.9899,-2.0291,-2.0649,-2.0888,-2.109,-2.1119,-2.1438,-2.2098,-2.2757,-2.2533,-2.254,-2.2815,-2.2902,-2.297,-2.3105,-2.329,-2.3561,-2.387,-2.425,-2.4681,-2.5103,-2.5368,-2.5559,-2.5597,-2.5597,-2.5654,-2.5747,-2.5768,-2.5766,-2.5766,-2.5934,-2.617,-2.6365,-2.6486,-2.6571,-2.6468,-2.6362,-2.6379,-2.6308,-2.6236,-2.622,-2.6203,-2.6203,-2.6239,-2.6292,-2.652,-2.6776,-2.7169,-2.7452,-2.7087,-2.664,-2.6858,-2.7244,-2.763,-2.7613,-2.726,-2.6826,-2.7198,-2.7657,-2.7792,-2.7795,-2.7954,-2.719,-2.719,-2.719,-2.719,-2.7156,-2.6909,-2.6783,-2.6588,-2.5704,-2.5256,-2.5096,-2.4499,-2.42,-2.4189,-2.4189,-2.4189,-2.4189,-2.4309,-2.4381,-2.4526,-2.4647,-2.4071,-2.3223,-2.2852,-2.2436,-2.2004,-2.1882,-2.1831,-2.1721,-2.145,-2.1237,-2.0924,-2.0724,-2.0357,-1.9932,-1.9742,-1.9593,-1.9324,-1.9158,-1.9013,-1.8989,-1.8698,-1.8566,-1.8494,-1.8217,-1.8199,-1.8523,-1.9046,-1.9157,-1.8886,-1.9057,-1.9439,-1.9803,-2.0282,-2.0716,-2.1169,-2.1578,-2.196,-2.2149,-2.2316,-2.2519,-2.2801,-2.2888,-2.3047,-2.3273,-2.3389,-2.3522,-2.383,-2.3917,-2.4092,-2.426,-2.4475,-2.4698,-2.5025,-2.508,-2.5233,-2.554,-2.5597,-2.5597,-2.5616,-2.5654,-2.5691,-2.5616,-2.5912,-2.6152,-2.6349,-2.6452,-2.6589,-2.6657,-2.652,-2.6695,-2.6952,-2.67,-2.6584,-2.6468,-2.6402,-2.6816,-2.6818,-2.6777,-2.6904,-2.6809,-2.7122,-2.6859,-2.6589,-2.6606,-2.6725,-2.7101,-2.7369,-2.7198,-2.7039,-2.7307,-2.7415,-2.7554,-2.781,-2.7996,-2.7067,-2.7108,-2.7097,-2.7149,-2.7149,-2.7179,-2.7133,-2.6955,-2.608,-2.5622,-2.5371,-2.4608,-2.4182,-2.4164,-2.4055,-2.4091,-2.408,-2.4152,-2.4309,-2.4454,-2.4636,-2.4307,-2.3423,-2.2991,-2.2359,-2.1714,-2.1431,-2.1242,-2.1103,-2.1017,-2.0811,-2.0568,-2.0554,-2.0435,-2.017,-1.9839,-1.9793,-1.9817,-1.9555,-1.9314,-1.923,-1.9095,-1.9023,-1.8879,-1.8919,-1.8988,-1.9221,-1.9516,-1.9484,-1.8871,-1.9458,-1.9889,-2.0329,-2.0962,-2.1506,-2.196,-2.2355,-2.2698,-2.2844,-2.2801,-2.2844,-2.2888,-2.296,-2.3229,-2.3717,-2.3949,-2.421,-2.4588,-2.4878,-2.4898,-2.4895,-2.4949,-2.5025,-2.5085,-2.4731,-2.4661,-2.522,-2.554,-2.5597,-2.5629,-2.5646,-2.571,-2.5848,-2.598,-2.627,-2.7045,-2.7021,-2.6944,-2.6962,-2.6859,-2.7528,-2.8508,-2.7926,-2.7065,-2.6866,-2.6634,-2.723,-2.7597,-2.7509,-2.7406,-2.6843,-2.6892,-2.6792,-2.6657,-2.6503,-2.6469,-2.664,-2.6792,-2.6842,-2.6941,-2.6989,-2.7135,-2.7293,-2.7674,-2.794,-2.626,-2.6404,-2.658,-2.6757,-2.6974,-2.7138,-2.7108,-2.6887,-2.6124,-2.5549,-2.5132,-2.4558,-2.4074,-2.3725,-2.3737,-2.3641,-2.3519,-2.3556,-2.3703,-2.4043,-2.4261,-2.4046,-2.3456,-2.3104,-2.2369,-2.1472,-2.0933,-2.0634,-2.042,-2.0323,-2.029,-2.0222,-2.0366,-2.0481,-2.027,-2.0344,-2.0511,-2.0433,-2.0249,-1.9921,-1.9633,-1.96,-1.9444,-1.917,-1.9165,-1.9194,-1.9275,-1.9486,-1.9619,-1.962,-1.976,-2.0054,-2.0282,-2.0756,-2.131,-2.1864,-2.237,-2.2721,-2.2803,-2.2857,-2.2902,-2.3012,-2.336,-2.3746,-2.3847,-2.4138,-2.4442,-2.4834,-2.5164,-2.5354,-2.5297,-2.5283,-2.5354,-2.5249,-2.4626,-2.407,-2.4395,-2.5167,-2.5631,-2.5831,-2.6173,-2.6633,-2.7102,-2.7248,-2.7482,-2.78,-2.7672,-2.7468,-2.7386,-2.7298,-2.8204,-2.9362,-2.9176,-2.8303,-2.7491,-2.7427,-2.7942,-2.8489,-2.8469,-2.7546,-2.6992,-2.6742,-2.6674,-2.6503,-2.6274,-2.6328,-2.6417,-2.6381,-2.6486,-2.6572,-2.6691,-2.6859,-2.7103,-2.7494,-2.7644,-2.5359,-2.56,-2.6008,-2.631,-2.6633,-2.7015,-2.7015,-2.6614,-2.581,-2.5293,-2.486,-2.4282,-2.3759,-2.3457,-2.3371,-2.3187,-2.2879,-2.2767,-2.2953,-2.3298,-2.3434,-2.324,-2.2874,-2.2564,-2.1901,-2.0974,-2.039,-1.9987,-1.9715,-1.9616,-1.9616,-1.966,-1.9977,-2.0126,-2.0167,-2.0372,-2.0372,-2.0416,-2.0305,-2.0103,-1.9975,-2.0,-2.0025,-1.972,-1.9649,-1.9585,-1.9612,-1.9894,-2.0117,-2.0298,-2.0476,-2.0471,-2.0373,-2.0622,-2.1055,-2.1578,-2.2114,-2.25,-2.2652,-2.2849,-2.3041,-2.3331,-2.3731,-2.4176,-2.4495,-2.4747,-2.5125,-2.5643,-2.5977,-2.6072,-2.5969,-2.6019,-2.6001,-2.5644,-2.5339,-2.497,-2.4852,-2.5576,-2.6479,-2.6703,-2.6957,-2.723,-2.7584,-2.7948,-2.8016,-2.8023,-2.8009,-2.7857,-2.8319,-2.8343,-2.8942,-2.9735,-2.9959,-2.951,-2.8471,-2.8282,-2.8751,-2.9264,-2.9599,-2.8146,-2.6795,-2.6652,-2.6606,-2.6398,-2.6203,-2.6203,-2.6258,-2.6203,-2.622,-2.6345,-2.6486,-2.664,-2.6909,-2.7348,-2.7329,-2.4456,-2.4712,-2.5326,-2.5799,-2.6102,-2.6715,-2.6674,-2.6171,-2.5385,-2.4861,-2.4575,-2.3881,-2.3513,-2.3163,-2.3005,-2.2687,-2.2252,-2.209,-2.2203,-2.2553,-2.2628,-2.2487,-2.2174,-2.1782,-2.1346,-2.0694,-1.9965,-1.9431,-1.9029,-1.8931,-1.8908,-1.8975,-1.9264,-1.9552,-1.9792,-1.9874,-1.999,-2.0253,-2.0182,-2.0074,-2.0164,-2.0293,-2.0432,-2.0377,-2.0238,-2.0088,-2.0119,-2.0379,-2.065,-2.0926,-2.1252,-2.1169,-2.09,-2.0718,-2.0762,-2.1269,-2.1722,-2.2161,-2.2497,-2.2827,-2.3262,-2.3853,-2.4181,-2.4583,-2.5236,-2.56,-2.5992,-2.6358,-2.6675,-2.6675,-2.6765,-2.6672,-2.6439,-2.6206,-2.6471,-2.6327,-2.5943,-2.6421,-2.7103,-2.7602,-2.7401,-2.7434,-2.7858,-2.8244,-2.8244,-2.8245,-2.8249,-2.8371,-2.8856,-2.9206,-2.9623,-2.9826,-2.9989,-3.0124,-2.9239,-2.8626,-2.9161,-2.974,-3.0286,-2.9132,-2.7476,-2.7854,-2.7883,-2.6509,-2.6185,-2.6185,-2.6185,-2.6185,-2.6203,-2.6221,-2.6659,-2.7171,-2.7317,-2.7296,-2.7095,-2.357,-2.4003,-2.4509,-2.4978,-2.5411,-2.5884,-2.5843,-2.5401,-2.4819,-2.4346,-2.3971,-2.3732,-2.3192,-2.2714,-2.2603,-2.2149,-2.1486,-2.13,-2.1492,-2.1845,-2.1921,-2.1824,-2.1703,-2.1284,-2.0827,-2.041,-1.9748,-1.9037,-1.8456,-1.8178,-1.8313,-1.8313,-1.8583,-1.8898,-1.9243,-1.9455,-1.9727,-2.006,-2.0191,-2.0282,-2.035,-2.0674,-2.0843,-2.0786,-2.0615,-2.0519,-2.0564,-2.0779,-2.0948,-2.1017,-2.1163,-2.1322,-2.1302,-2.119,-2.0965,-2.0936,-2.1354,-2.1921,-2.2281,-2.297,-2.3397,-2.3928,-2.4713,-2.5295,-2.5687,-2.6108,-2.6515,-2.6649,-2.6794,-2.6794,-2.6794,-2.6794,-2.6765,-2.6675,-2.6646,-2.6689,-2.6572,-2.6699,-2.6901,-2.7227,-2.733,-2.7587,-2.8027,-2.8464,-2.8686,-2.8876,-2.9041,-2.9111,-2.9407,-2.9608,-2.9794,-2.9875,-2.9924,-3.0055,-2.9943,-2.9403,-2.934,-2.9968,-3.0381,-3.0423,-2.943,-2.9777,-2.933,-2.7907,-2.6665,-2.6185,-2.6185,-2.6185,-2.6435,-2.6636,-2.7221,-2.7859,-2.7693,-2.7519,-2.7231,-2.2574,-2.2969,-2.3551,-2.3973,-2.437,-2.4935,-2.4882,-2.4445,-2.3973,-2.3571,-2.3318,-2.3088,-2.2778,-2.2268,-2.188,-2.1283,-2.0596,-2.0391,-2.0615,-2.0964,-2.1041,-2.1108,-2.1185,-2.0819,-2.0496,-2.0163,-1.971,-1.9094,-1.8359,-1.8105,-1.8037,-1.8076,-1.8279,-1.8539,-1.8764,-1.9031,-1.9297,-1.9616,-1.9987,-2.0309,-2.0517,-2.1109,-2.1457,-2.1392,-2.1122,-2.1031,-2.109,-2.1311,-2.1403,-2.1423,-2.1831,-2.206,-2.201,-2.1763,-2.1418,-2.1152,-2.1498,-2.2052,-2.2544,-2.3325,-2.3921,-2.4586,-2.5376,-2.5894,-2.6166,-2.6544,-2.6779,-2.6794,-2.6794,-2.6794,-2.6794,-2.6794,-2.6794,-2.6794,-2.6794,-2.6794,-2.6794,-2.6794,-2.6794,-2.6858,-2.734,-2.776,-2.816,-2.8607,-2.9035,-2.9418,-2.9687,-2.9814,-2.9852,-2.9896,-2.9896,-2.9896,-2.9896,-2.9962,-3.0076,-2.9791,-2.9478,-3.0046,-3.0422,-3.0443,-3.0431,-3.0344,-3.0071,-2.9248,-2.8072,-2.6757,-2.6185,-2.6185,-2.6601,-2.7114,-2.7798,-2.8268,-2.799,-2.7727,-2.7648,-2.1874,-2.2141,-2.2721,-2.3105,-2.342,-2.3983,-2.3983,-2.3541,-2.3149,-2.2896,-2.2702,-2.2491,-2.2322,-2.1895,-2.1252,-2.0488,-1.9718,-1.972,-1.996,-2.0342,-2.042,-2.0459,-2.0576,-2.0576,-2.0458,-2.0251,-1.9901,-1.9426,-1.8637,-1.8295,-1.8091,-1.8061,-1.8178,-1.8279,-1.8414,-1.8549,-1.8741,-1.9008,-1.9473,-1.9977,-2.0805,-2.1632,-2.2197,-2.2185,-2.1777,-2.156,-2.159,-2.183,-2.1877,-2.1963,-2.2316,-2.272,-2.264,-2.235,-2.2064,-2.1854,-2.2063,-2.2455,-2.2937,-2.3597,-2.4245,-2.4935,-2.5609,-2.6153,-2.6547,-2.6707,-2.6794,-2.6794,-2.6794,-2.6794,-2.6794,-2.6794,-2.6794,-2.6794,-2.6794,-2.6794,-2.6794,-2.6794,-2.6794,-2.7026,-2.7509,-2.771,-2.786,-2.8189,-2.8535,-2.8951,-2.9227,-2.9614,-2.9697,-2.9874,-2.9896,-2.9896,-2.9896,-2.9896,-2.994,-2.9962,-2.9783,-2.9977,-3.0231,-3.0316,-3.0338,-3.0342,-3.0013,-2.9691,-2.8947,-2.7705,-2.6965,-2.65,-2.7147,-2.781,-2.8475,-2.8691,-2.8514,-2.8746,-2.8912,-2.1874,-2.2141,-2.2397,-2.2608,-2.2882,-2.3135,-2.3135,-2.2872,-2.2608,-2.2485,-2.2432,-2.2366,-2.2138,-2.166,-2.0837,-2.0311,-2.0034,-1.9811,-1.9841,-2.0196,-2.0264,-2.0381,-2.0566,-2.0615,-2.0576,-2.04,-2.0098,-1.9443,-1.8841,-1.8598,-1.8315,-1.8125,-1.8071,-1.8052,-1.8144,-1.8212,-1.8076,-1.8279,-1.8875,-1.9824,-2.0967,-2.1769,-2.2092,-2.2142,-2.2101,-2.2029,-2.2036,-2.2195,-2.2238,-2.2244,-2.2347,-2.2555,-2.2604,-2.2488,-2.2476,-2.236,-2.2274,-2.2142,-2.2707,-2.3501,-2.4243,-2.4922,-2.5655,-2.6301,-2.6671,-2.6794,-2.6794,-2.6794,-2.6794,-2.6794,-2.6794,-2.6794,-2.6794,-2.6794,-2.6794,-2.6794,-2.6794,-2.6794,-2.6794,-2.6806,-2.7181,-2.7167,-2.7218,-2.7595,-2.7963,-2.8376,-2.8795,-2.9129,-2.9457,-2.957,-2.9896,-2.9896,-2.9896,-2.9896,-2.9896,-2.9896,-2.9918,-2.9989,-3.0076,-3.0205,-3.0205,-3.0184,-3.0055,-2.9675,-2.9072,-2.8486,-2.7594,-2.7413,-2.7918,-2.8582,-2.9353,-2.9376,-2.9118,-2.9499,-2.9893,-2.1785,-2.1874,-2.1998,-2.2087,-2.2176,-2.2264,-2.2264,-2.2176,-2.2087,-2.1998,-2.1998,-2.1998,-2.1776,-2.1349,-2.0865,-2.0463,-2.0062,-1.9845,-1.9832,-2.0048,-2.0098,-2.0255,-2.0527,-2.0615,-2.0615,-2.0556,-2.039,-2.0049,-1.9414,-1.8831,-1.8481,-1.8334,-1.8135,-1.8008,-1.8008,-1.8008,-1.8008,-1.8279,-1.8942,-1.9857,-2.0764,-2.1506,-2.1956,-2.203,-2.2123,-2.2185,-2.2216,-2.234,-2.2359,-2.234,-2.2328,-2.2389,-2.2432,-2.2389,-2.242,-2.2365,-2.2404,-2.2543,-2.292,-2.3537,-2.4099,-2.475,-2.5534,-2.6229,-2.6647,-2.6794,-2.6794,-2.6794,-2.6794,-2.6794,-2.6808,-2.6794,-2.6794,-2.6794,-2.6794,-2.6794,-2.6794,-2.6794,-2.6794,-2.6794,-2.6806,-2.6858,-2.6948,-2.7269,-2.757,-2.782,-2.8116,-2.8334,-2.8748,-2.9091,-2.9457,-2.988,-2.9896,-2.9896,-2.9896,-2.9896,-2.9896,-2.994,-2.994,-3.0027,-3.0027,-2.9962,-2.9918,-2.9896,-2.9605,-2.8946,-2.8154,-2.8063,-2.8336,-2.928,-3.0305,-3.0009,-2.9728,-2.991,-3.0257,-2.1687,-2.1687,-2.1687,-2.1687,-2.1687,-2.1687,-2.1731,-2.1696,-2.1731,-2.1696,-2.1687,-2.1731,-2.1557,-2.1236,-2.0998,-2.0558,-2.0058,-1.9838,-1.9854,-1.9869,-1.9942,-2.0177,-2.045,-2.0615,-2.0615,-2.0615,-2.0576,-2.0361,-1.9932,-1.9358,-1.889,-1.8617,-1.8359,-1.8135,-1.8027,-1.8008,-1.8042,-1.8279,-1.8965,-1.9715,-2.0463,-2.1167,-2.1588,-2.1862,-2.203,-2.2197,-2.2228,-2.2278,-2.2278,-2.2247,-2.2278,-2.2309,-2.2247,-2.2309,-2.2309,-2.2309,-2.2378,-2.253,-2.2867,-2.3323,-2.393,-2.4567,-2.5411,-2.6196,-2.6678,-2.6792,-2.6951,-2.7061,-2.671,-2.6751,-2.6833,-2.6818,-2.6753,-2.6753,-2.6794,-2.6794,-2.6837,-2.7012,-2.6953,-2.6794,-2.6794,-2.6794,-2.691,-2.7093,-2.7258,-2.7346,-2.7473,-2.7625,-2.8024,-2.851,-2.8795,-2.922,-2.9637,-2.972,-2.9896,-2.9896,-2.9896,-2.9874,-2.9874,-2.9918,-2.994,-2.994,-2.9918,-2.9918,-2.9918,-2.9675,-2.9049,-2.8853,-2.8722,-2.9536,-3.0189,-3.038,-3.0369,-3.0468,-3.0489,-2.1687,-2.1687,-2.1687,-2.1687,-2.1687,-2.1687,-2.1687,-2.1687,-2.1687,-2.1687,-2.1687,-2.1687,-2.1668,-2.1476,-2.0989,-2.0613,-2.0429,-1.9687,-1.9678,-1.9831,-1.9942,-2.0177,-2.045,-2.0615,-2.0615,-2.0615,-2.0615,-2.0576,-2.0449,-1.999,-1.9309,-1.8705,-1.8652,-1.8334,-1.8213,-1.8193,-1.8291,-1.85,-1.8967,-1.9472,-2.0129,-2.0784,-2.1325,-2.1726,-2.1999,-2.2197,-2.2197,-2.2216,-2.2216,-2.2197,-2.2216,-2.2247,-2.2228,-2.2216,-2.2216,-2.2259,-2.2259,-2.234,-2.2543,-2.2957,-2.3514,-2.4134,-2.5016,-2.6036,-2.6497,-2.6791,-2.7065,-2.7399,-2.7004,-2.6887,-2.6941,-2.6863,-2.6746,-2.6941,-2.6968,-2.6794,-2.6997,-2.7488,-2.7387,-2.6939,-2.6953,-2.7229,-2.7403,-2.7696,-2.7179,-2.7236,-2.713,-2.7258,-2.759,-2.8014,-2.8063,-2.8414,-2.9091,-2.9457,-2.9808,-2.9852,-2.9852,-2.9808,-2.9786,-2.9852,-2.9918,-2.9896,-2.9896,-2.994,-2.9946,-2.9946,-2.993,-2.9545,-2.9388,-2.9724,-3.0076,-3.0295,-3.0426,-3.0489,-3.0489,-2.1687,-2.1687,-2.1687,-2.1687,-2.1687,-2.1687,-2.1687,-2.1687,-2.1687,-2.1687,-2.1687,-2.1687,-2.1687,-2.1522,-2.1147,-2.0732,-2.0433,-1.9939,-1.9836,-1.9841,-1.9942,-2.0177,-2.0459,-2.0615,-2.0615,-2.0615,-2.0615,-2.0615,-2.0556,-2.0342,-1.9814,-1.9297,-1.9082,-1.8734,-1.8539,-1.8564,-1.8724,-1.8765,-1.898,-1.9385,-1.9802,-2.0452,-2.1017,-2.1494,-2.1987,-2.2154,-2.2197,-2.2197,-2.2197,-2.2197,-2.2197,-2.2197,-2.2197,-2.2197,-2.2221,-2.2246,-2.2258,-2.227,-2.2301,-2.2665,-2.3035,-2.3794,-2.4704,-2.5619,-2.621,-2.7031,-2.7282,-2.7409,-2.7421,-2.743,-2.7314,-2.7039,-2.6842,-2.72,-2.7302,-2.7142,-2.7302,-2.7939,-2.8549,-2.8476,-2.8258,-2.8229,-2.8347,-2.8491,-2.7721,-2.7079,-2.6948,-2.6937,-2.7258,-2.7478,-2.7514,-2.764,-2.8244,-2.8858,-2.9213,-2.9486,-2.977,-2.9704,-2.9614,-2.9704,-2.9748,-2.9896,-2.9918,-2.9962,-2.9962,-2.994,-2.994,-2.9918,-2.9918,-2.994,-3.0076,-3.0258,-3.0363,-3.0468,-3.0489,-2.1687,-2.1687,-2.1687,-2.1687,-2.1687,-2.1687,-2.1687,-2.1687,-2.1687,-2.1687,-2.1687,-2.1687,-2.1687,-2.1577,-2.1238,-2.0879,-2.0503,-2.009,-1.9928,-1.9886,-1.9951,-2.0186,-2.0459,-2.0615,-2.0615,-2.0615,-2.0615,-2.0615,-2.0615,-2.0615,-2.0117,-1.9707,-1.9561,-1.9307,-1.8773,-1.9023,-1.9193,-1.9075,-1.9014,-1.9387,-1.9796,-2.0402,-2.1021,-2.1571,-2.2179,-2.233,-2.2258,-2.2197,-2.2197,-2.2197,-2.2197,-2.2197,-2.2197,-2.2221,-2.2282,-2.239,-2.2474,-2.2522,-2.2638,-2.2705,-2.3059,-2.4024,-2.452,-2.5222,-2.5955,-2.701,-2.6934,-2.7207,-2.7597,-2.7838,-2.7481,-2.74,-2.7295,-2.7638,-2.858,-2.8622,-2.8434,-2.884,-2.9624,-3.0104,-2.9755,-2.9246,-2.8768,-2.8726,-2.8118,-2.7364,-2.698,-2.689,-2.691,-2.7041,-2.7015,-2.7144,-2.7412,-2.7974,-2.851,-2.9075,-2.9525,-2.9243,-2.922,-2.9418,-2.9531,-2.9659,-2.983,-2.9918,-2.9918,-2.9896,-2.994,-2.9984,-2.9962,-2.9918,-3.0081,-3.0258,-3.0363,-3.0447,-3.0468,-2.1687,-2.1687,-2.1687,-2.1687,-2.1687,-2.1687,-2.1687,-2.1687,-2.1687,-2.1687,-2.1687,-2.1687,-2.1687,-2.1595,-2.1291,-2.0934,-2.0594,-2.0182,-2.0009,-2.0087,-2.0053,-2.0244,-2.0489,-2.0654,-2.0615,-2.0615,-2.0615,-2.0615,-2.0615,-2.0615,-2.0254,-2.0059,-1.9971,-1.9834,-1.8773,-1.9102,-1.9287,-1.9255,-1.8922,-1.949,-2.0219,-2.0789,-2.1375,-2.1991,-2.2633,-2.2799,-2.2606,-2.2522,-2.2534,-2.251,-2.2486,-2.2486,-2.2462,-2.2438,-2.2626,-2.2931,-2.3075,-2.3316,-2.3661,-2.3381,-2.3703,-2.4245,-2.4593,-2.5037,-2.582,-2.6233,-2.6433,-2.6804,-2.695,-2.7083,-2.7355,-2.7859,-2.7887,-2.8104,-2.8981,-2.9491,-2.9245,-2.9055,-2.9709,-3.0401,-3.0465,-3.0205,-2.9479,-2.8886,-2.8409,-2.7801,-2.7173,-2.6895,-2.6823,-2.6794,-2.6794,-2.6858,-2.7041,-2.7473,-2.8131,-2.8905,-2.9206,-2.892,-2.8795,-2.8951,-2.9059,-2.9121,-2.9366,-2.9742,-2.9896,-2.9896,-2.9984,-3.0055,-2.9989,-2.9924,-3.0103,-3.0258,-3.038,-3.0443,-3.0468,-2.1687,-2.1687,-2.1687,-2.1687,-2.1687,-2.1687,-2.1687,-2.1687,-2.1687,-2.1687,-2.1687,-2.1687,-2.1687,-2.1559,-2.1346,-2.1034,-2.0851,-2.0512,-2.037,-2.0696,-2.0462,-2.0667,-2.0819,-2.0703,-2.0615,-2.0615,-2.0615,-2.0615,-2.0615,-2.0615,-2.0312,-2.0098,-2.0137,-2.0106,-1.9971,-2.0106,-2.0105,-1.996,-1.9899,-2.0199,-2.0822,-2.1385,-2.1981,-2.2634,-2.3233,-2.3376,-2.3192,-2.3132,-2.3132,-2.3144,-2.3144,-2.3156,-2.318,-2.318,-2.3312,-2.3517,-2.3592,-2.3797,-2.4109,-2.4104,-2.4014,-2.4265,-2.4511,-2.4878,-2.5248,-2.5715,-2.6045,-2.6302,-2.6302,-2.6468,-2.6973,-2.7958,-2.8179,-2.8071,-2.8656,-2.9153,-2.919,-2.8997,-2.9243,-3.0005,-3.0328,-3.0359,-2.9896,-2.9433,-2.8958,-2.8369,-2.7763,-2.7074,-2.6852,-2.6808,-2.6794,-2.6794,-2.6937,-2.7244,-2.7735,-2.8341,-2.8692,-2.851,-2.8383,-2.8424,-2.8487,-2.8542,-2.9006,-2.9434,-2.9697,-2.9918,-2.9962,-2.9989,-2.9946,-2.9951,-3.0081,-3.0231,-3.0316,-3.0422,-3.0468,-2.1687,-2.1687,-2.1687,-2.1687,-2.1687,-2.1687,-2.1687,-2.1687,-2.1687,-2.1687,-2.1687,-2.1687,-2.1687,-2.1604,-2.1421,-2.1181,-2.1099,-2.086,-2.0768,-2.1121,-2.0797,-2.0868,-2.0945,-2.083,-2.0644,-2.0615,-2.0615,-2.0615,-2.0615,-2.0615,-2.043,-2.0244,-2.0137,-2.0331,-2.0468,-2.0478,-2.0544,-2.0524,-2.0616,-2.1037,-2.1682,-2.2284,-2.2834,-2.3337,-2.3732,-2.3962,-2.3842,-2.3818,-2.3875,-2.3899,-2.3887,-2.3887,-2.3945,-2.3984,-2.3998,-2.4013,-2.4266,-2.4458,-2.4699,-2.4771,-2.4625,-2.4514,-2.465,-2.484,-2.505,-2.5477,-2.5728,-2.5838,-2.5758,-2.6104,-2.6718,-2.7709,-2.7696,-2.7524,-2.7544,-2.8038,-2.8293,-2.8059,-2.8137,-2.8949,-3.0189,-3.0205,-3.0221,-3.0002,-2.9598,-2.8984,-2.8383,-2.7705,-2.7089,-2.7128,-2.6968,-2.6794,-2.682,-2.7081,-2.7325,-2.7615,-2.789,-2.8029,-2.8084,-2.8155,-2.7904,-2.7984,-2.8566,-2.9121,-2.9412,-2.9675,-2.9852,-2.9896,-2.988,-2.9902,-2.9968,-3.0103,-3.0253,-3.0359,-3.0426,-2.1687,-2.1687,-2.1687,-2.1687,-2.1687,-2.1687,-2.1687,-2.1687,-2.1687,-2.1687,-2.1687,-2.1687,-2.1687,-2.1687,-2.1659,-2.1511,-2.1245,-2.1145,-2.1219,-2.1137,-2.0948,-2.1077,-2.1001,-2.0859,-2.0693,-2.0605,-2.0615,-2.0615,-2.0615,-2.0615,-2.0586,-2.0566,-2.0488,-2.0546,-2.0586,-2.0634,-2.0798,-2.0984,-2.1264,-2.1819,-2.2564,-2.3283,-2.3676,-2.4071,-2.4336,-2.434,-2.4239,-2.4095,-2.4174,-2.4183,-2.4123,-2.4156,-2.4229,-2.4331,-2.4432,-2.4626,-2.4999,-2.5119,-2.5192,-2.518,-2.5192,-2.5011,-2.5155,-2.5394,-2.5417,-2.5392,-2.5511,-2.5606,-2.5594,-2.5873,-2.6299,-2.6346,-2.6393,-2.6195,-2.601,-2.6355,-2.671,-2.679,-2.6892,-2.7802,-2.9481,-3.0005,-2.996,-2.9827,-2.9773,-2.943,-2.8876,-2.8552,-2.8039,-2.7926,-2.7621,-2.6794,-2.6835,-2.6931,-2.7184,-2.7617,-2.7936,-2.8349,-2.8135,-2.809,-2.7752,-2.7437,-2.776,-2.8301,-2.9029,-2.9473,-2.9786,-2.9874,-2.9836,-2.9858,-2.988,-2.9989,-3.0124,-3.0253,-3.0321,-2.1687,-2.1687,-2.1687,-2.1687,-2.1687,-2.1687,-2.1687,-2.1687,-2.1687,-2.1687,-2.1687,-2.1687,-2.1687,-2.1687,-2.1687,-2.1604,-2.154,-2.1539,-2.1678,-2.1575,-2.1311,-2.1328,-2.1221,-2.1059,-2.0799,-2.0693,-2.0644,-2.0664,-2.0625,-2.0615,-2.0615,-2.0605,-2.0615,-2.0615,-2.0615,-2.0615,-2.1002,-2.1423,-2.1741,-2.2515,-2.3342,-2.4018,-2.4401,-2.4708,-2.4871,-2.4855,-2.4783,-2.4747,-2.4864,-2.4853,-2.489,-2.496,-2.495,-2.5022,-2.5059,-2.5083,-2.524,-2.53,-2.5312,-2.5312,-2.5312,-2.5312,-2.5312,-2.5312,-2.5347,-2.5347,-2.5394,-2.5418,-2.5418,-2.5652,-2.5721,-2.5734,-2.5734,-2.5629,-2.5476,-2.5652,-2.5978,-2.6,-2.6104,-2.6913,-2.8551,-2.9806,-2.9744,-2.9744,-2.9659,-2.9558,-2.9374,-2.9082,-2.8994,-2.8843,-2.8579,-2.7737,-2.743,-2.7675,-2.7792,-2.8146,-2.84,-2.8623,-2.8397,-2.8068,-2.7672,-2.7399,-2.7189,-2.7575,-2.8422,-2.919,-2.983,-2.977,-2.9531,-2.9726,-2.9808,-2.9902,-2.9995,-3.0081,-3.021,-2.1687,-2.1687,-2.1687,-2.1687,-2.1687,-2.1687,-2.1687,-2.1687,-2.1687,-2.1687,-2.1687,-2.1687,-2.1687,-2.1687,-2.1687,-2.1678,-2.1668,-2.1695,-2.181,-2.1885,-2.1652,-2.1669,-2.153,-2.138,-2.1204,-2.1064,-2.0948,-2.0889,-2.0791,-2.0664,-2.0615,-2.0615,-2.0615,-2.0664,-2.0722,-2.0886,-2.1272,-2.1835,-2.2419,-2.3065,-2.3813,-2.455,-2.4981,-2.5147,-2.5276,-2.5276,-2.5312,-2.5312,-2.5312,-2.5312,-2.5312,-2.5312,-2.5288,-2.5288,-2.5288,-2.5276,-2.53,-2.5312,-2.5312,-2.5312,-2.5312,-2.5312,-2.5312,-2.5312,-2.5312,-2.5312,-2.5312,-2.5312,-2.5312,-2.5312,-2.5312,-2.5312,-2.5312,-2.5312,-2.5312,-2.5312,-2.5347,-2.5347,-2.5756,-2.6311,-2.7571,-2.9107,-2.962,-2.9602,-2.9602,-2.9577,-2.9549,-2.9468,-2.9558,-2.9748,-2.9595,-2.9116,-2.8781,-2.8665,-2.8695,-2.8666,-2.8808,-2.889,-2.8642,-2.8274,-2.7761,-2.7407,-2.7275,-2.749,-2.791,-2.8646,-2.9373,-2.9266,-2.9129,-2.935,-2.9502,-2.9486,-2.9621,-2.9902,-3.0017,-2.1687,-2.1687,-2.1687,-2.1687,-2.1687,-2.1687,-2.1687,-2.1687,-2.1687,-2.1687,-2.1687,-2.1687,-2.1687,-2.1687,-2.1687,-2.1687,-2.1687,-2.1696,-2.1785,-2.2043,-2.1676,-2.1667,-2.1812,-2.1752,-2.1578,-2.1586,-2.1553,-2.1279,-2.1162,-2.0977,-2.0762,-2.0703,-2.0811,-2.0977,-2.1253,-2.1468,-2.2004,-2.2785,-2.3182,-2.3668,-2.42,-2.4826,-2.5312,-2.5276,-2.5312,-2.5312,-2.5312,-2.5312,-2.5312,-2.5312,-2.5312,-2.5312,-2.5312,-2.5312,-2.5312,-2.5312,-2.5312,-2.5312,-2.5312,-2.5312,-2.5312,-2.5312,-2.5312,-2.5312,-2.5312,-2.5312,-2.5312,-2.5312,-2.5312,-2.5312,-2.5312,-2.5312,-2.5312,-2.5312,-2.5312,-2.5312,-2.5312,-2.5453,-2.5873,-2.6517,-2.7564,-2.8944,-2.9463,-2.9446,-2.9602,-2.9602,-2.9602,-2.9602,-2.9758,-3.0127,-3.0184,-3.0029,-2.9828,-2.9464,-2.9348,-2.9291,-2.9218,-2.9174,-2.9028,-2.9057,-2.8939,-2.825,-2.7413,-2.7868,-2.8379,-2.8339,-2.8693,-2.855,-2.8574,-2.8873,-2.9006,-2.8982,-2.919,-2.9464,-2.9621,-2.1687,-2.1687,-2.1687,-2.1687,-2.1687,-2.1687,-2.1687,-2.1687,-2.1687,-2.1687,-2.1687,-2.1687,-2.1687,-2.1687,-2.1687,-2.1687,-2.1687,-2.1687,-2.1731,-2.182,-2.162,-2.1733,-2.1902,-2.1888,-2.1838,-2.1819,-2.1777,-2.175,-2.1613,-2.1368,-2.125,-2.1544,-2.1565,-2.1668,-2.205,-2.2369,-2.2993,-2.3798,-2.4178,-2.4383,-2.4664,-2.4956,-2.5312,-2.5312,-2.5312,-2.5312,-2.5312,-2.5312,-2.5312,-2.5312,-2.5312,-2.5312,-2.5312,-2.5312,-2.5312,-2.5312,-2.5312,-2.5312,-2.5312,-2.5312,-2.5312,-2.5312,-2.5312,-2.5312,-2.5312,-2.5312,-2.5336,-2.536,-2.5312,-2.5312,-2.5312,-2.5312,-2.5312,-2.5312,-2.5312,-2.5312,-2.5312,-2.5699,-2.6094,-2.7007,-2.7921,-2.8541,-2.9117,-2.9401,-2.954,-2.9602,-2.9602,-2.9602,-2.9602,-2.9851,-3.0113,-3.0094,-3.0422,-3.022,-3.0016,-2.9826,-2.971,-2.9797,-2.9768,-2.9899,-3.0016,-2.9493,-2.8837,-2.8779,-2.8941,-2.855,-2.8061,-2.781,-2.7934,-2.8277,-2.8486,-2.8462,-2.8542,-2.8803,-2.8967,-2.1522,-2.1678,-2.1687,-2.1687,-2.1687,-2.1687,-2.1687,-2.1687,-2.1687,-2.1687,-2.1687,-2.1687,-2.1687,-2.1687,-2.1687,-2.1687,-2.1687,-2.1687,-2.1731,-2.1687,-2.1713,-2.1868,-2.1939,-2.2029,-2.2318,-2.2333,-2.2343,-2.2308,-2.214,-2.2015,-2.2016,-2.2234,-2.2286,-2.2522,-2.293,-2.3355,-2.3977,-2.4848,-2.5207,-2.537,-2.5269,-2.5421,-2.5336,-2.5312,-2.5288,-2.53,-2.5312,-2.5312,-2.5312,-2.5312,-2.5312,-2.5312,-2.5312,-2.5312,-2.5312,-2.5312,-2.5312,-2.5312,-2.5312,-2.5312,-2.5312,-2.5312,-2.5312,-2.5312,-2.5973,-2.6033,-2.6081,-2.6033,-2.5408,-2.5312,-2.5312,-2.5312,-2.5312,-2.5312,-2.5312,-2.5312,-2.5523,-2.5886,-2.6926,-2.8352,-2.8894,-2.9022,-2.9446,-2.9477,-2.9602,-2.9602,-2.9602,-2.9602,-2.9602,-2.9602,-2.9882,-3.0083,-3.0341,-3.0462,-3.0258,-3.0125,-3.0094,-3.0238,-3.0266,-3.0332,-3.0277,-3.0437,-3.0365,-2.9871,-2.9071,-2.7975,-2.7563,-2.7351,-2.7335,-2.765,-2.7825,-2.7965,-2.8073,-2.8155,-2.8238,-2.1365,-2.1668,-2.1687,-2.1687,-2.1687,-2.1687,-2.1687,-2.1687,-2.1687,-2.1687,-2.1687,-2.1687,-2.1687,-2.1687,-2.1687,-2.1687,-2.1687,-2.1687,-2.1687,-2.1687,-2.1687,-2.1898,-2.2129,-2.2306,-2.2538,-2.2775,-2.283,-2.2762,-2.2689,-2.2786,-2.2931,-2.2889,-2.3033,-2.3248,-2.3684,-2.4138,-2.4818,-2.5571,-2.6043,-2.6335,-2.6176,-2.5899,-2.5685,-2.5529,-2.5445,-2.5421,-2.5397,-2.5361,-2.5361,-2.5312,-2.5312,-2.5312,-2.5312,-2.5312,-2.5312,-2.5312,-2.5312,-2.5312,-2.5312,-2.5312,-2.5312,-2.5312,-2.5312,-2.5636,-2.6274,-2.6767,-2.6815,-2.6418,-2.5793,-2.5432,-2.5432,-2.536,-2.536,-2.5324,-2.5324,-2.5312,-2.5641,-2.6025,-2.7464,-2.9022,-2.9226,-2.9289,-2.9571,-2.9602,-2.9602,-2.9602,-2.9602,-2.9602,-2.9602,-2.9602,-2.9727,-2.9882,-3.0036,-3.0142,-3.0294,-3.0233,-3.0144,-3.0052,-3.0052,-3.0296,-3.0507,-3.0582,-3.0554,-3.0365,-2.945,-2.8186,-2.737,-2.7073,-2.7104,-2.7196,-2.7321,-2.7564,-2.77,-2.776,-2.7585,-2.1346,-2.1687,-2.1687,-2.1687,-2.1687,-2.1687,-2.1687,-2.1687,-2.1687,-2.1687,-2.1687,-2.1687,-2.1687,-2.1687,-2.1687,-2.1687,-2.1687,-2.1687,-2.1687,-2.1687,-2.1687,-2.1919,-2.2141,-2.2274,-2.2485,-2.2771,-2.3156,-2.34,-2.3532,-2.3888,-2.4303,-2.4535,-2.4609,-2.487,-2.5328,-2.5708,-2.5987,-2.6594,-2.6783,-2.7007,-2.6862,-2.6614,-2.6431,-2.6312,-2.6188,-2.5965,-2.58,-2.5694,-2.5517,-2.5385,-2.5336,-2.536,-2.5312,-2.5312,-2.5312,-2.5312,-2.5312,-2.5312,-2.5312,-2.5312,-2.5312,-2.5312,-2.5372,-2.56,-2.6454,-2.7548,-2.7392,-2.6935,-2.6382,-2.5949,-2.5817,-2.5588,-2.5504,-2.542,-2.5372,-2.5336,-2.5453,-2.599,-2.6871,-2.7809,-2.8346,-2.8862,-2.9571,-2.9571,-2.954,-2.954,-2.9602,-2.9602,-2.9602,-2.9602,-2.9602,-2.9696,-2.9803,-3.0127,-3.0401,-3.0097,-2.996,-2.9837,-2.9867,-3.0144,-3.0387,-3.0582,-3.0525,-3.0452,-2.9653,-2.8447,-2.7746,-2.7234,-2.6954,-2.7073,-2.7067,-2.7167,-2.7321,-2.7397,-2.7269]},{"header":{"parameterUnit":"m.s-1","parameterCategory":1,"la1":31.0,"la2":29.5877,"lo1":-88.7671,"lo2":-86.6584,"dy":0.0162,"dx":0.0185,"nx":115,"ny":88,"refTime":"2026-05-03T12:00:00:Z","depth":0,"parameterNumber":3,"parameterNumberName":"V-component_of_WINDS"},"data":[0.0,0.0,0.0,0.0,0.0,0.0,0.0,0.0,0.0,0.0,0.0,0.0,0.0,0.0,0.0,0.0,0.0,0.0,0.0,0.0,0.0,0.0,0.0,0.0,0.0,0.0,0.0,0.0,0.0,0.0,0.0,0.0,0.0,0.0,0.0,0.0,0.0,0.0,0.0,0.0,0.0,0.0,0.0,0.0,0.0,0.0,0.0,0.0,0.0,0.0,0.0,0.0,0.0,0.0,0.0,0.0,0.0,0.0,0.0,0.0,0.0,0.0,0.0,0.0,0.0,0.0,0.0,0.0,0.0,0.0,0.0,0.0,0.0,0.0,0.0,0.0,0.0,0.0,0.0,0.0,0.0,0.0,0.0,0.0,0.0,0.0,0.0,0.0,0.0,0.0,0.0,0.0,0.0,0.0,0.0,0.0,0.0,0.0,0.0,0.0,0.0,0.0,0.0,0.0,0.0,0.0,0.0,0.0,0.0,0.0,0.0,0.0,0.0,0.0,0.0,0.0,0.0,0.0,0.0,0.0,0.0,0.0,0.0,0.0,0.0,0.0,0.0,0.0,0.0,0.0,0.0,0.0,0.0,0.0,0.0,0.0,0.0,0.0,0.0,0.0,0.0,0.0,0.0,0.0,0.0,0.0,0.0,0.0,0.0,0.0,0.0,0.0,0.0,0.0,0.0,0.0,0.0,0.0,0.0,0.0,0.0,0.0,0.0,0.0,0.0,0.0,0.0,0.0,0.0,0.0,0.0,0.0,0.0,0.0,0.0,0.0,0.0,0.0,0.0,0.0,0.0,0.0,0.0,0.0,0.0,0.0,0.0,0.0,0.0,0.0,0.0,0.0,0.0,0.0,0.0,0.0,0.0,0.0,0.0,0.0,0.0,0.0,0.0,0.0,0.0,0.0,0.0,0.0,0.0,0.0,0.0,0.0,0.0,0.0,0.0,0.0,0.0,0.0,0.0,0.0,0.0,0.0,0.0,0.0,0.0,0.0,0.0,0.0,0.0,0.0,0.0,0.0,0.0,0.0,0.0,0.0,0.0,0.0,0.0,0.0,0.0,0.0,0.0,0.0,0.0,0.0,0.0,0.0,0.0,0.0,0.0,0.0,0.0,0.0,0.0,0.0,0.0,0.0,0.0,0.0,0.0,0.0,0.0,0.0,0.0,0.0,0.0,0.0,0.0,0.0,0.0,0.0,0.0,0.0,0.0,0.0,0.0,0.0,0.0,0.0,0.0,0.0,0.0,0.0,0.0,0.0,0.0,0.0,0.0,0.0,0.0,0.0,0.0,0.0,0.0,0.0,0.0,0.0,0.0,0.0,0.0,0.0,0.0,0.0,0.0,0.0,0.0,0.0,0.0,0.0,0.0,0.0,0.0,0.0,0.0,0.0,0.0,0.0,0.0,0.0,0.0,0.0,0.0,0.0,0.0,0.0,0.0,0.0,0.0,0.0,0.0,0.0,0.0,0.0,0.0,0.0,0.0,0.0,0.0,0.0,0.0,0.0,0.0,0.0,0.0,0.0,0.0,0.0,0.0,0.0,0.0,0.0,0.0,0.0,0.0,0.0,0.0,0.0,0.0,0.0,0.0,0.0,0.0,0.0,0.0,0.0,0.0,0.0,0.0,0.0,0.0,0.0,0.0,0.0,0.0,0.0,0.0,0.0,0.0,0.0,0.0,0.0,0.0,0.0,0.0,0.0,0.0,0.0,0.0,0.0,0.0,0.0,0.0,0.0,0.0,0.0,0.0,0.0,0.0,0.0,0.0,0.0,0.0,0.0,0.0,0.0,0.0,0.0,0.0,0.0,0.0,0.0,0.0,0.0,0.0,0.0,0.0,0.0,0.0,0.0,0.0,0.0,0.0,0.0,0.0,0.0,0.0,0.0,0.0,0.0,0.0,0.0,0.0,0.0,0.0,0.0,0.0,0.0,0.0,0.0,0.0,0.0,0.0,0.0,0.0,0.0,0.0,0.0,0.0,0.0,0.0,0.0,0.0,0.0,0.0,0.0,0.0,0.0,0.0,0.0,0.0,0.0,0.0,0.0,0.0,0.0,0.0,0.0,0.0,0.0,0.0,0.0,0.0,0.0,0.0,0.0,0.0,0.0,0.0,0.0,0.0,0.0,0.0,0.0,0.0,0.0,0.0,0.0,0.0,0.0,0.0,0.0,0.0,0.0,0.0,0.0,0.0,0.0,0.0,0.0,0.0,0.0,0.0,0.0,0.0,0.0,0.0,0.0,0.0,0.0,0.0,0.0,0.0,0.0,0.0,0.0,0.0,0.0,0.0,0.0,0.0,0.0,0.0,0.0,0.0,0.0,0.0,0.0,0.0,0.0,0.0,0.0,0.0,0.0,0.0,0.0,0.0,0.0,0.0,0.0,0.0,0.0,0.0,0.0,0.0,0.0,0.0,0.0,0.0,0.0,0.0,0.0,0.0,0.0,0.0,0.0,0.0,0.0,0.0,0.0,0.0,0.0,0.0,0.0,0.0,0.0,0.0,0.0,0.0,0.0,0.0,0.0,0.0,0.0,0.0,0.0,0.0,0.0,0.0,0.0,0.0,0.0,0.0,0.0,0.0,0.0,0.0,0.0,0.0,0.0,0.0,0.0,0.0,0.0,0.0,0.0,0.0,0.0,0.0,0.0,0.0,0.0,0.0,0.0,0.0,0.0,0.0,0.0,0.0,0.0,0.0,0.0,0.0,0.0,0.0,0.0,0.0,0.0,0.0,0.0,0.0,0.0,0.0,0.0,0.0,0.0,0.0,0.0,0.0,0.0,0.0,0.0,0.0,0.0,0.0,0.0,0.0,0.0,0.0,0.0,0.0,0.0,0.0,0.0,0.0,0.0,0.0,0.0,0.0,0.0,0.0,0.0,0.0,0.0,0.0,0.0,0.0,0.0,0.0,0.0,0.0,0.0,0.0,0.0,0.0,0.0,0.0,0.0,0.0,0.0,0.0,0.0,0.0,0.0,0.0,0.0,0.0,0.0,0.0,0.0,0.0,0.0,0.0,0.0,0.0,0.0,0.0,0.0,0.0,0.0,0.0,0.0,0.0,0.0,0.0,0.0,0.0,0.0,0.0,0.0,0.0,0.0,0.0,0.0,0.0,0.0,0.0,0.0,0.0,0.0,0.0,0.0,0.0,0.0,0.0,0.0,0.0,0.0,0.0,0.0,0.0,0.0,0.0,0.0,0.0,0.0,0.0,0.0,0.0,0.0,0.0,0.0,0.0,0.0,0.0,0.0,0.0,0.0,0.0,0.0,0.0,0.0,0.0,0.0,0.0,0.0,0.0,0.0,0.0,0.0,0.0,0.0,0.0,0.0,0.0,0.0,0.0,0.0,0.0,0.0,0.0,0.0,0.0,0.0,0.0,0.0,0.0,0.0,0.0,0.0,0.0,0.0,0.0,0.0,0.0,0.0,0.0,0.0,0.0,0.0,0.0,0.0,0.0,0.0,0.0,0.0,0.0,0.0,0.0,0.0,0.0,0.0,0.0,0.0,0.0,0.0,0.0,0.0,0.0,0.0,0.0,0.0,0.0,0.0,0.0,0.0,0.0,0.0,0.0,0.0,0.0,0.0,0.0,0.0,0.0,0.0,0.0,0.0,0.0,0.0,0.0,0.0,0.0,0.0,0.0,0.0,0.0,0.0,0.0,0.0,0.0,0.0,0.0,0.0,0.0,0.0,0.0,0.0,0.0,0.0,0.0,0.0,0.0,0.0,0.0,0.0,0.0,0.0,0.0,0.0,0.0,0.0,0.0,0.0,0.0,0.0,0.0,0.0,0.0,0.0,0.0,0.0,0.0,0.0,0.0,0.0,0.0,0.0,0.0,0.0,0.0,0.0,0.0,0.0,0.0,0.0,0.0,0.0,0.0,0.0,0.0,0.0,0.0,0.0,0.0,0.0,0.0,0.0,0.0,0.0,0.0,0.0,0.0,0.0,0.0,0.0,0.0,0.0,0.0,0.0,0.0,0.0,0.0,0.0,0.0,0.0,0.0,0.0,0.0,0.0,0.0,0.0,0.0,0.0,0.0,0.0,0.0,0.0,0.0,0.0,0.0,0.0,0.0,0.0,0.0,0.0,0.0,0.0,0.0,0.0,0.0,0.0,0.0,0.0,0.0,0.0,0.0,0.0,0.0,0.0,0.0,0.0,0.0,0.0,0.0,0.0,0.0,0.0,0.0,0.0,0.0,0.0,0.0,0.0,0.0,0.0,0.0,0.0,0.0,0.0,0.0,0.0,0.0,0.0,0.0,0.0,0.5388,0.0,0.0,0.0,0.0,0.0,0.0,0.0,0.0,0.0,0.0,0.0,0.0,0.0,0.0,0.0,0.0,0.0,0.0,0.0,0.0,0.0,0.0,0.0,0.0,0.0,0.0,0.0,0.0,0.0,0.0,0.0,0.0,0.0,0.0,0.0,0.0,0.0,0.0,0.0,0.0,0.0,0.0,0.0,0.0,0.0,0.0,0.0,0.0,0.0,0.0,0.0,0.0,0.0,0.0,0.0,0.0,0.0,0.0,0.0,0.0,0.0,0.0,0.0,0.0,0.0,0.0,0.0,0.0,0.0,0.0,0.0,0.0,0.0,0.0,0.0,0.0,0.0,0.0,0.0,0.0,0.0,0.0,0.0,0.0,0.0,0.0,0.0,0.0,0.0,0.0,0.0,0.0,0.0,0.0,0.0,0.0,0.0,0.0,0.0,0.0,0.0,0.0,0.0,0.0,0.0,0.0,0.0,0.0,0.0,0.0,0.5426,0.556,0.5569,0.5531,0.5465,0.0,0.0,0.0,0.0,0.0,0.0,0.0,0.0,0.0,0.0,0.0,0.0,0.0,0.0,0.0,0.0,0.0,0.0,0.0,0.0,0.0,0.0,0.0,0.0,0.0,0.0,0.0,0.0,0.0,0.0,0.0,0.0,0.0,0.0,0.0,0.0,0.0,0.0,0.0,0.0,0.0,0.0,0.0,0.0,0.0,0.0,0.0,0.0,0.0,0.0,0.0,0.0,0.0,0.0,0.0,0.0,0.0,0.0,0.0,0.0,0.0,0.0,0.0,0.0,0.0,0.0,0.0,0.0,0.0,0.0,0.0,0.0,0.0,0.0,0.0,0.0,0.0,0.0,0.0,0.0,0.0,0.0,0.0,0.0,0.0,0.0,0.0,0.0,0.0,0.0,0.0,0.0,0.0,0.0,0.0,0.0,0.0,0.0,0.0,0.0,0.0,0.0,0.0,0.0,0.0,0.0,0.0,0.0,0.0,0.0,0.0,0.0,0.5784,0.5619,0.5391,0.0,0.0,0.0,0.0,0.0,0.0,0.0,0.0,0.0,0.0,0.0,0.0,0.0,0.0,0.0,0.0,0.0,0.0,0.0,0.0,0.0,0.0,0.0,0.0,0.0,0.0,0.0,0.0,0.0,0.0,0.0,0.0,0.0,0.0,0.0,0.0,0.0,0.0,0.0,0.0,0.0,0.0,0.0,0.0,0.0,0.0,0.0,0.0,0.0,0.0,0.0,0.0,0.0,0.0,0.0,0.0,0.0,0.0,0.0,0.0,0.0,0.0,0.0,0.0,0.0,0.0,0.0,0.0,0.0,0.0,0.0,0.0,0.0,0.0,0.0,0.0,0.0,0.0,0.0,0.0,0.0,0.0,0.0,0.0,0.0,0.0,0.0,0.0,0.0,0.0,0.0,0.0,0.0,0.0,0.0,0.0,0.0,0.0,0.0,0.0,0.0,0.0,0.0,0.0,0.0,0.0,0.0,0.0,0.0,0.0,0.5916,0.641,0.6004,0.0,0.5094,0.0,0.0,0.0,0.0,0.0,0.0,0.0,0.0,0.0,0.0,0.0,0.0,0.0,0.0,0.0,0.0,0.0,0.0,0.0,0.0,0.0,0.0,0.0,0.0,0.0,0.0,0.0,0.0,0.0,0.0,0.0,0.0,0.0,0.0,0.0,0.0,0.0,0.0,0.0,0.0,0.0,0.0,0.0,0.0,0.0,0.0,0.0,0.0,0.0,0.0,0.0,0.0,0.0,0.0,0.0,0.0,0.0,0.0,0.0,0.0,0.0,0.0,0.0,0.0,0.0,0.0,0.0,0.0,0.0,0.0,0.0,0.0,0.0,0.0,0.0,0.0,0.0,0.0,0.0,0.0,0.0,0.0,0.0,0.0,0.0,0.0,0.0,0.0,0.0,0.0,0.0,0.0,0.0,0.0,0.0,0.0,0.0,0.0,0.0,0.0,0.0,0.0,0.0,0.0,0.0,0.0,0.0,0.0,0.0,0.0,0.6188,0.6498,0.628,0.5792,0.0,0.0,0.0,0.0,0.0,0.0,0.0,0.0,0.0,0.0,0.0,0.0,0.0,0.0,0.0,0.0,0.0,0.0,0.0,0.0,0.0,0.0,0.0,0.0,0.0,0.0,0.0,0.0,0.0,0.0,0.0,0.0,0.0,0.0,0.0,0.0,0.0,0.0,0.0,0.0,0.0,0.0,0.0,0.0,0.0,0.0,0.0,0.0,0.0,0.0,0.0,0.0,0.0,0.0,0.0,0.0,0.0,0.0,0.0,0.0,0.0,0.0,0.0,0.0,0.0,0.0,0.0,0.0,0.0,0.0,0.0,0.0,0.0,0.0,0.0,0.0,0.0,0.0,0.0,0.0,0.0,0.0,0.0,0.0,0.0,0.0,0.0,0.0,0.0,0.0,0.0,0.0,0.0,0.0,0.0,0.0,0.0,0.0,0.0,0.0,0.0,0.0,0.0,0.0,0.0,0.0,0.0,0.0,0.0,0.0,0.5976,0.6228,0.6321,0.641,0.5952,0.4879,0.0,0.0,0.0,0.0,0.0,0.0,0.0,0.0,0.0,0.0,0.0,0.0,0.0,0.0,0.0,0.0,0.0,0.0,0.0,0.0,0.0,0.0,0.0,0.0,0.0,0.0,0.0,0.0,0.0,0.0,0.0,0.0,0.0,0.0,0.0,0.0,0.0,0.0,0.0,0.0,0.0,0.0,0.0,0.0,0.0,0.0,0.0,0.0,0.0,0.0,0.0,0.0,0.0,0.0,0.0,0.0,0.0,0.0,0.0,0.0,0.0,0.0,0.0,0.0,0.0,0.0,0.0,0.0,0.0,0.0,0.0,0.0,0.0,0.0,0.0,0.0,0.0,0.0,0.0,0.0,0.0,0.0,0.0,0.0,0.0,0.0,0.0,0.0,0.0,0.0,0.0,0.0,0.0,0.0,0.0,0.0,0.0,0.0,0.0,0.0,0.0,0.0,0.0,0.0,0.0,0.0,0.0,0.0,0.0,0.5843,0.5935,0.5949,0.6366,0.5911,0.0,0.0,0.0,0.0,0.0,0.0,0.0,0.0,0.0,0.0,0.0,0.0,0.0,0.0,0.0,0.0,0.0,0.0,0.0,0.0,0.0,0.0,0.0,0.0,0.0,0.0,0.0,0.0,0.0,0.0,0.0,0.0,0.0,0.0,0.0,0.0,0.0,0.0,0.0,0.0,0.0,0.0,0.0,0.0,0.0,0.0,0.0,0.0,0.0,0.0,0.0,0.0,0.0,0.0,0.0,0.0,0.0,0.0,0.0,0.0,0.0,0.0,0.0,0.0,0.0,0.0,0.0,0.0,0.0,0.0,0.0,0.0,0.0,0.0,0.0,0.0,0.0,0.0,0.0,0.0,0.0,0.0,0.0,0.0,0.0,0.0,0.0,0.0,0.0,0.0,0.0,0.0,0.0,0.0,0.0,0.0,0.0,0.0,0.0,0.0,0.0,0.0,0.0,0.0,0.0,0.0,0.0,0.0,0.0,0.585,0.6266,0.6314,0.5995,0.6166,0.5572,0.0,0.0,0.0,0.0,0.0,0.0,0.0,0.0,0.0,0.0,0.0,0.0,0.0,0.0,0.0,0.0,0.0,0.0,0.0,0.0,0.0,0.0,0.0,0.0,0.0,0.0,0.0,0.0,0.0,0.0,0.0,0.0,0.0,0.0,0.0,0.0,0.0,0.0,0.0,0.0,0.0,0.0,0.0,0.0,0.0,0.0,0.0,0.0,0.0,0.0,0.0,0.0,0.0,0.0,0.0,0.0,0.0,0.0,0.0,0.0,0.0,0.0,0.0,0.0,0.0,0.0,0.0,0.0,0.0,0.0,0.0,0.0,0.0,0.0,0.0,0.0,0.0,0.0,0.0,0.0,0.0,0.0,0.0,0.0,0.0,0.0,0.0,0.0,0.0,0.0,0.0,0.0,0.0,0.0,0.0,0.0,0.0,0.0,0.0,0.0,0.0,0.0,0.0,0.0,0.0,0.0,0.0,0.0,0.0,0.6208,0.0,0.6958,0.0,0.6298,0.5613,0.0,0.0,0.0,0.0,0.0,0.0,0.0,0.0,0.0,0.0,0.0,0.0,0.0,0.0,0.0,0.0,0.0,0.0,0.0,0.0,0.0,0.0,0.0,0.0,0.0,0.0,0.0,0.0,0.0,0.0,0.0,0.0,0.0,0.0,0.0,0.0,0.0,0.0,0.0,0.0,0.0,0.0,0.0,0.0,0.0,0.0,0.0,0.0,0.0,0.0,0.0,0.0,0.0,0.0,0.0,0.0,0.0,0.0,0.0,0.0,0.0,0.0,0.0,0.0,0.0,0.0,0.0,0.0,0.0,0.0,0.0,0.0,0.0,0.0,0.0,0.0,0.0,0.0,0.0,0.0,0.0,0.0,0.0,0.0,0.0,0.0,0.0,0.0,0.0,0.0,0.0,0.0,0.0,0.0,0.0,0.0,0.0,0.0,0.0,0.0,0.0,0.0,0.0,0.0,0.0,0.0,0.0,0.0,0.6232,0.6833,0.7772,0.776,0.6856,0.6772,0.6057,0.0,0.0,0.0,0.0,0.0,0.0,0.0,0.0,0.0,0.0,0.0,0.0,0.0,0.0,0.0,0.0,0.0,0.0,0.0,0.0,0.0,0.0,0.0,0.0,0.0,0.0,0.0,0.0,0.0,0.0,0.0,0.0,0.0,0.0,0.0,0.0,0.0,0.0,0.0,0.0,0.0,0.0,0.0,0.0,0.0,0.0,0.0,0.0,0.0,0.0,0.0,0.0,0.0,0.0,0.0,0.0,0.0,0.0,0.0,0.0,0.0,0.0,0.0,0.0,0.0,0.0,0.0,0.0,0.0,0.0,0.0,0.0,0.0,0.0,0.0,0.0,0.0,0.0,0.0,0.0,0.0,0.0,0.0,0.0,0.0,0.0,0.0,0.0,0.0,0.0,0.0,0.0,0.0,0.0,0.0,0.0,0.0,0.0,0.0,0.0,0.0,0.0,0.0,0.0,0.0,0.0,0.0,0.0,0.0,0.7698,0.8041,0.7918,0.7236,0.6587,0.5848,0.0,0.0,0.0,0.0,0.0,0.0,0.0,0.0,0.0,0.0,0.0,0.0,0.0,0.0,0.0,0.0,0.0,0.0,0.0,0.0,0.0,0.0,0.0,0.0,0.0,0.0,0.0,0.0,0.0,0.0,0.0,0.0,0.0,0.0,0.0,0.0,0.0,0.0,0.0,0.0,0.0,0.0,0.0,0.0,0.0,0.0,0.0,0.0,0.0,0.0,0.0,0.0,0.0,0.0,0.0,0.0,0.0,0.0,0.0,0.0,0.0,0.0,0.0,0.0,0.0,0.0,0.0,0.0,0.0,0.0,0.0,0.0,0.0,0.0,0.0,0.0,0.0,0.0,0.0,0.0,0.0,0.0,0.0,0.0,0.0,0.0,0.0,0.0,0.0,0.0,0.0,0.0,0.0,0.0,0.0,0.0,0.0,0.0,0.0,0.0,0.0,0.0,0.0,0.0,0.0,0.0,0.0,0.0,0.0,0.9103,0.9029,0.8655,0.7968,0.7214,0.6408,0.5538,0.0,0.0,0.0,0.0,0.0,0.0,0.0,0.0,0.0,0.0,0.0,0.0,0.0,0.0,0.0,0.0,0.0,0.0,0.0,0.0,0.0,0.0,0.0,0.0,0.0,0.0,0.0,0.0,0.0,0.0,0.0,0.0,0.0,0.0,0.0,0.0,0.0,0.0,0.0,0.0,0.0,0.0,0.0,0.0,0.0,0.0,0.0,0.0,0.0,0.0,0.0,0.0,0.0,0.0,0.0,0.0,0.0,0.0,0.0,0.0,0.0,0.0,0.0,0.0,0.0,0.0,0.0,0.0,0.0,0.0,0.0,0.0,0.0,0.0,0.0,0.0,0.0,0.0,0.0,0.0,0.0,0.0,0.0,0.0,0.0,0.0,0.0,0.0,0.0,0.0,0.0,0.0,0.0,0.0,0.0,0.0,0.0,0.0,0.0,0.0,0.0,0.0,0.0,0.0,0.0,0.0,0.0,0.0,1.0941,1.0626,1.0006,0.9105,0.8559,0.7611,0.0,0.0,0.0,0.0,0.0,0.0,0.0,0.0,0.0,0.0,0.0,0.0,0.0,0.0,0.0,0.0,0.0,0.0,0.0,0.0,0.0,0.0,0.0,0.0,0.0,0.0,0.0,0.0,0.0,0.0,0.0,0.0,0.0,0.0,0.0,0.0,0.0,0.0,0.0,0.0,0.0,0.0,0.0,0.0,0.0,0.0,0.0,0.0,0.0,0.0,0.0,0.0,0.0,0.0,0.0,0.0,0.0,0.0,0.0,0.0,0.0,0.0,0.0,0.0,0.0,0.0,0.0,0.0,0.0,0.0,0.0,0.0,0.0,0.0,0.0,0.0,0.0,0.0,0.0,0.0,0.0,0.0,0.0,0.0,0.0,0.0,0.0,0.0,0.0,0.0,0.0,0.0,0.0,0.0,0.0,0.0,0.0,0.0,0.0,0.0,0.0,0.0,0.0,0.0,0.0,0.0,0.0,0.0,0.0,1.1529,1.199,1.1817,1.0982,0.9847,0.8763,0.0,0.0,0.0,0.0,0.0,0.0,0.0,0.0,0.0,0.0,0.0,0.0,0.0,0.0,0.0,0.0,0.0,0.0,0.0,0.0,0.0,0.0,0.0,0.0,0.0,0.0,0.0,0.0,0.0,0.0,0.0,0.0,0.0,0.0,0.0,0.0,0.0,0.0,0.0,0.0,0.0,0.0,0.0,0.0,0.0,0.0,0.0,0.0,0.0,0.0,0.0,0.0,0.0,0.0,0.0,0.0,0.0,0.0,0.0,0.0,0.0,0.0,0.0,0.0,0.0,0.0,0.0,0.0,0.0,0.0,0.0,0.0,0.0,0.0,0.0,0.0,0.0,0.0,0.0,0.0,0.0,0.0,0.0,0.0,0.0,0.0,0.0,0.0,0.0,0.0,0.0,0.0,0.0,0.0,0.0,0.0,0.0,0.0,0.0,0.0,0.0,0.0,0.0,0.0,0.0,0.0,0.0,0.0,1.0962,1.208,1.2839,1.2929,1.2313,1.0749,0.9499,0.0,0.0,0.0,0.0,0.0,0.0,0.0,0.0,0.0,0.0,0.0,0.0,0.0,0.0,0.0,0.0,0.0,0.0,0.0,0.0,0.0,0.0,0.0,0.0,0.0,0.0,0.0,0.0,0.0,0.0,0.0,0.0,0.0,0.0,0.0,0.0,0.0,0.0,0.0,0.0,0.0,0.0,0.0,0.0,0.0,0.0,0.0,0.0,0.0,0.0,0.0,0.0,0.0,0.0,0.0,0.0,0.0,0.0,0.0,0.0,0.0,0.0,0.0,0.0,0.0,0.0,0.0,0.0,0.0,0.0,0.0,0.0,0.0,0.0,0.0,0.0,0.0,0.0,0.0,0.0,0.0,0.0,0.0,0.0,0.0,0.0,0.0,0.0,0.0,0.0,0.0,0.0,0.0,0.0,0.0,0.0,0.0,0.0,0.0,0.0,0.0,0.0,0.0,0.0,0.0,0.0,0.0,0.0,1.1245,1.2589,1.3398,1.3608,1.3119,1.1426,1.0091,0.0,0.0,0.0,0.0,0.0,0.0,0.0,0.0,0.0,0.0,0.0,0.0,0.0,0.0,0.0,0.0,0.0,0.0,0.0,0.0,0.0,0.0,0.0,0.0,0.0,0.0,0.0,0.0,0.0,0.0,0.0,0.0,0.0,0.0,0.0,0.0,0.0,0.0,0.0,0.0,0.0,0.0,0.0,0.0,0.0,0.0,0.0,0.0,0.0,0.0,0.0,0.0,0.0,0.0,0.0,0.0,0.0,0.0,0.0,0.0,0.0,0.0,0.0,0.0,0.0,0.0,0.0,0.0,0.0,0.0,0.0,0.0,0.0,0.0,0.0,0.0,0.0,0.0,0.0,0.0,0.0,0.0,0.0,0.0,0.0,0.0,0.0,0.0,0.0,0.0,0.0,0.0,0.0,0.0,0.0,0.0,0.0,0.0,0.0,0.0,0.0,0.0,0.0,0.0,0.0,0.0,0.0,0.0,1.2399,1.3429,1.4234,1.427,1.3493,1.2491,1.123,0.0,0.0,0.0,0.0,0.0,0.0,0.0,0.0,0.0,0.0,0.0,0.0,0.0,0.0,0.0,0.0,0.0,0.0,0.0,0.0,0.0,0.0,0.0,0.0,0.0,0.0,0.0,0.0,0.0,0.0,0.0,0.0,0.0,0.0,0.0,0.0,0.0,0.0,0.0,0.0,0.0,0.0,0.0,0.0,0.0,0.0,0.0,0.0,0.4577,0.0,0.0,0.0,0.0,0.0,0.0,0.0,0.0,0.0,0.0,0.0,0.0,0.0,0.0,0.0,0.0,0.0,0.0,0.0,0.0,0.0,0.0,0.0,0.0,0.0,0.0,0.0,0.0,0.0,0.0,0.0,0.0,0.0,0.0,0.0,0.0,0.0,0.0,0.0,0.0,0.0,0.0,0.0,0.0,0.0,0.0,0.0,0.0,0.0,0.0,0.0,0.0,0.0,0.0,0.0,0.0,0.0,0.0,0.0,1.325,1.3922,1.4786,1.4756,1.3778,1.3228,1.2113,0.0,0.0,0.0,0.0,0.0,0.0,0.0,0.0,0.0,0.0,0.0,0.0,0.0,0.0,0.0,0.0,0.0,0.0,0.0,0.0,0.0,0.0,0.0,0.0,0.0,0.0,0.0,0.0,0.0,0.0,0.0,0.0,0.0,0.0,0.0,0.0,0.0,0.0,0.0,0.0,0.0,0.0,0.0,0.0,0.0,0.0,0.0,0.0,0.0,0.0,0.0,0.0,0.0,0.0,0.0,0.0,0.0,0.0,0.0,0.0,0.0,0.0,0.0,0.0,0.0,0.0,0.0,0.0,0.0,0.0,0.0,0.0,0.0,0.0,0.0,0.0,0.0,0.0,0.0,0.0,0.0,0.0,0.0,0.0,0.0,0.0,0.0,0.0,0.0,0.0,0.0,0.0,0.0,0.0,0.0,0.0,0.0,0.0,0.0,0.0,0.0,0.0,0.0,0.0,0.0,0.0,0.0,1.256,1.3848,1.4245,1.5174,1.5102,1.3969,1.3674,1.26,1.0677,0.0,0.0,0.0,0.0,0.0,0.0,0.0,0.0,0.0,0.0,0.0,0.0,0.0,0.0,0.0,0.0,0.0,0.0,0.0,0.0,0.0,0.0,0.0,0.0,0.0,0.0,0.0,0.0,0.0,0.0,0.0,0.0,0.0,0.0,0.0,0.0,0.0,0.0,0.3519,0.3426,0.0,0.0,0.0,0.0,0.0,0.0,0.0,0.0,0.4785,0.0,0.0,0.0,0.0,0.0,0.0,0.0,0.0,0.0,0.0,0.0,0.0,0.0,0.0,0.0,0.0,0.0,0.0,0.0,0.0,0.0,0.0,0.0,0.0,0.0,0.0,0.0,0.0,0.0,0.0,0.0,0.0,0.0,0.0,0.0,0.0,0.0,0.0,0.0,0.0,0.0,0.0,0.0,0.0,0.0,0.0,0.0,0.0,0.0,0.0,0.0,0.0,0.0,0.0,0.0,0.0,1.114,1.2938,1.4019,1.4376,1.5399,1.5341,1.4117,1.3486,1.2235,1.0323,0.0,0.0,0.0,0.0,0.0,0.0,0.0,0.0,0.0,0.0,0.0,0.0,0.0,0.0,0.0,0.0,0.0,0.0,0.0,0.0,0.0,0.0,0.0,0.0,0.0,0.0,0.0,0.0,0.0,0.0,0.0,0.0,0.0,0.0,0.0,0.0,0.0,0.0,0.0,0.4439,0.4781,0.0,0.0,0.0,0.0,0.0,0.0,0.0,0.0,0.4792,0.0,0.0,0.0,0.0,0.0,0.0,0.0,0.0,0.0,0.0,0.0,0.0,0.0,0.0,0.0,0.0,0.0,0.0,0.0,0.0,0.0,0.0,0.0,0.0,0.0,0.0,0.0,0.0,0.0,0.0,0.0,0.0,0.0,0.0,0.0,0.0,0.0,0.0,0.0,0.0,0.0,0.0,0.0,0.0,0.0,0.0,0.0,0.0,0.0,0.0,0.0,0.0,0.0,0.0,0.0,1.1575,1.3528,1.4626,1.4734,1.5661,1.5584,1.4409,1.3686,1.233,0.0,0.0,0.0,0.0,0.0,0.0,0.0,0.0,0.0,0.0,0.0,0.0,0.0,0.0,0.0,0.0,0.0,0.0,0.0,0.0,0.0,0.0,0.0,0.0,0.0,0.0,0.0,0.0,0.0,0.0,0.0,0.0,0.0,0.0,0.0,0.0,0.0,0.0,0.0,0.0,0.5187,0.5454,0.5426,0.0,0.0,0.0,0.0,0.0,0.0,0.4934,0.4794,0.0,0.0,0.0,0.0,0.0,0.0,0.0,0.0,0.0,0.0,0.0,0.0,0.0,0.0,0.0,0.0,0.0,0.0,0.0,0.0,0.0,0.0,0.0,0.0,0.0,0.0,0.0,0.0,0.0,0.0,0.0,0.0,0.0,0.0,0.0,0.0,0.0,0.0,0.0,0.0,0.0,0.0,0.0,0.0,0.0,0.0,0.0,0.0,0.0,0.0,0.0,0.0,0.0,0.0,0.0,1.1825,1.4036,1.5114,1.4992,1.5828,1.5731,1.4548,1.3731,1.2313,0.0,0.0,0.0,0.0,0.0,0.0,0.0,0.0,0.0,0.0,0.0,0.0,0.0,0.0,0.0,0.0,0.0,0.0,0.0,0.0,0.0,0.0,0.0,0.0,0.0,0.0,0.0,0.0,0.0,0.0,0.0,0.0,0.0,0.0,0.0,0.0,0.0,0.0,0.0,0.0,0.0,0.5801,0.6029,0.5575,0.0,0.0,0.0,0.0,0.5153,0.5098,0.0,0.0,0.0,0.0,0.0,0.0,0.0,0.0,0.0,0.0,0.0,0.0,0.0,0.0,0.0,0.0,0.0,0.0,0.0,0.0,0.0,0.0,0.0,0.0,0.0,0.0,0.0,0.0,0.0,0.0,0.0,0.0,0.0,0.0,0.0,0.0,0.0,0.0,0.0,0.0,0.0,0.0,0.0,0.0,0.0,0.0,0.0,0.0,0.0,0.0,0.0,0.0,0.0,0.0,0.0,0.0,1.1838,1.4057,1.5044,1.4803,1.5811,1.5659,1.4197,1.3206,1.1702,0.0,0.0,0.0,0.0,0.0,0.0,0.0,0.0,0.0,0.0,0.0,0.0,0.0,0.0,0.0,0.0,0.0,0.0,0.0,0.0,0.0,0.0,0.0,0.0,0.0,0.0,0.0,0.0,0.0,0.0,0.0,0.0,0.0,0.0,0.0,0.0,0.0,0.0,0.0,0.0,0.0,0.5864,0.6293,0.5493,0.4654,0.0,0.0,0.4912,0.4835,0.5075,0.0,0.0,0.0,0.0,0.0,0.0,0.0,0.0,0.0,0.0,0.0,0.0,0.0,0.0,0.0,0.0,0.0,0.0,0.0,0.0,0.0,0.0,0.0,0.0,0.0,0.0,0.0,0.0,0.0,0.0,0.0,0.0,0.0,0.0,0.0,0.0,0.0,0.0,0.0,0.0,0.0,0.0,0.0,0.0,0.0,0.0,0.0,0.0,0.0,0.0,0.0,0.0,0.0,0.0,0.0,1.0661,1.1825,1.4049,1.5089,1.4902,1.584,1.5701,1.4357,1.3421,1.182,0.0,0.0,0.0,0.0,0.0,0.0,0.0,0.0,0.0,0.0,0.0,0.0,0.0,0.0,0.0,0.0,0.0,0.0,0.0,0.0,0.0,0.0,0.0,0.0,0.0,0.0,0.0,0.0,0.0,0.0,0.0,0.0,0.0,0.0,0.0,0.0,0.0,0.0,0.0,0.0,0.0,0.0,0.6357,0.5843,0.0,0.0,0.0,0.4644,0.4988,0.0,0.0,0.0,0.0,0.0,0.0,0.0,0.0,0.0,0.0,0.0,0.0,0.0,0.0,0.0,0.0,0.0,0.0,0.0,0.0,0.0,0.0,0.0,0.0,0.0,0.0,0.0,0.0,0.0,0.0,0.0,0.0,0.0,0.0,0.0,0.0,0.0,0.0,0.0,0.0,0.0,0.0,0.0,0.0,0.0,0.0,0.0,0.0,0.0,0.0,0.0,0.0,0.0,0.0,0.0,0.0,0.0,1.1829,1.4071,1.5159,1.5076,1.5932,1.5794,1.4528,1.3686,0.0,0.0,0.0,0.0,0.0,0.0,0.0,0.0,0.0,0.0,0.0,0.0,0.0,0.0,0.0,0.0,0.0,0.0,0.0,0.0,0.0,0.0,0.0,0.0,0.0,0.0,0.0,0.1491,0.0,0.0,0.0,0.0,0.0,0.0,0.0,0.0,0.0,0.0,0.0,0.0,0.0,0.0,0.6313,0.6336,0.6204,0.5745,0.0,0.0,0.4636,0.5065,0.5496,0.546,0.0,0.0,0.0,0.0,0.0,0.0,0.0,0.0,0.0,0.0,0.0,0.0,0.0,0.0,0.0,0.0,0.0,0.0,0.0,0.0,0.0,0.0,0.0,0.0,0.0,0.0,0.0,0.0,0.0,0.0,0.0,0.0,0.0,0.0,0.0,0.0,0.0,0.0,0.0,0.0,0.0,0.0,0.0,0.0,0.0,0.0,0.0,0.0,0.0,0.0,0.0,0.0,0.0,0.0,0.0,1.1929,1.4128,1.5234,1.5121,1.6138,1.5961,1.4548,1.3775,1.2353,0.0,0.0,0.0,0.0,0.0,0.0,0.0,0.0,0.0,0.0,0.0,0.0,0.0,0.0,0.0,0.0,0.0,0.0,0.0,0.0,0.0,0.0,0.0,0.0,0.0,0.0,0.0,0.0,0.0,0.0,0.0,0.0,0.0,0.0,0.0,0.0,0.0,0.0,0.0,0.0,0.0,0.6283,0.6214,0.6474,0.6313,0.0,0.0,0.4944,0.4927,0.5374,0.5341,0.4286,0.0,0.0,0.0,0.0,0.0,0.0,0.0,0.0,0.0,0.0,0.0,0.0,0.0,0.0,0.0,0.0,0.0,0.0,0.0,0.0,0.0,0.0,0.0,0.0,0.0,0.0,0.0,0.0,0.0,0.0,0.0,0.0,0.0,0.0,0.0,0.0,0.0,0.0,0.0,0.0,0.0,0.0,0.0,0.0,0.0,0.0,0.0,0.0,0.0,0.0,0.0,0.0,0.0,1.0633,1.1829,1.4184,1.5342,1.5318,1.6327,1.6201,1.4786,1.4233,1.2776,0.0,0.0,0.0,0.0,0.0,0.0,0.0,0.0,0.0,0.0,0.0,0.0,0.0,0.0,0.0,0.0,0.0,0.0,0.0,0.0,0.0,0.0,0.0,0.0,0.0,0.0,0.0,0.0,0.3204,0.2948,0.2568,0.0,0.0,0.0,0.0,0.0,0.0,0.0,0.0,0.0,0.0,0.6455,0.6074,0.652,0.0,0.0,0.598,0.5528,0.5836,0.555,0.509,0.4566,0.4103,0.0,0.0,0.0,0.0,0.0,0.0,0.0,0.0,0.0,0.0,0.0,0.0,0.0,0.0,0.0,0.0,0.0,0.0,0.0,0.0,0.0,0.0,0.0,0.0,0.0,0.0,0.0,0.0,0.0,0.0,0.0,0.0,0.0,0.0,0.0,0.0,0.0,0.0,0.0,0.0,0.0,0.0,0.0,0.0,0.0,0.0,0.0,0.0,0.0,0.0,0.0,0.0,1.0659,1.1846,1.4241,1.55,1.5507,1.657,1.648,1.5101,1.467,1.3265,0.0,0.0,0.0,0.0,0.0,0.0,0.0,0.0,0.0,0.0,0.0,0.0,0.0,0.0,0.0,0.0,0.0,0.0,0.0,0.0,0.0,0.0,0.0,0.0,0.0,0.0,0.0,0.0,0.3353,0.283,0.2414,0.0,0.0,0.0,0.0,0.0,0.0,0.0,0.0,0.0,0.0,0.6723,0.6401,0.6807,0.7217,0.7504,0.6574,0.5962,0.6259,0.5576,0.4913,0.4713,0.0,0.0,0.0,0.0,0.0,0.0,0.0,0.0,0.0,0.0,0.0,0.0,0.0,0.0,0.0,0.0,0.0,0.0,0.0,0.0,0.0,0.0,0.0,0.0,0.0,0.0,0.0,0.0,0.0,0.0,0.0,0.0,0.0,0.0,0.0,0.0,0.0,0.0,0.0,0.0,0.0,0.0,0.0,0.0,0.0,0.0,0.0,0.0,0.0,0.0,0.0,0.0,0.0,1.0793,1.2007,1.4431,1.5687,1.5721,1.6871,1.6797,1.5439,1.5069,1.3768,1.1412,0.0,0.0,0.0,0.0,0.0,0.0,0.0,0.0,0.0,0.0,0.0,0.0,0.0,0.0,0.0,0.0,0.0,0.0,0.0,0.0,0.0,0.0,0.0,0.0,0.0,0.0,0.4326,0.3169,0.237,0.0,0.0,0.0,0.0,0.0,0.0,0.0,0.0,0.0,0.0,0.677,0.702,0.73,0.7384,0.7405,0.7405,0.6683,0.6113,0.5985,0.5414,0.489,0.0,0.0,0.0,0.0,0.0,0.0,0.0,0.0,0.0,0.0,0.0,0.0,0.0,0.0,0.0,0.0,0.0,0.0,0.0,0.0,0.0,0.0,0.0,0.0,0.0,0.0,0.0,1.2088,1.1462,0.0,0.0,0.0,0.0,0.0,0.0,0.0,0.0,0.0,0.0,0.0,1.3664,1.3278,0.0,0.0,0.0,0.0,0.0,0.0,0.0,0.0,0.0,0.0,0.0,0.0,1.1018,1.2306,1.4527,1.5705,1.5774,1.6518,1.6473,1.5644,1.5016,1.351,1.1013,0.0,0.0,0.0,0.0,0.0,0.0,0.0,0.0,0.0,0.0,0.0,0.0,0.0,0.0,0.0,0.0,0.0,0.0,0.0,0.0,0.0,0.0,0.0,0.0,0.0,0.4367,0.0,0.0,0.0,0.0,0.0,0.0,0.0,0.0,0.0,0.0,0.0,0.6395,0.7063,0.7306,0.7464,0.7593,0.7587,0.7545,0.0,0.0,0.0,0.0,0.0,0.0,0.0,0.0,0.0,0.0,0.0,0.0,0.0,0.0,0.3686,0.2601,0.2528,0.2441,0.1855,0.0,0.0,0.0,0.0,0.0,0.0,0.0,0.0,0.0,0.0,0.0,0.0,0.0,0.0,0.0,0.0,1.3868,0.0,0.0,0.0,0.0,0.0,0.0,0.0,0.0,1.6025,1.6078,1.5823,1.5438,1.5236,0.0,1.5033,1.3812,0.0,0.0,0.0,0.0,0.0,0.0,0.0,0.0,1.1562,1.3041,1.4873,1.5811,1.5898,1.6434,1.6348,1.5505,1.4502,1.2978,1.0798,1.0246,0.9318,0.0,0.0,0.0,0.0,0.0,0.0,0.0,0.0,0.0,0.0,0.0,0.0,0.0,0.0,0.0,0.0,0.0,0.0,0.0,0.0,0.0,0.0,0.0,0.4708,0.0,0.0,0.0,0.0,0.0,0.0,0.0,0.0,0.0,0.6692,0.6721,0.6852,0.7267,0.7547,0.7691,0.7691,0.0,0.0,0.0,0.0,0.0,0.0,0.0,0.5065,0.469,0.495,0.5032,0.4497,0.4272,0.4176,0.4281,0.0,0.0,0.3343,0.3191,0.2829,0.1928,0.1522,0.123,0.1027,0.1016,0.0926,0.0,0.0,0.0,0.0,0.0,0.0,0.0,0.0,1.7209,1.7131,0.0,1.6528,0.0,0.0,0.0,0.0,0.0,0.0,0.0,0.0,1.8442,1.8492,1.8285,1.7449,1.7068,1.7014,1.6471,1.586,1.5104,1.2877,0.0,0.0,0.0,0.0,0.0,0.0,1.2423,1.4149,1.5416,1.6017,1.6022,1.6623,1.6361,1.5098,1.3654,1.2264,1.0947,1.04,0.9589,0.8487,0.746,0.0,0.0,0.0,0.0,0.0,0.0,0.0,0.0,0.0,0.0,0.0,0.0,0.0,0.0,0.0,0.0,0.0,0.0,0.0,0.0,0.4834,0.0,0.0,0.0,0.0,0.0,0.0,0.0,0.0,0.0,0.0,0.6453,0.7007,0.7361,0.7265,0.0,0.0,0.0,0.0,0.7918,0.8262,0.735,0.6489,0.6122,0.5772,0.5443,0.507,0.0,0.0,0.5051,0.4975,0.4787,0.4386,0.4078,0.399,0.419,0.3945,0.3282,0.1841,0.1396,0.1302,0.13,0.1263,0.1187,2.1926,0.0,0.0,0.0,0.0,1.9374,1.9342,1.9341,1.9528,1.9513,1.9326,1.9326,0.0,0.0,0.0,0.0,0.0,0.0,1.8128,1.8757,1.9561,1.9789,1.9494,1.9109,1.8696,1.8282,1.8106,1.7475,1.6476,1.5358,1.3769,1.1736,0.0,0.0,0.0,0.0,1.3275,1.4295,1.578,1.6413,1.6082,1.6175,1.564,1.4483,1.3946,1.3179,1.2201,1.1991,1.1184,0.9627,0.8929,0.0,0.0,0.0,0.0,0.0,0.0,0.0,0.0,0.0,0.0,0.0,0.0,0.0,0.0,0.0,0.0,0.0,0.0,0.0,0.5492,0.5955,0.6179,0.0,0.0,0.0,0.0,0.0,0.0,0.0,0.0,0.0,0.7251,0.7477,0.7681,0.0,0.0,0.7691,0.7691,0.8464,0.904,0.8943,0.0,0.0,0.0,0.5728,0.5226,0.5401,0.5609,0.5585,0.507,0.474,0.4451,0.432,0.4074,0.388,0.3777,0.3306,0.2593,0.165,0.1404,0.1368,0.1308,0.1226,0.1131,2.4947,2.2895,2.2362,2.2144,2.215,2.2095,2.2055,2.2019,2.2298,2.2251,2.2003,2.2019,2.1259,1.9926,1.9398,0.0,0.0,0.0,1.9638,1.9919,2.0535,2.0687,2.0437,2.0161,1.9836,1.9456,1.9037,1.8418,1.7678,1.6813,1.5671,1.427,0.0,0.0,1.3011,1.3697,1.4481,1.5372,1.6361,1.6626,1.6114,1.5546,1.4934,1.4262,1.4141,1.3653,1.2771,1.2584,1.1855,1.0455,0.9759,0.916,0.0,0.0,0.0,0.0,0.0,0.0,0.0,0.0,0.0,0.0,0.0,0.316,0.2927,0.0,0.0,0.0,0.4824,0.6233,0.6589,0.6597,0.0,0.0,0.0,0.0,0.0,0.0,0.0,0.6609,0.6566,0.6962,0.7953,0.8173,0.8245,0.8377,0.8224,0.8107,0.8099,0.0,0.9517,0.923,0.8527,0.7781,0.7047,0.6129,0.5571,0.5812,0.5796,0.576,0.5513,0.4855,0.4328,0.4276,0.4166,0.3946,0.3667,0.2996,0.2281,0.1545,0.1411,0.1398,0.1363,0.1241,0.114,2.7288,2.666,2.5476,2.4854,2.4668,2.4668,2.457,2.4518,2.5096,2.5035,2.4471,2.4451,2.3763,2.2474,2.1196,0.0,0.0,2.1058,2.1142,2.1488,2.1441,2.135,2.1206,2.0804,2.0605,2.0524,1.9494,1.8971,1.8848,1.7625,1.7031,1.7114,1.5426,1.4832,1.5254,1.5321,1.5892,1.6959,1.7041,1.6756,1.6068,1.4924,1.4287,1.4287,1.4235,1.376,1.2865,1.2462,1.187,1.1039,1.0191,1.0015,1.0572,0.0,0.0,0.0,0.0,0.0,0.0,0.0,0.0,0.0,0.0,0.0,0.0,0.0,0.0,0.0,0.5594,0.0,0.7671,0.7035,0.0,0.0,0.0,0.745,0.6264,0.7308,0.8019,0.7861,0.0,0.0,0.8597,0.0,0.8985,0.8787,0.8789,0.8789,0.8765,0.9241,0.951,0.929,0.8982,0.848,0.7682,0.6753,0.6134,0.6153,0.5989,0.5918,0.6042,0.5311,0.4546,0.439,0.436,0.421,0.3751,0.3084,0.2326,0.1634,0.1435,0.1411,0.1385,0.1293,0.1159,2.9304,2.8697,2.8383,2.7412,2.6019,2.5953,2.5909,2.5903,2.6019,2.5988,2.5887,2.5909,2.541,2.4548,2.3717,2.3124,2.2699,2.3046,2.2861,2.2266,2.2425,2.2425,2.2212,2.195,2.156,2.11,2.0843,2.0408,1.9849,1.8983,1.8542,1.8474,1.754,1.6634,1.5928,1.6335,1.6702,1.7,1.7454,1.7111,1.5963,1.486,1.4284,1.4219,1.4219,1.3795,1.299,1.2848,1.2308,1.1213,1.0992,1.0817,1.0621,0.914,0.0,0.0,0.0,0.0,0.0,0.0,0.0,0.0,0.0,0.4547,0.4008,0.0,0.6371,0.0,0.8231,0.8782,0.8615,0.8506,0.0,0.0,0.8367,0.7905,0.7352,0.8165,0.8873,0.9133,0.8612,0.8516,0.9299,0.9438,0.9453,0.9402,0.9394,0.9394,0.9402,0.9504,0.9562,0.9458,0.9106,0.8646,0.8129,0.7063,0.62,0.62,0.6139,0.613,0.6191,0.5975,0.556,0.4988,0.4832,0.4657,0.4214,0.3546,0.284,0.2152,0.1682,0.1411,0.1411,0.1254,0.1165,3.0171,2.9833,2.9833,2.9221,2.8206,2.7558,2.7288,2.7288,2.7257,2.7088,2.6811,2.6526,2.6164,2.578,2.5395,2.5004,2.467,2.4906,2.4557,2.3715,2.3659,2.3414,2.2949,2.264,2.2332,2.2012,2.1741,2.1383,2.0883,1.981,1.9224,1.9114,1.8296,1.7576,1.6965,1.7231,1.7394,1.7394,1.7448,1.7002,1.6013,1.5165,1.4555,1.4265,1.4252,1.3875,1.307,1.2879,1.2414,1.1695,1.1229,1.0869,1.0611,0.9625,0.8744,0.0,0.0,0.0,0.0,0.0,0.0,0.0,0.0,0.0,0.0,0.0,0.7909,0.0,0.9766,1.0043,0.9812,0.9474,0.952,1.0116,0.9562,0.9134,0.9127,0.9394,0.9773,1.0297,0.9615,0.9226,0.957,0.9614,0.9614,0.9614,0.9614,0.9614,0.9614,0.9614,0.9614,0.9595,0.9335,0.8679,0.7643,0.6766,0.62,0.62,0.62,0.62,0.62,0.62,0.6045,0.5637,0.5391,0.5129,0.4675,0.4206,0.3609,0.2929,0.215,0.1591,0.1435,0.1254,0.1142,3.0617,3.0509,3.0525,3.0463,3.0309,2.9166,2.8611,2.8535,2.8442,2.8073,2.7488,2.6903,2.6657,2.6641,2.6664,2.6618,2.6518,2.6488,2.6036,2.5334,2.4866,2.4268,2.3562,2.3164,2.3001,2.2972,2.2454,2.2127,2.1954,2.0547,1.9708,1.9432,1.8562,1.8051,1.7949,1.7929,1.7922,1.7889,1.7299,1.6702,1.61,1.5494,1.4914,1.4357,1.4316,1.3922,1.3176,1.28,1.2494,1.2223,1.132,1.0785,1.0681,1.0002,0.9387,0.0,0.8509,0.0,0.0,0.0,0.0,0.0,0.0,0.0,0.0,0.7989,0.9119,1.0029,1.0704,1.1076,1.1065,1.0365,1.0438,1.1665,1.1135,1.0695,1.0845,1.0725,1.0863,1.1444,1.0515,0.9795,0.9666,0.964,0.9673,0.9647,0.9614,0.9614,0.9614,0.9614,0.9614,0.9614,0.9614,0.8797,0.6869,0.6255,0.62,0.62,0.62,0.62,0.62,0.62,0.6191,0.6149,0.5885,0.5556,0.523,0.4911,0.444,0.3592,0.2576,0.1837,0.1524,0.1299,0.112,3.169,3.1239,3.1197,3.0905,3.0371,3.0125,2.972,2.9181,2.8618,2.8319,2.8211,2.8088,2.8027,2.8027,2.8027,2.7734,2.7211,2.7196,2.678,2.597,2.5271,2.4783,2.4484,2.3805,2.3465,2.3465,2.3331,2.3214,2.3003,2.2025,2.1175,2.0428,1.9556,1.8827,1.8248,0.0,0.0,0.0,1.7299,1.6702,1.61,1.5512,1.4914,1.4327,1.4316,0.0,1.3386,1.3266,1.2967,1.2396,1.2167,0.0,0.0,0.0,0.0,0.0,0.0,0.0,0.0,0.0,0.0,0.0,0.9823,0.9333,0.8214,0.9512,1.0524,1.0724,1.154,1.2027,1.2027,1.2078,1.2158,1.2338,1.2387,1.195,1.0824,1.1647,1.2454,1.2536,1.1644,1.0702,1.0069,0.9914,0.987,0.9766,0.9673,0.9614,0.9614,0.9614,0.9614,0.9614,0.9614,0.8771,0.6549,0.6228,0.6228,0.62,0.62,0.62,0.62,0.62,0.62,0.62,0.6112,0.6059,0.596,0.5652,0.491,0.3356,0.2665,0.2237,0.1815,0.1524,0.1232,3.2225,0.0,3.189,3.1705,0.0,3.1043,3.0705,3.0335,2.9689,2.9212,2.8864,2.855,2.8411,2.8411,2.8411,2.8211,2.7888,2.7904,2.7495,2.6765,2.6367,2.5802,2.5026,2.4626,2.4271,2.3946,2.3946,2.3882,2.3717,2.2789,2.209,2.1585,2.0691,2.0012,1.9591,1.9019,1.8458,1.7902,1.7603,1.7169,1.6552,1.5955,1.5345,1.4765,0.0,0.0,0.0,0.0,0.0,0.0,0.0,0.0,0.0,0.0,0.0,1.0997,1.074,1.0674,1.0861,1.0955,1.0963,1.0911,1.1104,1.083,0.9846,1.0054,1.0601,1.152,1.2421,1.2834,1.2639,1.2646,1.2799,1.2996,1.2958,1.2455,1.1619,1.2437,1.3224,1.3152,1.232,1.1417,1.0821,1.0403,1.0154,0.9921,0.9725,0.9621,0.9614,0.9614,0.9614,0.9614,0.9614,0.9066,0.7616,0.6734,0.6468,0.644,0.6359,0.6282,0.62,0.62,0.62,0.62,0.62,0.62,0.6191,0.6026,0.5429,0.4027,0.3172,0.267,0.2375,0.1994,0.1569,3.2398,3.2398,3.2398,3.2398,3.2351,3.1824,3.1551,3.1547,0.0,0.0,0.0,2.8802,2.8504,2.8427,2.8519,2.8519,2.8427,2.8535,2.8211,2.7565,2.7442,2.678,2.5703,2.5404,2.5025,2.4481,2.4364,2.4255,2.4172,2.3358,2.2804,2.2515,2.1792,2.1184,2.0717,1.9861,1.8946,1.8064,1.7942,1.7597,1.7,1.6525,1.5969,1.5376,1.4778,1.4203,1.3726,1.3606,1.3529,1.3492,1.2948,1.2792,1.3117,1.2535,1.2173,1.217,1.22,1.2277,1.2352,1.2153,1.2042,1.2047,1.2006,1.1778,1.1325,1.0485,1.0652,1.2276,1.3124,1.3431,1.306,1.2936,1.3037,1.3521,1.3248,1.2837,1.2412,1.3035,1.3563,1.3515,1.2725,1.1981,1.1609,1.0947,1.037,1.0058,0.9851,0.9691,0.9629,0.9614,0.9614,0.9614,0.9614,0.9302,0.8494,0.767,0.6999,0.681,0.6625,0.6418,0.6255,0.62,0.62,0.62,0.62,0.62,0.62,0.6182,0.5801,0.4757,0.3771,0.3068,0.2957,0.2576,0.2105,3.2398,3.2398,3.2398,3.2398,3.2382,3.229,3.2259,3.2151,3.0924,3.0033,2.9387,2.9319,2.8925,2.8442,2.8987,2.895,2.8433,2.9012,2.8904,0.0,2.7673,2.7303,2.7042,2.5865,2.525,2.5112,2.4574,2.4276,2.4187,2.3933,2.351,2.2908,2.2598,2.1741,2.0302,1.9898,1.9282,1.8434,1.8069,1.7597,1.7014,1.6919,1.6574,1.5978,1.5403,1.4999,1.4877,1.4417,1.4087,1.3931,1.3926,1.365,1.307,1.2931,1.3053,1.3471,1.3523,1.3954,1.4844,1.4673,1.4161,1.339,1.2704,1.2131,1.168,1.1808,1.2172,1.277,1.3297,1.3566,1.3493,1.3462,1.3449,1.3447,1.3467,1.3372,1.305,1.3348,1.361,1.3586,1.3021,1.2437,1.1974,1.1376,1.0744,1.0167,1.0105,1.0073,0.9772,0.9614,0.9614,0.9614,0.9614,0.9295,0.8705,0.8362,0.783,0.7133,0.6928,0.669,0.6255,0.62,0.62,0.62,0.62,0.62,0.62,0.62,0.5782,0.4919,0.4195,0.3742,0.3427,0.3149,0.2818,3.2496,3.2496,3.2425,3.2398,3.2398,3.2453,3.2468,3.2379,3.1836,3.1173,3.0474,3.012,2.9771,2.9535,2.9802,2.9571,2.8965,2.9248,2.9018,2.8387,2.8104,2.775,2.7319,2.6364,2.5703,2.5266,2.4625,2.4297,2.4255,2.4193,2.3998,2.3666,2.3563,2.2656,2.1075,2.0808,2.0074,1.886,1.8352,1.7972,1.7665,1.7337,1.7035,1.6761,1.586,1.5353,1.5315,1.4678,1.4303,1.416,1.4127,1.3912,1.3579,1.3469,1.368,1.421,1.4747,1.5178,1.5492,1.498,1.4364,1.3665,1.3214,1.2849,1.2477,1.2361,1.2576,1.3194,1.3473,1.361,1.361,1.361,1.3573,1.3525,1.3563,1.3539,1.3443,1.3491,1.361,1.3586,1.3286,1.2914,1.2482,1.1825,1.126,1.0772,1.0619,1.0385,1.0177,1.0441,1.0696,1.0645,1.0089,0.9537,0.9187,0.8985,0.8493,0.7664,0.7348,0.6955,0.6364,0.62,0.62,0.62,0.62,0.62,0.62,0.62,0.5867,0.5412,0.5033,0.4636,0.4064,0.3468,0.2979,3.2633,3.2578,3.248,3.2453,3.2468,3.2551,3.2551,3.2523,3.2578,3.2257,3.1636,3.092,3.054,3.0417,3.054,3.0197,2.9479,2.9556,2.9171,2.8458,2.8411,2.8119,2.7588,2.6795,2.6087,2.5465,2.4718,2.4281,2.4281,2.4281,2.4281,2.4281,2.4229,2.3467,2.2024,2.171,2.0872,1.9528,1.8855,1.8456,1.8254,1.7829,1.7579,1.7491,1.6574,1.5906,1.5719,1.5175,1.4755,1.4468,1.4446,1.4416,1.4352,1.4256,1.445,1.499,1.5741,1.6075,1.5808,1.5189,1.4606,1.4083,1.3838,1.3614,1.3334,1.2883,1.2856,1.3486,1.361,1.361,1.361,1.361,1.361,1.361,1.361,1.3621,1.361,1.361,1.361,1.3597,1.3491,1.3314,1.2963,1.2354,1.1852,1.1587,1.1169,1.0847,1.0887,1.1298,1.1562,1.1408,1.0682,1.0024,0.9876,0.951,0.8969,0.8217,0.7904,0.7408,0.6739,0.6445,0.6418,0.6418,0.6287,0.6205,0.62,0.62,0.6048,0.5695,0.5597,0.5412,0.4513,0.3629,0.2993,3.2773,3.2621,3.2578,3.2594,3.2578,3.2621,3.2718,3.28,3.2676,3.2563,3.2377,3.1651,3.0982,3.054,3.1059,3.0628,2.955,3.0033,2.9602,2.8488,2.8411,2.8365,2.8181,2.698,2.6387,2.6103,2.4933,2.4281,2.4281,2.4281,2.4281,2.4281,2.4229,2.3743,2.2889,2.2144,2.1368,2.0569,1.9712,1.9026,1.85,1.8477,1.8449,1.8377,1.7805,1.7152,1.6467,1.6341,1.5854,1.4988,1.5408,1.5616,1.5451,1.5428,1.5667,1.616,1.631,1.6498,1.6687,1.6346,1.5868,1.5426,1.4778,1.4311,1.4089,1.3684,1.3473,1.361,1.361,1.361,1.361,1.361,1.361,1.361,1.361,1.361,1.361,1.361,1.361,1.361,1.3625,1.3573,1.3426,1.3082,1.2681,1.2196,1.1787,1.1493,1.1456,1.1581,1.1685,1.1654,1.1431,1.0982,1.0297,0.9788,0.9356,0.8797,0.8593,0.807,0.7408,0.7085,0.7036,0.7139,0.65,0.6232,0.6255,0.6196,0.6138,0.6018,0.5972,0.5858,0.4867,0.3953,0.332,3.2978,3.2881,3.2827,3.2773,3.2773,3.2854,3.2881,3.287,3.2816,3.2718,3.2563,3.2242,3.1909,3.1613,3.1874,3.1259,3.0048,3.0263,2.9664,2.8473,2.8411,2.8411,2.8273,2.7026,2.6402,2.6294,2.4964,2.4281,2.4281,2.4281,2.4281,2.4281,2.4291,2.3897,2.3182,2.2469,2.174,2.1036,2.0219,1.9621,1.9221,1.8978,1.8879,1.8803,1.8313,1.7817,1.7377,1.6888,1.6312,1.5685,1.5761,1.5771,1.5599,1.5772,1.6054,1.6375,1.6702,1.6881,1.6968,1.6701,1.638,1.5979,1.5344,1.4869,1.4605,1.4012,1.3681,1.3894,1.3752,1.361,1.361,1.361,1.361,1.361,1.361,1.3631,1.361,1.361,1.3762,1.4273,1.3952,1.3641,1.3686,1.3923,1.3634,1.2831,1.2322,1.2141,1.195,1.2065,1.2182,1.2189,1.2189,1.1668,1.0669,1.0083,0.9691,0.9354,0.9099,0.8653,0.8289,0.8103,0.8109,0.8076,0.7063,0.65,0.6712,0.6576,0.644,0.6395,0.6405,0.6345,0.5712,0.4861,0.4105,3.3139,3.3085,3.2951,3.2924,3.2966,3.3058,3.3058,3.2989,3.2924,3.2843,3.273,3.2648,3.2594,3.2523,3.2535,3.189,3.0819,3.0556,2.9822,2.8735,2.8488,2.8411,2.8288,2.7226,2.668,2.6441,2.5256,2.4481,2.4327,2.4281,2.4281,2.4281,2.4281,2.4035,2.3533,2.2748,2.2058,2.155,2.0612,2.001,1.9762,1.949,1.9325,1.9225,1.8851,1.8511,1.8167,1.7641,1.7038,1.6414,1.634,1.6258,1.6047,1.6291,1.6474,1.6631,1.6977,1.7157,1.7052,1.6913,1.6701,1.6417,1.5822,1.5411,1.5085,1.4212,1.3918,1.4373,1.4012,1.3716,1.3644,1.3644,1.361,1.3641,1.3972,1.4196,1.3679,1.361,1.3834,1.4449,1.4511,1.4283,1.423,1.4564,1.4499,1.3479,1.298,1.2652,1.2375,1.2436,1.2683,1.3019,1.2989,1.2286,1.1084,1.0428,1.0075,0.9803,0.9569,0.9342,0.9087,0.9035,0.8857,0.8421,0.7354,0.6955,0.7386,0.73,0.6734,0.6847,0.6923,0.6842,0.6392,0.571,0.4972,3.3203,3.3112,3.2951,3.304,3.3085,3.3128,3.3192,3.3245,3.3032,3.2935,3.3005,3.2757,3.2703,3.2854,3.287,3.2384,3.1522,3.0871,3.0114,2.9289,2.8688,2.8411,2.8365,2.7688,2.7334,2.7165,2.5911,2.4943,2.4374,2.4297,2.4281,2.4281,2.4281,2.4266,2.404,2.2963,2.2286,2.2055,2.0873,2.0078,2.0005,1.997,1.9848,1.9693,1.9699,1.9331,1.871,1.8856,1.8375,1.7104,1.7362,1.7423,1.7156,1.7128,1.7107,1.7146,1.7186,1.7212,1.7178,1.7157,1.7073,1.6833,1.629,1.5952,1.5822,1.4582,1.4197,1.496,1.4518,1.4082,1.3963,1.3851,1.3693,1.3752,1.5189,1.5183,1.3814,1.3859,1.3641,1.4086,1.5183,1.5659,1.5364,1.517,1.4973,1.4375,1.3713,1.308,1.2683,1.259,1.308,1.3838,1.3795,1.2972,1.1598,1.1,1.0569,1.028,1.014,0.9874,0.9706,0.951,0.9244,0.8929,0.8289,0.8023,0.8215,0.7863,0.7085,0.6977,0.7327,0.7246,0.7004,0.6527,0.5868,3.3519,3.3907,3.4325,3.4274,3.3876,3.386,3.365,3.3298,3.3112,3.3058,3.3085,3.2962,3.2962,3.3016,3.3123,3.264,3.1757,3.098,3.0221,2.9506,2.8753,2.8411,2.8334,2.7703,2.7396,2.7242,2.6403,2.5588,2.4943,2.4533,2.4281,2.4281,2.4281,2.4281,2.4148,2.3409,2.2732,2.2259,2.1329,2.0648,2.0229,2.0183,2.0166,2.0096,1.9957,1.9743,1.9328,1.9189,1.8684,1.7838,1.7753,1.7543,1.724,1.7212,1.7212,1.7212,1.7212,1.7212,1.7212,1.7212,1.7178,1.7086,1.6616,1.6349,1.6129,1.53,1.4947,1.5649,1.578,1.5515,1.5159,1.4634,1.4144,1.421,1.4883,1.5308,1.4831,1.4997,1.538,1.5484,1.6081,1.6257,1.6041,1.582,1.5526,1.5128,1.4627,1.3911,1.3072,1.2713,1.3103,1.433,1.4706,1.4159,1.2611,1.1957,1.1459,1.1063,1.079,1.0557,1.0332,0.9888,0.9585,0.9375,0.8942,0.9028,0.9166,0.8572,0.7722,0.7529,0.7875,0.788,0.761,0.7414,0.6814,3.4225,3.4683,3.5173,3.4952,3.432,3.4288,3.3909,3.3314,3.3165,3.3123,3.315,3.3069,3.3069,3.315,3.3187,3.2956,3.228,3.1477,3.0674,2.9981,2.9199,2.8709,2.8422,2.799,2.7766,2.7626,2.7011,2.6204,2.5342,2.4835,2.4533,2.4317,2.4281,2.4281,2.4174,2.364,2.304,2.2548,2.1766,2.1057,2.0641,2.0412,2.0287,2.027,2.0166,2.0008,1.9797,1.9398,1.8931,1.8366,1.7963,1.7597,1.7261,1.7212,1.7212,1.7212,1.7212,1.7212,1.7212,1.7212,1.7337,1.7539,1.7055,1.6824,1.7137,1.7032,1.7034,1.7062,1.6782,1.6612,1.6207,1.5508,1.4929,1.4804,1.5227,1.542,1.5127,1.5804,1.6267,1.6299,1.633,1.6392,1.6363,1.6181,1.5884,1.5584,1.5235,1.4558,1.3821,1.3133,1.3277,1.4745,1.542,1.5001,1.3862,1.2953,1.236,1.1896,1.1332,1.1118,1.0883,1.039,1.006,0.9814,0.9807,0.9981,0.9758,0.9185,0.8816,0.8509,0.8458,0.8551,0.8457,0.8443,0.7794,3.5363,3.5394,3.5426,3.5126,3.4525,3.4431,3.3957,3.3424,3.3165,3.3176,3.3229,3.3032,3.3085,3.3214,3.3176,3.3145,3.3024,3.2395,3.1622,3.0775,3.0042,2.9339,2.8706,2.8542,2.8408,2.8273,2.7673,2.6688,2.5527,2.5296,2.4933,2.4435,2.4317,2.4281,2.4281,2.3717,2.3332,2.2994,2.2055,2.1411,2.1227,2.0718,2.0395,2.0366,2.0318,2.0183,1.9988,1.9596,1.912,1.8533,1.8115,1.7699,1.7303,1.724,1.722,1.7233,1.7212,1.7212,1.7212,1.7251,1.763,1.8087,1.7661,1.7687,1.8536,1.9525,1.9639,1.8441,1.7712,1.7141,1.6765,1.6345,1.5898,1.5573,1.6153,1.6252,1.5592,1.5825,1.6402,1.6402,1.6402,1.6402,1.6335,1.6249,1.6056,1.5884,1.5555,1.5177,1.4804,1.3941,1.3911,1.5001,1.5768,1.5691,1.4834,1.3962,1.3312,1.2668,1.2033,1.1587,1.1478,1.1127,1.0959,1.0753,1.0766,1.0923,1.0783,1.028,1.0122,0.9876,0.9665,0.9505,0.9493,0.9439,0.8804,3.6077,3.6169,3.6643,3.6421,3.5726,3.5252,3.4636,3.3957,3.3477,3.3256,3.3282,3.3229,3.3229,3.3282,3.3256,3.324,3.3277,3.2988,3.2484,3.1585,3.0398,2.9684,2.9354,2.8862,2.8541,2.8328,2.7734,2.7196,2.6641,2.5795,2.5173,2.4943,2.4512,2.4297,2.4281,2.4102,2.381,2.3286,2.2886,2.2455,2.1997,2.1334,2.0996,2.0934,2.0551,2.0216,2.0005,1.9654,1.9217,1.8755,1.8378,1.7975,1.7638,1.7468,1.7399,1.7329,1.7253,1.7212,1.7264,1.7604,1.8074,1.8558,1.8493,1.8532,1.895,2.0007,2.0173,1.9127,1.8617,1.8318,1.7967,1.7515,1.6754,1.5733,1.6322,1.6666,1.612,1.6233,1.6371,1.6402,1.6402,1.6402,1.6402,1.6345,1.6278,1.622,1.597,1.571,1.5498,1.4882,1.4695,1.5614,1.6058,1.6288,1.5546,1.4922,1.4419,1.3731,1.3038,1.2243,1.2052,1.1889,1.1731,1.1871,1.1893,1.1681,1.1571,1.1375,1.1147,1.126,1.1173,1.0995,1.0781,1.0342,0.9785,3.6817,3.6864,3.732,3.7069,3.6377,3.5947,3.5363,3.4668,3.3972,3.3672,3.364,3.335,3.3256,3.3266,3.3256,3.3256,3.3293,3.3256,3.2966,3.2369,3.1322,3.0447,2.9802,2.8923,2.8493,2.8359,2.798,2.7626,2.7349,2.6534,2.5804,2.5296,2.4866,2.4548,2.4327,2.4281,2.4056,2.3686,2.3409,2.3086,2.2644,2.2028,2.1673,2.1612,2.1273,2.0965,2.0734,2.0497,2.0026,1.9421,1.9115,1.8926,1.863,1.8428,1.8246,1.8089,1.7899,1.7682,1.7369,1.7922,1.8754,1.9316,1.9159,1.9159,1.9562,2.0373,2.0315,1.9824,1.9432,1.9198,1.8869,1.8251,1.7394,1.6439,1.6701,1.6892,1.6772,1.6744,1.6602,1.6506,1.6516,1.6573,1.6573,1.6477,1.6459,1.6402,1.6192,1.6105,1.5943,1.5653,1.5769,1.5943,1.6202,1.6288,1.6173,1.5817,1.5488,1.4824,1.4109,1.325,1.2677,1.2496,1.2335,1.3033,1.3269,1.2425,1.2184,1.2019,1.1848,1.2162,1.2633,1.2178,1.1835,1.1457,1.0975,3.7494,3.751,3.751,3.7117,3.6535,3.6377,3.5982,3.5379,3.4573,3.4225,3.4087,3.3455,3.3219,3.3256,3.3203,3.3187,3.324,3.3203,3.3107,3.2929,3.2342,3.1379,2.984,2.8974,2.8583,2.8396,2.835,2.8042,2.758,2.7288,2.6734,2.5687,2.5465,2.5041,2.4574,2.4374,2.4379,2.4148,2.3686,2.3394,2.3317,2.2701,2.2347,2.2366,2.2209,2.2041,2.1801,2.1721,2.1238,2.0342,2.0241,2.0197,2.0059,1.9867,1.9466,1.915,1.9008,1.8384,1.7826,1.8401,1.9394,2.0281,1.9732,1.9444,2.0411,2.0594,2.0611,2.0345,1.9991,1.9682,1.9303,1.8682,1.7945,1.7451,1.7234,1.7222,1.7278,1.725,1.7026,1.6687,1.6772,1.697,1.6818,1.6694,1.6477,1.6278,1.6048,1.6029,1.6144,1.6,1.6097,1.6241,1.6355,1.6345,1.6259,1.6192,1.5894,1.5633,1.501,1.433,1.3519,1.3224,1.3489,1.4172,1.4282,1.3428,1.2787,1.2622,1.319,1.406,1.3972,1.3351,1.2785,1.2331,1.1935,3.751,3.751,3.751,3.737,3.7117,3.6629,3.6314,3.5995,3.4826,3.4352,3.4146,3.354,3.3256,3.3309,3.3282,3.3282,3.3282,3.3256,3.3176,3.3081,3.2981,3.1653,3.003,2.9425,2.8956,2.8482,2.842,2.8304,2.8104,2.7704,2.7219,2.6857,2.6332,2.5771,2.5142,2.5025,2.4758,2.4364,2.4143,2.4025,2.3917,2.3363,2.3055,2.2994,2.2613,2.2267,2.207,2.23,2.1982,2.1032,2.0901,2.0782,2.0543,2.0206,1.9896,1.9553,1.9182,1.8989,1.9015,1.9303,1.9941,2.0581,2.0334,2.0384,2.0633,2.0712,2.0637,2.0486,2.0246,1.999,1.9589,1.9117,1.8556,1.7947,1.764,1.7362,1.7306,1.7306,1.7222,1.7082,1.7015,1.7054,1.7054,1.6761,1.6353,1.5999,1.5836,1.5769,1.5943,1.6155,1.6126,1.628,1.6394,1.6384,1.6374,1.6374,1.6316,1.623,1.5856,1.5459,1.4675,1.4139,1.4784,1.5614,1.5157,1.441,1.37,1.3245,1.438,1.5293,1.4538,1.3601,1.3368,1.2998,1.2556,3.751,3.751,3.751,3.751,3.7462,3.7038,3.6864,3.6595,3.5379,3.4762,3.4541,3.3719,3.3309,3.3293,3.3293,3.3293,3.3293,3.3229,3.3176,3.3069,3.2931,3.1799,3.0334,2.9782,2.9239,2.8611,2.8581,2.8645,2.863,2.8272,2.7992,2.7641,2.7254,2.665,2.5917,2.5497,2.5191,2.4733,2.4466,2.4281,2.4251,2.3933,2.3763,2.3671,2.3317,2.3033,2.2925,2.3002,2.2679,2.2064,2.202,2.1971,2.1564,2.1141,2.0716,2.0309,1.9903,1.9773,1.9943,2.0137,2.0321,2.062,2.0699,2.0843,2.1001,2.1106,2.1133,2.1316,2.116,2.0989,2.0675,2.0176,1.9558,1.8944,1.8347,1.7833,1.739,1.7306,1.7306,1.7278,1.7222,1.7166,1.7278,1.6867,1.6381,1.5989,1.5855,1.5701,1.5585,1.5856,1.6359,1.676,1.6684,1.6612,1.6539,1.6498,1.6757,1.6717,1.6449,1.6126,1.54,1.4803,1.5235,1.5701,1.5633,1.5391,1.4677,1.4172,1.4538,1.4872,1.4291,1.4082,1.3851,1.3376,1.2981,3.7599,3.7569,3.7553,3.7539,3.7539,3.7494,3.7431,3.727,3.6144,3.551,3.5162,3.4026,3.3514,3.3335,3.3414,3.3388,3.3372,3.3319,3.3229,3.3123,3.2841,3.2038,3.0943,3.0167,2.947,2.8881,2.8897,2.9036,2.9113,2.9127,2.8842,2.8439,2.816,2.7617,2.6889,2.6209,2.5679,2.5364,2.4973,2.4666,2.4558,2.4441,2.4348,2.4164,2.4107,2.3978,2.3842,2.3728,2.3323,2.2842,2.3344,2.3185,2.2826,2.2381,2.1885,2.1346,2.0846,2.0617,2.066,2.062,2.066,2.0699,2.0764,2.0962,2.1355,2.1564,2.1799,2.2139,2.24,2.2173,2.1881,2.1402,2.0767,2.0043,1.9453,1.8583,1.7783,1.739,1.7306,1.7328,1.7339,1.7383,1.7353,1.7155,1.6816,1.6573,1.6236,1.5753,1.541,1.5235,1.6377,1.7771,1.745,1.6912,1.6788,1.6643,1.7015,1.7203,1.6899,1.6467,1.5615,1.5176,1.5313,1.5546,1.5846,1.5865,1.5536,1.5274,1.5225,1.5049,1.4922,1.4656,1.4359,1.361,1.3103,3.8119,3.7972,3.7873,3.7772,3.7642,3.7524,3.7569,3.7608,3.688,3.6234,3.5644,3.483,3.4143,3.3648,3.3664,3.3684,3.3745,3.372,3.3617,3.3398,3.324,3.272,3.1844,3.1011,3.0024,2.9351,2.9212,2.94,2.9572,2.9639,2.9591,2.9424,2.9086,2.8647,2.7835,2.7368,2.6851,2.6271,2.5918,2.5555,2.5185,2.5087,2.4887,2.4481,2.4311,2.4239,2.4124,2.3903,2.3694,2.3591,2.3601,2.3584,2.3076,2.2651,2.2212,2.1722,2.1229,2.0911,2.085,2.0762,2.0712,2.0766,2.108,2.1381,2.1472,2.1734,2.2008,2.2361,2.2608,2.263,2.2282,2.1882,2.1559,2.1139,2.0391,1.9622,1.8931,1.7993,1.7534,1.7588,1.7779,1.8006,1.8323,1.8035,1.7677,1.7245,1.6668,1.5979,1.5533,1.5171,1.6655,1.8615,1.8543,1.7988,1.7262,1.718,1.746,1.7802,1.7574,1.6839,1.5979,1.5439,1.5556,1.5846,1.6259,1.6173,1.5951,1.6048,1.5875,1.573,1.5488,1.5196,1.4715,1.3971,1.367,3.8678,3.8495,3.8197,3.8014,3.786,3.7612,3.7612,3.7658,3.7291,3.6888,3.6427,3.5497,3.4813,3.4452,3.4085,3.3975,3.4159,3.4234,3.4109,3.3899,3.3781,3.3345,3.2743,3.2149,3.135,3.0163,2.9806,2.9913,3.007,3.0135,3.0135,3.013,2.9897,2.949,2.8868,2.8364,2.7784,2.7217,2.6763,2.6377,2.6032,2.5889,2.5746,2.5241,2.4925,2.4677,2.4655,2.4403,2.4295,2.4297,2.4403,2.4075,2.3282,2.2852,2.248,2.2006,2.1496,2.112,2.0985,2.08,2.0792,2.1053,2.1368,2.172,2.2008,2.2283,2.2622,2.3039,2.3339,2.3321,2.3026,2.2969,2.2753,2.239,2.2027,2.1468,2.0578,1.9317,1.8844,1.9135,1.9184,1.9067,1.9002,1.8851,1.8324,1.7809,1.7758,1.7154,1.7184,1.703,1.7998,1.9264,1.9456,1.9072,1.8051,1.7801,1.8009,1.8331,1.8495,1.7503,1.642,1.6014,1.5711,1.6058,1.6374,1.6374,1.6249,1.6374,1.6384,1.6144,1.5875,1.5575,1.5147,1.4465,1.4417,3.9232,3.9071,3.8629,3.8339,3.8157,3.7801,3.7831,3.7991,3.7723,3.765,3.7394,3.6166,3.5778,3.533,3.4756,3.4521,3.4594,3.4675,3.4602,3.4399,3.4349,3.3974,3.3502,3.3223,3.2714,3.1414,3.0817,3.0648,3.0601,3.0593,3.063,3.0589,3.0384,3.0107,2.9762,2.9189,2.8682,2.8329,2.7778,2.7252,2.6942,2.6747,2.6567,2.614,2.5729,2.5424,2.535,2.5166,2.4995,2.4994,2.5383,2.484,2.3937,2.3212,2.2857,2.2413,2.1864,2.1447,2.1209,2.1055,2.113,2.1524,2.1773,2.2086,2.2673,2.3,2.3352,2.3733,2.3965,2.3965,2.4099,2.391,2.3702,2.3493,2.3783,2.3446,2.2403,2.1063,2.1271,2.1711,2.0789,2.0024,1.9871,1.9731,1.9006,1.8474,1.8433,1.8424,1.8428,1.8606,1.9329,1.9695,1.9802,1.9704,1.8807,1.8062,1.8311,1.8674,1.9017,1.8248,1.7211,1.7195,1.6961,1.6325,1.6402,1.6402,1.6402,1.6402,1.6374,1.6345,1.6417,1.6326,1.5771,1.5014,1.5174,3.9816,3.9556,3.9222,3.8925,3.8667,3.8375,3.8403,3.865,3.8772,3.8586,3.8084,3.7796,3.6936,3.6175,3.5737,3.5446,3.5235,3.5188,3.5071,3.4875,3.4828,3.4589,3.448,3.4144,3.3738,3.3306,3.2383,3.1604,3.1177,3.1092,3.1012,3.1012,3.0851,3.0613,3.0351,3.003,2.9664,2.9393,2.897,2.85,2.7946,2.7561,2.7163,2.6664,2.6327,2.6204,2.6143,2.5948,2.5811,2.5781,2.5787,2.558,2.5163,2.4539,2.3854,2.32,2.2601,2.2162,2.18,2.1703,2.1676,2.1878,2.235,2.2725,2.3078,2.3456,2.3822,2.3995,2.4125,2.4125,2.4125,2.4125,2.4099,2.3965,2.3939,2.3979,2.3612,2.326,2.3026,2.3306,2.2082,2.0931,2.0833,2.0633,2.0086,1.9569,1.9359,1.936,1.9372,1.9458,1.9814,2.0009,2.0042,1.9846,1.9445,1.8732,1.8467,1.8863,1.9123,1.9056,1.8434,1.8652,1.8372,1.748,1.6703,1.6402,1.6402,1.6402,1.6519,1.6603,1.6845,1.7114,1.6558,1.5968,1.5841,4.0412,4.0188,3.9782,3.9506,3.9286,3.8952,3.8963,3.9216,3.9506,3.952,3.9194,3.8807,3.8287,3.7523,3.6595,3.6131,3.5853,3.5768,3.5616,3.5412,3.5367,3.5304,3.5258,3.4907,3.4622,3.4229,3.3544,3.266,3.1799,3.136,3.1241,3.1151,3.1032,3.0855,3.0695,3.0531,3.0363,3.0135,2.9843,2.9412,2.8764,2.8333,2.7775,2.7504,2.7095,2.6919,2.6873,2.6672,2.6549,2.6633,2.678,2.682,2.6582,2.6051,2.5244,2.4494,2.3876,2.3339,2.2891,2.2772,2.2602,2.2777,2.3101,2.3315,2.3509,2.3848,2.4112,2.4125,2.4125,2.4125,2.4125,2.4125,2.4125,2.4125,2.4125,2.4125,2.4125,2.4125,2.4125,2.4024,2.284,2.1983,2.1853,2.1557,2.1144,2.0743,2.0356,2.0205,2.0183,2.0118,2.0118,2.0118,2.0118,2.002,1.9813,1.9393,1.887,1.9141,1.9241,1.9208,1.9154,1.9145,1.8882,1.832,1.7584,1.6923,1.6402,1.6402,1.6622,1.6943,1.7286,1.7492,1.7236,1.6991,1.686,4.0817,4.0673,4.0262,4.002,3.9859,3.9523,3.9523,3.9765,3.9995,4.0162,4.0228,3.9651,3.9253,3.8799,3.7659,3.6677,3.641,3.632,3.601,3.5773,3.5728,3.5706,3.5639,3.5549,3.5256,3.4812,3.4382,3.3732,3.2361,3.1769,3.1413,3.1205,3.1092,3.1032,3.0952,3.0871,3.0733,3.0568,3.0274,2.9897,2.9303,2.8771,2.8411,2.8396,2.7873,2.7596,2.7572,2.7383,2.732,2.7426,2.7619,2.787,2.7834,2.7415,2.6766,2.6102,2.5437,2.4775,2.4223,2.3856,2.3619,2.3662,2.357,2.3756,2.3903,2.4047,2.4125,2.4125,2.4125,2.4125,2.4125,2.4125,2.4125,2.4125,2.4125,2.4125,2.4125,2.4125,2.4125,2.3806,2.3185,2.2944,2.2763,2.2322,2.1846,2.1325,2.0944,2.0496,2.041,2.0151,2.0118,2.0118,2.0118,2.0118,2.0053,2.002,1.9619,1.9607,1.9539,1.9407,1.9374,1.933,1.912,1.9007,1.8575,1.7906,1.7179,1.6599,1.6964,1.7378,1.775,1.7884,1.7688,1.7832,1.7935,4.0817,4.0673,4.051,4.037,4.0238,4.007,4.007,4.0221,4.037,4.0461,4.0468,4.0349,3.9939,3.9176,3.798,3.731,3.6994,3.6582,3.6165,3.5878,3.5817,3.5751,3.5622,3.5616,3.5549,3.5245,3.481,3.3677,3.2716,3.2293,3.1802,3.1393,3.1221,3.1188,3.1112,3.1072,3.1151,3.1032,3.0651,3.0022,2.9259,2.8692,2.8468,2.8405,2.8288,2.8196,2.8141,2.7966,2.7957,2.8027,2.8094,2.8103,2.8039,2.8082,2.7942,2.7306,2.6311,2.5082,2.4889,2.4765,2.4563,2.4491,2.4293,2.426,2.4173,2.4125,2.4125,2.4125,2.4125,2.4125,2.4125,2.4125,2.4125,2.4125,2.4125,2.4125,2.4125,2.4125,2.4125,2.4083,2.3628,2.3616,2.3556,2.3053,2.2543,2.2021,2.1502,2.1115,2.0722,2.0561,2.0118,2.0118,2.0118,2.0118,2.0118,2.0118,2.0085,1.9944,1.9813,1.9615,1.9615,1.9648,1.9846,1.9641,1.9242,1.8676,1.7791,1.7422,1.7573,1.7947,1.852,1.8446,1.8195,1.8433,1.8725,4.0864,4.0817,4.0728,4.068,4.0631,4.0583,4.0583,4.0631,4.068,4.0728,4.0728,4.0728,4.0315,3.9525,3.8831,3.8183,3.7533,3.7029,3.6526,3.5983,3.5888,3.58,3.5644,3.5616,3.5616,3.5515,3.5228,3.4726,3.3626,3.2699,3.209,3.1836,3.141,3.119,3.119,3.119,3.119,3.1032,3.0609,3.0,2.938,2.8865,2.8549,2.8517,2.8444,2.8396,2.8372,2.8275,2.8235,2.8275,2.8259,2.821,2.8201,2.821,2.8186,2.818,2.7421,2.6747,2.6425,2.6141,2.573,2.5296,2.4983,2.4567,2.4258,2.4125,2.4125,2.4125,2.4125,2.4125,2.4138,2.4125,2.4125,2.4125,2.4125,2.4125,2.4125,2.4125,2.4125,2.4125,2.4083,2.4024,2.3894,2.3497,2.3083,2.2781,2.2414,2.2137,2.1663,2.1233,2.0722,2.0107,2.0118,2.0118,2.0118,2.0118,2.0118,2.0053,2.0053,1.9922,1.9922,2.002,2.0085,2.0118,1.9781,1.9114,1.8327,1.8181,1.8226,1.8743,1.9353,1.898,1.8621,1.8735,1.8953,4.0894,4.0894,4.0894,4.0894,4.0894,4.0894,4.0871,4.0912,4.0871,4.0912,4.0894,4.0871,4.0543,3.9939,3.9491,3.8663,3.7823,3.7409,3.6758,3.6216,3.5975,3.5844,3.5689,3.5616,3.5616,3.5616,3.5549,3.5177,3.4523,3.3613,3.2801,3.2327,3.1799,3.141,3.1224,3.119,3.1171,3.1032,3.0572,3.007,2.9566,2.9067,2.8779,2.8621,2.8517,2.8411,2.8387,2.8323,2.8323,2.8348,2.8323,2.8299,2.8348,2.8299,2.8299,2.8299,2.7945,2.7822,2.7495,2.7187,2.6811,2.6229,2.5522,2.4859,2.4715,2.4389,2.4534,2.4905,2.4421,2.4405,2.4373,2.436,2.4141,2.4141,2.4125,2.4125,2.4164,2.4321,2.4269,2.4125,2.4125,2.4125,2.3966,2.376,2.3539,2.3407,2.3258,2.3078,2.2592,2.1975,2.16,2.0987,2.0464,2.0378,2.0118,2.0118,2.0118,2.0151,2.0151,2.0085,2.0053,2.0053,2.0085,2.0085,2.0085,1.9781,1.9136,1.9007,1.8921,1.9319,1.9605,1.9308,1.9069,1.9131,1.9098,4.0894,4.0894,4.0894,4.0894,4.0894,4.0894,4.0894,4.0894,4.0894,4.0894,4.0894,4.0894,4.086,4.0498,3.9474,3.8767,3.8422,3.7025,3.6431,3.6148,3.5975,3.5844,3.5689,3.5616,3.5616,3.5616,3.5616,3.5549,3.5329,3.4624,3.3529,3.2479,3.2307,3.1836,3.1546,3.1512,3.1365,3.1174,3.08,3.0345,2.9842,2.9341,2.8951,2.87,2.8541,2.8411,2.8411,2.8372,2.8372,2.8411,2.8372,2.8348,2.8387,2.8372,2.8372,2.8363,2.8363,2.8275,2.8088,2.7725,2.7229,2.6628,2.6018,2.553,2.5588,2.4766,2.5074,2.6286,2.5794,2.5293,2.5178,2.4832,2.4294,2.4311,2.4282,2.4125,2.4308,2.4696,2.4605,2.4256,2.4269,2.4517,2.4674,2.4611,2.4046,2.3833,2.3688,2.3539,2.315,2.2635,2.2574,2.2099,2.1233,2.0722,2.0248,2.0183,2.0183,2.0248,2.0281,2.0183,2.0085,2.0118,2.0118,2.0053,2.0009,2.0009,1.9998,1.9695,1.9544,1.9814,1.9813,1.944,1.9198,1.9098,1.9098,4.0894,4.0894,4.0894,4.0894,4.0894,4.0894,4.0894,4.0894,4.0894,4.0894,4.0894,4.0894,4.0894,4.0584,3.9876,3.8991,3.853,3.7599,3.6724,3.6165,3.5975,3.5844,3.5706,3.5616,3.5616,3.5616,3.5616,3.5616,3.5515,3.5233,3.432,3.3423,3.3051,3.253,3.2192,3.2154,3.2107,3.1698,3.1433,3.1023,3.006,2.955,2.9127,2.885,2.8525,2.842,2.8411,2.8411,2.8411,2.8411,2.8411,2.8411,2.8411,2.8411,2.8442,2.8473,2.8488,2.8504,2.8479,2.8115,2.7635,2.7192,2.6901,2.682,2.6847,2.6913,2.7104,2.7529,2.7601,2.737,2.6205,2.5159,2.4275,2.4491,2.4583,2.4439,2.4583,2.5101,2.5649,2.5584,2.5388,2.5362,2.5524,2.5597,2.4905,2.4275,2.4158,2.3936,2.3539,2.3313,2.3241,2.309,2.2316,2.1549,2.1031,2.0646,2.027,2.0367,2.0496,2.0367,2.0302,2.0118,2.0085,2.002,2.002,2.0053,2.0053,2.0085,2.0085,2.0053,1.9813,1.9462,1.9297,1.9131,1.9098,4.0894,4.0894,4.0894,4.0894,4.0894,4.0894,4.0894,4.0894,4.0894,4.0894,4.0894,4.0894,4.0894,4.0687,4.0049,3.9267,3.856,3.7784,3.6895,3.6341,3.5993,3.5861,3.5706,3.5616,3.5616,3.5616,3.5616,3.5616,3.5616,3.5616,3.4844,3.4134,3.388,3.344,3.2598,3.2949,3.3077,3.2626,3.2118,3.1871,3.0925,3.0247,2.9676,2.9352,2.8969,2.8581,2.8488,2.8411,2.8411,2.8411,2.8411,2.8411,2.8411,2.8442,2.8519,2.8658,2.8765,2.8827,2.891,2.8608,2.8349,2.8129,2.8269,2.8197,2.8325,2.8838,2.8507,2.8921,2.9465,2.9399,2.7541,2.6058,2.5342,2.5604,2.579,2.5715,2.5602,2.591,2.6615,2.7046,2.6733,2.6276,2.596,2.5978,2.5485,2.4747,2.424,2.4106,2.3966,2.3819,2.3848,2.37,2.336,2.2653,2.1975,2.1221,2.0625,2.0955,2.0987,2.0743,2.0582,2.0432,2.0216,2.0085,2.0085,2.0118,2.0053,1.9987,2.002,2.0085,1.9769,1.9462,1.9297,1.9164,1.9131,4.0894,4.0894,4.0894,4.0894,4.0894,4.0894,4.0894,4.0894,4.0894,4.0894,4.0894,4.0894,4.0894,4.0722,4.0043,3.937,3.8732,3.7956,3.7141,3.652,3.6271,3.5963,3.5757,3.5684,3.5616,3.5616,3.5616,3.5616,3.5616,3.5616,3.5081,3.4742,3.459,3.4353,3.2598,3.3085,3.3406,3.3267,3.2692,3.2517,3.2045,3.1186,3.0526,3.0061,2.963,2.9181,2.8935,2.8827,2.8842,2.8812,2.8781,2.8781,2.875,2.8719,2.8895,2.935,2.9535,2.9843,3.0217,2.9593,2.9336,2.9346,2.9439,2.9575,2.9572,2.9521,2.9551,3.0163,3.0867,3.0411,2.8889,2.7437,2.6989,2.6904,2.7143,2.7024,2.6916,2.7035,2.7765,2.7736,2.7491,2.7196,2.666,2.6238,2.5862,2.5253,2.4521,2.4217,2.4151,2.4125,2.4125,2.4024,2.3819,2.3258,2.2427,2.1486,2.1074,2.14,2.1502,2.1325,2.121,2.1158,2.085,2.0346,2.0118,2.0118,1.9987,1.9846,1.9944,2.0042,1.9736,1.9462,1.9308,1.9208,1.9131,4.0894,4.0894,4.0894,4.0894,4.0894,4.0894,4.0894,4.0894,4.0894,4.0894,4.0894,4.0894,4.0894,4.0653,4.0146,3.956,3.9215,3.8577,3.7811,3.7433,3.6915,3.6622,3.6333,3.5859,3.5616,3.5616,3.5616,3.5616,3.5616,3.5616,3.5182,3.481,3.4878,3.4737,3.459,3.4737,3.4648,3.4054,3.3614,3.3206,3.2449,3.1704,3.1102,3.0728,3.0278,2.992,2.9617,2.9541,2.9541,2.9556,2.9556,2.9571,2.9602,2.9602,2.9771,3.0033,3.0197,3.0458,3.0859,3.0714,3.0462,3.0437,3.054,3.0721,3.0697,3.0919,3.1177,3.1345,3.1625,3.1127,3.0221,2.9205,2.88,2.8879,2.8907,2.8461,2.8311,2.862,2.8926,2.8164,2.7729,2.7637,2.7275,2.7029,2.6651,2.6109,2.544,2.4485,2.4178,2.4138,2.4125,2.4125,2.3936,2.3526,2.2914,2.2192,2.1769,2.1975,2.2075,2.1959,2.1908,2.1901,2.1316,2.0754,2.041,2.0085,2.002,1.9944,2.0009,1.9966,1.9769,1.9539,1.9407,1.9241,1.9131,4.0894,4.0894,4.0894,4.0894,4.0894,4.0894,4.0894,4.0894,4.0894,4.0894,4.0894,4.0894,4.0894,4.0739,4.0394,3.9836,3.9681,3.9232,3.8551,3.8202,3.7422,3.6979,3.6553,3.6079,3.5667,3.5616,3.5616,3.5616,3.5616,3.5616,3.5385,3.5064,3.4878,3.5126,3.5363,3.538,3.5228,3.4583,3.4141,3.3584,3.2914,3.2273,3.1573,3.1252,3.0928,3.0602,3.0448,3.0417,3.0422,3.0452,3.0437,3.0437,3.0442,3.056,3.0648,3.0735,3.1059,3.1305,3.1613,3.1705,3.1447,3.1236,3.1551,3.1651,3.1634,3.1744,3.1842,3.1979,3.2094,3.1737,3.1145,3.0372,3.0358,3.0435,3.0391,2.9936,2.9749,3.0023,2.9976,2.9139,2.7967,2.7921,2.7875,2.7795,2.7541,2.6969,2.6352,2.5387,2.4498,2.4426,2.4282,2.4125,2.4096,2.3802,2.3492,2.312,2.2787,2.2647,2.2641,2.2647,2.2647,2.261,2.187,2.1158,2.0786,2.0443,2.0183,2.0118,2.0107,2.0074,1.9976,1.9736,1.9506,1.9341,1.9198,4.0894,4.0894,4.0894,4.0894,4.0894,4.0894,4.0894,4.0894,4.0894,4.0894,4.0894,4.0894,4.0894,4.0894,4.0843,4.0457,3.9957,3.9767,3.9284,3.8528,3.7986,3.7444,3.6837,3.622,3.5842,3.569,3.5616,3.5616,3.5616,3.5616,3.5566,3.5532,3.5397,3.5498,3.5566,3.556,3.5397,3.4923,3.4363,3.3921,3.3453,3.2717,3.2143,3.1799,3.1573,3.1224,3.0955,3.0771,3.0733,3.0676,3.06,3.0573,3.0665,3.0933,3.1201,3.152,3.1997,3.2151,3.2244,3.2228,3.2244,3.2013,3.2198,3.2284,3.2241,3.221,3.2216,3.2191,3.2176,3.1951,3.1551,3.1537,3.1523,3.1637,3.1764,3.1478,3.1204,3.116,3.1073,3.0208,2.8656,2.8164,2.8183,2.8182,2.8069,2.7806,2.7283,2.6801,2.5919,2.5145,2.487,2.4125,2.4109,2.409,2.3892,2.3901,2.386,2.3735,2.3503,2.3466,2.3442,2.333,2.2884,2.2211,2.1285,2.0733,2.0281,2.0151,2.0172,2.014,2.0107,1.9944,1.9704,1.9506,1.9363,4.0894,4.0894,4.0894,4.0894,4.0894,4.0894,4.0894,4.0894,4.0894,4.0894,4.0894,4.0894,4.0894,4.0894,4.0894,4.0739,4.0618,4.0509,4.0345,3.9735,3.8945,3.8378,3.7699,3.6938,3.6299,3.5842,3.5667,3.5701,3.5633,3.5616,3.5616,3.56,3.5616,3.5616,3.5616,3.5616,3.5389,3.5045,3.4457,3.4097,3.3726,3.2982,3.2529,3.2272,3.2122,3.1813,3.172,3.1674,3.1682,3.174,3.1786,3.1805,3.1863,3.1955,3.2074,3.2105,3.2305,3.2382,3.2398,3.2398,3.2398,3.2398,3.2398,3.2398,3.237,3.237,3.2358,3.2315,3.2315,3.2104,3.2048,3.2064,3.2064,3.2148,3.2244,3.2104,3.1866,3.1823,3.1737,3.1028,2.9501,2.8346,2.8411,2.8411,2.833,2.8295,2.812,2.7719,2.7215,2.643,2.5733,2.4975,2.4644,2.481,2.4914,2.4957,2.4906,2.4827,2.4522,2.4185,2.3897,2.3765,2.3739,2.3138,2.2056,2.1063,2.0216,2.027,2.0582,2.0335,2.0248,2.0074,1.99,1.9769,1.9572,4.0894,4.0894,4.0894,4.0894,4.0894,4.0894,4.0894,4.0894,4.0894,4.0894,4.0894,4.0894,4.0894,4.0894,4.0894,4.0877,4.086,4.0802,4.0696,4.0412,3.9982,3.9194,3.8444,3.7789,3.7193,3.6575,3.6191,3.618,3.6011,3.5701,3.5616,3.5616,3.5616,3.5611,3.5532,3.5458,3.5228,3.4859,3.444,3.4034,3.3539,3.3027,3.2703,3.2551,3.2425,3.2425,3.2398,3.2398,3.2398,3.2398,3.2398,3.2398,3.2367,3.2367,3.2367,3.2351,3.2382,3.2398,3.2398,3.2398,3.2398,3.2398,3.2398,3.2398,3.2398,3.2398,3.2398,3.2398,3.2398,3.2398,3.2398,3.2398,3.2398,3.2398,3.2398,3.2398,3.237,3.237,3.202,3.1566,3.0419,2.898,2.8541,2.8587,2.8587,2.85,2.8473,2.8333,2.7927,2.7379,2.6823,2.6216,2.5858,2.5754,2.5837,2.5811,2.5712,2.556,2.534,2.496,2.4507,2.4141,2.4025,2.3479,2.2702,2.1733,2.0807,2.0924,2.1115,2.0839,2.0658,2.0646,2.0453,2.0074,1.9868,4.0894,4.0894,4.0894,4.0894,4.0894,4.0894,4.0894,4.0894,4.0894,4.0894,4.0894,4.0894,4.0894,4.0894,4.0894,4.0894,4.0894,4.0912,4.0864,4.0704,4.0236,3.9596,3.9047,3.8544,3.7946,3.7672,3.733,3.6857,3.6654,3.6332,3.596,3.5769,3.5955,3.6061,3.599,3.5817,3.5559,3.5086,3.445,3.388,3.3309,3.2796,3.2398,3.2425,3.2398,3.2398,3.2398,3.2398,3.2398,3.2398,3.2398,3.2398,3.2398,3.2398,3.2398,3.2398,3.2398,3.2398,3.2398,3.2398,3.2398,3.2398,3.2398,3.2398,3.2398,3.2398,3.2398,3.2398,3.2398,3.2398,3.2398,3.2398,3.2398,3.2398,3.2398,3.2398,3.2398,3.2287,3.1951,3.1393,3.0478,2.9198,2.8702,2.8748,2.8587,2.8587,2.8587,2.8587,2.8425,2.8033,2.7598,2.7157,2.6798,2.6472,2.6425,2.6431,2.6366,2.6211,2.608,2.6048,2.5829,2.5104,2.4253,2.4119,2.3971,2.2542,2.1671,2.1858,2.1827,2.1463,2.1316,2.1348,2.1063,2.0679,2.0453,4.0894,4.0894,4.0894,4.0894,4.0894,4.0894,4.0894,4.0894,4.0894,4.0894,4.0894,4.0894,4.0894,4.0894,4.0894,4.0894,4.0894,4.0894,4.0871,4.0823,4.0554,4.0027,3.9512,3.9184,3.8697,3.8079,3.7719,3.7577,3.7341,3.6918,3.6806,3.7222,3.7165,3.6969,3.6697,3.6504,3.6091,3.5448,3.4691,3.3948,3.3332,3.2819,3.2398,3.2398,3.2398,3.2398,3.2398,3.2398,3.2398,3.2398,3.2398,3.2398,3.2398,3.2398,3.2398,3.2398,3.2398,3.2398,3.2398,3.2398,3.2398,3.2398,3.2398,3.2398,3.2398,3.2398,3.2428,3.2459,3.2398,3.2398,3.2398,3.2398,3.2398,3.2398,3.2398,3.2398,3.2398,3.2092,3.1796,3.0999,3.0205,2.962,2.9053,2.8766,2.8651,2.8587,2.8587,2.8587,2.8587,2.8327,2.802,2.7637,2.7392,2.715,2.7085,2.7033,2.6987,2.7065,2.7039,2.704,2.7027,2.644,2.5738,2.5686,2.5325,2.3798,2.2825,2.2823,2.2671,2.2242,2.2006,2.2037,2.1901,2.1557,2.1336,4.0584,4.0877,4.0894,4.0894,4.0894,4.0894,4.0894,4.0894,4.0894,4.0894,4.0894,4.0894,4.0894,4.0894,4.0894,4.0894,4.0894,4.0894,4.0871,4.0894,4.0836,4.0487,4.0093,3.9843,3.9547,3.8977,3.8408,3.8156,3.787,3.7468,3.7376,3.7747,3.7739,3.7576,3.7236,3.6925,3.6571,3.5819,3.5015,3.4364,3.3685,3.3054,3.2502,3.2398,3.2441,3.2456,3.2398,3.2398,3.2398,3.2398,3.2398,3.2398,3.2398,3.2398,3.2398,3.2398,3.2398,3.2398,3.2398,3.2398,3.2398,3.2398,3.2398,3.2398,3.3244,3.3321,3.3383,3.3321,3.2521,3.2398,3.2398,3.2398,3.2398,3.2398,3.2398,3.2398,3.2231,3.1966,3.1043,2.9747,2.9275,2.9149,2.8748,2.8716,2.8587,2.8587,2.8587,2.8587,2.8587,2.8587,2.8295,2.8052,2.7802,2.7669,2.7545,2.7604,2.7637,2.7769,2.7855,2.7551,2.7321,2.7406,2.7281,2.6778,2.6061,2.4914,2.4172,2.3671,2.345,2.3047,2.2836,2.2696,2.2531,2.2396,2.2261,4.0181,4.086,4.0894,4.0894,4.0894,4.0894,4.0894,4.0894,4.0894,4.0894,4.0894,4.0894,4.0894,4.0894,4.0894,4.0894,4.0894,4.0894,4.0894,4.0894,4.0894,4.0648,4.0546,4.0449,4.0141,3.9647,3.905,3.8546,3.8136,3.7736,3.7511,3.7628,3.7586,3.7476,3.7087,3.6816,3.6621,3.6099,3.5518,3.5107,3.4346,3.3524,3.3097,3.2823,3.2715,3.2684,3.2653,3.2607,3.2607,3.2398,3.2398,3.2398,3.2398,3.2398,3.2398,3.2398,3.2398,3.2398,3.2398,3.2398,3.2398,3.2398,3.2398,3.2813,3.3629,3.426,3.4321,3.3814,3.3013,3.2552,3.2552,3.2459,3.2459,3.2413,3.2413,3.2398,3.2163,3.1853,3.0569,2.9149,2.8972,2.8908,2.8619,2.8587,2.8587,2.8587,2.8587,2.8587,2.8587,2.8587,2.8457,2.8295,2.8131,2.8046,2.7881,2.7947,2.7987,2.8085,2.8085,2.7822,2.759,2.7536,2.7451,2.7281,2.6459,2.5323,2.4536,2.39,2.3717,2.3641,2.3437,2.318,2.2987,2.2884,2.3095,4.0146,4.0894,4.0894,4.0894,4.0894,4.0894,4.0894,4.0894,4.0894,4.0894,4.0894,4.0894,4.0894,4.0894,4.0894,4.0894,4.0894,4.0894,4.0894,4.0894,4.0894,4.0793,4.0673,4.06,4.0461,3.9942,3.9312,3.8848,3.8494,3.8044,3.7965,3.842,3.8443,3.8297,3.7996,3.7669,3.7287,3.6688,3.6113,3.5677,3.5566,3.492,3.4446,3.4291,3.4361,3.3991,3.3699,3.3485,3.303,3.2638,3.2428,3.2459,3.2398,3.2398,3.2398,3.2398,3.2398,3.2398,3.2398,3.2398,3.2398,3.2398,3.2475,3.2767,3.386,3.526,3.506,3.4475,3.3767,3.3213,3.3044,3.2752,3.2644,3.2536,3.2475,3.2428,3.2287,3.1881,3.1117,3.0282,2.9806,2.9306,2.8619,2.8619,2.8651,2.8651,2.8587,2.8587,2.8587,2.8587,2.8587,2.849,2.8406,2.8033,2.7736,2.8066,2.8183,2.8314,2.8281,2.7987,2.7723,2.7536,2.7425,2.7359,2.6641,2.5558,2.4819,2.4307,2.4005,2.39,2.3789,2.3616,2.3437,2.3348,2.3497]}]]